Time,TemperatureF,DewpointF,PressureIn,WindDirection,WindDirectionDegrees,WindSpeedMPH,WindSpeedGustMPH,Humidity,HourlyPrecipIn,Conditions,Clouds,dailyrainin,SolarRadiationWatts/m^2,SoftwareType,DateUTC
2013-04-01 00:00:00,33.5,24.1,30.09,NE,45,2.0,3.0,68,0.00,,,0.00,0,MyOwnSoftware,2013-03-31 23:00:00,
2013-04-01 00:01:00,33.5,24.1,30.09,NE,45,2.0,2.0,68,0.00,,,0.00,0,MyOwnSoftware,2013-03-31 23:01:00,
2013-04-01 00:02:00,33.5,24.1,30.09,NNE,22,3.0,6.0,68,0.00,,,0.00,0,MyOwnSoftware,2013-03-31 23:02:00,
2013-04-01 00:03:00,33.5,24.1,30.09,NNE,22,3.0,6.0,68,0.00,,,0.00,0,MyOwnSoftware,2013-03-31 23:03:00,
2013-04-01 00:04:00,33.5,23.7,30.09,NNE,22,2.0,3.0,67,0.00,,,0.00,0,MyOwnSoftware,2013-03-31 23:04:00,
2013-04-01 00:05:00,33.5,23.7,30.09,NNE,22,2.0,4.0,67,0.00,,,0.00,0,MyOwnSoftware,2013-03-31 23:05:00,
2013-04-01 00:06:00,33.5,23.7,30.09,NNE,22,3.0,5.0,67,0.00,,,0.00,0,MyOwnSoftware,2013-03-31 23:06:00,
2013-04-01 00:07:00,33.5,23.7,30.09,NNE,22,1.0,2.0,67,0.00,,,0.00,0,MyOwnSoftware,2013-03-31 23:07:00,
2013-04-01 00:08:00,33.5,23.7,30.09,NNE,22,2.0,3.0,67,0.00,,,0.00,0,MyOwnSoftware,2013-03-31 23:08:00,
2013-04-01 00:09:00,33.5,23.7,30.09,NNE,22,2.0,3.0,67,0.00,,,0.00,0,MyOwnSoftware,2013-03-31 23:09:00,
2013-04-01 00:10:00,33.5,23.7,30.09,NNE,22,2.0,2.0,67,0.00,,,0.00,0,MyOwnSoftware,2013-03-31 23:10:00,
2013-04-01 00:11:00,33.5,23.7,30.09,NNE,22,2.0,3.0,67,0.00,,,0.00,0,MyOwnSoftware,2013-03-31 23:11:00,
2013-04-01 00:12:00,33.5,23.7,30.09,NNE,22,3.0,5.0,67,0.00,,,0.00,0,MyOwnSoftware,2013-03-31 23:12:00,
2013-04-01 00:13:00,33.5,24.0,30.09,NNE,14,0.0,-999.0,67,-99.99,,,0.00,0,weatherlink.com 1.10,2013-03-31 23:13:00,
2013-04-01 00:14:00,33.5,23.7,30.09,NNE,22,2.0,4.0,67,0.00,,,0.00,0,MyOwnSoftware,2013-03-31 23:14:00,
2013-04-01 00:15:00,33.5,23.4,30.09,NNE,22,3.0,3.0,66,0.00,,,0.00,0,MyOwnSoftware,2013-03-31 23:15:00,
2013-04-01 00:16:00,33.5,23.4,30.09,NE,45,3.0,6.0,66,0.00,,,0.00,0,MyOwnSoftware,2013-03-31 23:16:00,
2013-04-01 00:17:00,33.5,23.7,30.09,NE,45,2.0,5.0,67,0.00,,,0.00,0,MyOwnSoftware,2013-03-31 23:17:00,
2013-04-01 00:18:00,33.5,23.7,30.09,NE,45,2.0,3.0,67,0.00,,,0.00,0,MyOwnSoftware,2013-03-31 23:18:00,
2013-04-01 00:19:00,33.5,23.4,30.09,NE,45,2.0,3.0,66,0.00,,,0.00,0,MyOwnSoftware,2013-03-31 23:19:00,
2013-04-01 00:20:00,33.5,23.4,30.09,NE,45,2.0,4.0,66,0.00,,,0.00,0,MyOwnSoftware,2013-03-31 23:20:00,
2013-04-01 00:21:00,33.5,23.4,30.09,NE,45,2.0,3.0,66,0.00,,,0.00,0,MyOwnSoftware,2013-03-31 23:21:00,
2013-04-01 00:22:00,33.5,23.4,30.09,NE,45,2.0,3.0,66,0.00,,,0.00,0,MyOwnSoftware,2013-03-31 23:22:00,
2013-04-01 00:23:00,33.5,23.4,30.09,NE,45,2.0,5.0,66,0.00,,,0.00,0,MyOwnSoftware,2013-03-31 23:23:00,
2013-04-01 00:24:00,33.5,23.4,30.09,NE,45,2.0,4.0,66,0.00,,,0.00,0,MyOwnSoftware,2013-03-31 23:24:00,
2013-04-01 00:25:00,33.5,23.4,30.09,NE,45,2.0,4.0,66,0.00,,,0.00,0,MyOwnSoftware,2013-03-31 23:25:00,
2013-04-01 00:26:00,33.5,23.4,30.09,NNE,22,2.0,2.0,66,0.00,,,0.00,0,MyOwnSoftware,2013-03-31 23:26:00,
2013-04-01 00:27:00,33.4,23.3,30.09,NNE,22,1.0,3.0,66,0.00,,,0.00,0,MyOwnSoftware,2013-03-31 23:27:00,
2013-04-01 00:28:00,33.4,23.0,30.09,NNE,23,2.0,-999.0,66,-99.99,,,0.00,0,weatherlink.com 1.10,2013-03-31 23:28:00,
2013-04-01 00:29:00,33.4,23.3,30.09,NNE,22,2.0,3.0,66,0.00,,,0.00,0,MyOwnSoftware,2013-03-31 23:29:00,
2013-04-01 00:30:00,33.4,23.3,30.09,NE,45,2.0,5.0,66,0.00,,,0.00,0,MyOwnSoftware,2013-03-31 23:30:00,
2013-04-01 00:31:00,33.4,23.3,30.09,NNE,22,2.0,5.0,66,0.00,,,0.00,0,MyOwnSoftware,2013-03-31 23:31:00,
2013-04-01 00:32:00,33.4,23.3,30.09,NNE,22,2.0,3.0,66,0.00,,,0.00,0,MyOwnSoftware,2013-03-31 23:32:00,
2013-04-01 00:33:00,33.4,23.3,30.09,NNE,22,2.0,3.0,66,0.00,,,0.00,0,MyOwnSoftware,2013-03-31 23:33:00,
2013-04-01 00:34:00,33.4,23.3,30.09,NNE,22,2.0,3.0,66,0.00,,,0.00,0,MyOwnSoftware,2013-03-31 23:34:00,
2013-04-01 00:35:00,33.4,23.3,30.09,NNE,22,2.0,3.0,66,0.00,,,0.00,0,MyOwnSoftware,2013-03-31 23:35:00,
2013-04-01 00:36:00,33.4,23.6,30.09,NE,45,2.0,3.0,67,0.00,,,0.00,0,MyOwnSoftware,2013-03-31 23:36:00,
2013-04-01 00:37:00,33.2,23.4,30.09,NE,45,2.0,3.0,67,0.00,,,0.00,0,MyOwnSoftware,2013-03-31 23:37:00,
2013-04-01 00:38:00,33.4,23.3,30.09,NNE,22,2.0,3.0,66,0.00,,,0.00,0,MyOwnSoftware,2013-03-31 23:38:00,
2013-04-01 00:39:00,33.2,23.4,30.09,NE,45,2.0,3.0,67,0.00,,,0.00,0,MyOwnSoftware,2013-03-31 23:39:00,
2013-04-01 00:40:00,33.2,23.4,30.09,NE,45,2.0,3.0,67,0.00,,,0.00,0,MyOwnSoftware,2013-03-31 23:40:00,
2013-04-01 00:41:00,33.2,23.4,30.09,NE,45,2.0,3.0,67,0.00,,,0.00,0,MyOwnSoftware,2013-03-31 23:41:00,
2013-04-01 00:42:00,33.2,23.4,30.09,NE,45,1.0,2.0,67,0.00,,,0.00,0,MyOwnSoftware,2013-03-31 23:42:00,
2013-04-01 00:43:00,33.2,23.4,30.09,NE,45,2.0,3.0,67,0.00,,,0.00,0,MyOwnSoftware,2013-03-31 23:43:00,
2013-04-01 00:44:00,33.2,23.4,30.09,NE,45,2.0,3.0,67,0.00,,,0.00,0,MyOwnSoftware,2013-03-31 23:44:00,
2013-04-01 00:45:00,33.1,23.4,30.09,NE,45,1.0,3.0,67,0.00,,,0.00,0,MyOwnSoftware,2013-03-31 23:45:00,
2013-04-01 00:46:00,33.2,23.4,30.09,NE,45,2.0,3.0,67,0.00,,,0.00,0,MyOwnSoftware,2013-03-31 23:46:00,
2013-04-01 00:47:00,33.1,23.4,30.09,NE,45,0.0,2.0,67,0.00,,,0.00,0,MyOwnSoftware,2013-03-31 23:47:00,
2013-04-01 00:48:00,33.1,23.4,30.09,NE,45,2.0,3.0,67,0.00,,,0.00,0,MyOwnSoftware,2013-03-31 23:48:00,
2013-04-01 00:49:00,33.1,23.4,30.09,NE,45,1.0,2.0,67,0.00,,,0.00,0,MyOwnSoftware,2013-03-31 23:49:00,
2013-04-01 00:50:00,33.1,23.4,30.09,NE,45,2.0,2.0,67,0.00,,,0.00,0,MyOwnSoftware,2013-03-31 23:50:00,
2013-04-01 00:51:00,33.1,23.4,30.09,NE,45,1.0,2.0,67,0.00,,,0.00,0,MyOwnSoftware,2013-03-31 23:51:00,
2013-04-01 00:52:00,33.1,23.4,30.09,NE,45,1.0,3.0,67,0.00,,,0.00,0,MyOwnSoftware,2013-03-31 23:52:00,
2013-04-01 00:53:00,33.1,23.4,30.09,NE,45,2.0,3.0,67,0.00,,,0.00,0,MyOwnSoftware,2013-03-31 23:53:00,
2013-04-01 00:54:00,33.1,23.4,30.09,NE,45,2.0,4.0,67,0.00,,,0.00,0,MyOwnSoftware,2013-03-31 23:54:00,
2013-04-01 00:55:00,33.1,23.4,30.09,NE,45,2.0,3.0,67,0.00,,,0.00,0,MyOwnSoftware,2013-03-31 23:55:00,
2013-04-01 00:56:00,33.1,23.4,30.09,NE,45,0.0,2.0,67,0.00,,,0.00,0,MyOwnSoftware,2013-03-31 23:56:00,
2013-04-01 00:57:00,33.1,23.4,30.09,NE,45,0.0,2.0,67,0.00,,,0.00,0,MyOwnSoftware,2013-03-31 23:57:00,
2013-04-01 00:58:00,33.1,23.4,30.09,NE,45,2.0,3.0,67,0.00,,,0.00,0,MyOwnSoftware,2013-03-31 23:58:00,
2013-04-01 00:59:00,33.1,23.4,30.09,NE,45,2.0,3.0,67,0.00,,,0.00,0,MyOwnSoftware,2013-03-31 23:59:00,
2013-04-01 01:00:00,33.1,23.4,30.09,NE,45,1.0,2.0,67,0.00,,,0.00,0,MyOwnSoftware,2013-04-01 00:00:00,
2013-04-01 01:01:00,33.1,23.4,30.09,NE,45,1.0,2.0,67,0.00,,,0.00,0,MyOwnSoftware,2013-04-01 00:01:00,
2013-04-01 01:02:00,32.9,23.2,30.09,NE,45,1.0,3.0,67,0.00,,,0.00,0,MyOwnSoftware,2013-04-01 00:02:00,
2013-04-01 01:03:00,32.9,23.2,30.09,NE,45,2.0,2.0,67,0.00,,,0.00,0,MyOwnSoftware,2013-04-01 00:03:00,
2013-04-01 01:04:00,32.9,23.2,30.09,NE,45,2.0,2.0,67,0.00,,,0.00,0,MyOwnSoftware,2013-04-01 00:04:00,
2013-04-01 01:05:00,32.9,23.2,30.09,NE,45,2.0,3.0,67,0.00,,,0.00,0,MyOwnSoftware,2013-04-01 00:05:00,
2013-04-01 01:06:00,32.9,23.2,30.09,NE,45,1.0,3.0,67,0.00,,,0.00,0,MyOwnSoftware,2013-04-01 00:06:00,
2013-04-01 01:07:00,32.9,23.2,30.09,NE,45,2.0,3.0,67,0.00,,,0.00,0,MyOwnSoftware,2013-04-01 00:07:00,
2013-04-01 01:08:00,32.9,23.2,30.09,NE,45,2.0,3.0,67,0.00,,,0.00,0,MyOwnSoftware,2013-04-01 00:08:00,
2013-04-01 01:09:00,32.9,23.2,30.09,NE,45,1.0,2.0,67,0.00,,,0.00,0,MyOwnSoftware,2013-04-01 00:09:00,
2013-04-01 01:10:00,32.9,23.2,30.09,NE,45,1.0,2.0,67,0.00,,,0.00,0,MyOwnSoftware,2013-04-01 00:10:00,
2013-04-01 01:11:00,32.9,23.2,30.09,NE,45,0.0,2.0,67,0.00,,,0.00,0,MyOwnSoftware,2013-04-01 00:11:00,
2013-04-01 01:12:00,32.9,23.0,30.09,NE,44,0.0,-999.0,67,-99.99,,,0.00,0,weatherlink.com 1.10,2013-04-01 00:12:00,
2013-04-01 01:13:00,32.9,23.2,30.09,NE,45,0.0,1.0,67,0.00,,,0.00,0,MyOwnSoftware,2013-04-01 00:13:00,
2013-04-01 01:14:00,32.9,23.2,30.09,NE,45,1.0,3.0,67,0.00,,,0.00,0,MyOwnSoftware,2013-04-01 00:14:00,
2013-04-01 01:15:00,32.8,23.1,30.09,NE,45,2.0,3.0,67,0.00,,,0.00,0,MyOwnSoftware,2013-04-01 00:15:00,
2013-04-01 01:16:00,32.8,23.4,30.09,North,0,0.0,0.0,68,0.00,,,0.00,0,MyOwnSoftware,2013-04-01 00:16:00,
2013-04-01 01:17:00,32.8,23.4,30.09,NE,45,0.0,1.0,68,0.00,,,0.00,0,MyOwnSoftware,2013-04-01 00:17:00,
2013-04-01 01:18:00,32.8,23.4,30.09,NE,45,0.0,1.0,68,0.00,,,0.00,0,MyOwnSoftware,2013-04-01 00:18:00,
2013-04-01 01:19:00,32.8,23.4,30.09,NE,45,1.0,3.0,68,0.00,,,0.00,0,MyOwnSoftware,2013-04-01 00:19:00,
2013-04-01 01:20:00,32.8,23.4,30.09,NE,45,1.0,3.0,68,0.00,,,0.00,0,MyOwnSoftware,2013-04-01 00:20:00,
2013-04-01 01:21:00,32.8,23.4,30.09,NE,45,1.0,3.0,68,0.00,,,0.00,0,MyOwnSoftware,2013-04-01 00:21:00,
2013-04-01 01:22:00,32.8,23.4,30.09,NE,45,0.0,2.0,68,0.00,,,0.00,0,MyOwnSoftware,2013-04-01 00:22:00,
2013-04-01 01:23:00,32.8,23.4,30.09,NE,45,1.0,2.0,68,0.00,,,0.00,0,MyOwnSoftware,2013-04-01 00:23:00,
2013-04-01 01:24:00,32.8,23.4,30.09,NE,45,1.0,3.0,68,0.00,,,0.00,0,MyOwnSoftware,2013-04-01 00:24:00,
2013-04-01 01:25:00,32.8,23.4,30.09,NE,45,1.0,2.0,68,0.00,,,0.00,0,MyOwnSoftware,2013-04-01 00:25:00,
2013-04-01 01:26:00,32.8,23.4,30.09,NE,45,1.0,2.0,68,0.00,,,0.00,0,MyOwnSoftware,2013-04-01 00:26:00,
2013-04-01 01:27:00,32.8,23.0,30.09,NE,55,2.0,-999.0,68,-99.99,,,0.00,0,weatherlink.com 1.10,2013-04-01 00:27:00,
2013-04-01 01:28:00,32.8,23.4,30.09,NE,45,2.0,2.0,68,0.00,,,0.00,0,MyOwnSoftware,2013-04-01 00:28:00,
2013-04-01 01:29:00,32.8,23.4,30.09,NE,45,0.0,2.0,68,0.00,,,0.00,0,MyOwnSoftware,2013-04-01 00:29:00,
2013-04-01 01:30:00,32.8,23.4,30.09,NE,45,1.0,2.0,68,0.00,,,0.00,0,MyOwnSoftware,2013-04-01 00:30:00,
2013-04-01 01:31:00,32.7,23.3,30.09,NE,45,2.0,2.0,68,0.00,,,0.00,0,MyOwnSoftware,2013-04-01 00:31:00,
2013-04-01 01:32:00,32.7,23.3,30.09,NE,45,2.0,3.0,68,0.00,,,0.00,0,MyOwnSoftware,2013-04-01 00:32:00,
2013-04-01 01:33:00,32.7,23.3,30.09,NE,45,1.0,2.0,68,0.00,,,0.00,0,MyOwnSoftware,2013-04-01 00:33:00,
2013-04-01 01:34:00,32.7,23.3,30.09,NE,45,0.0,1.0,68,0.00,,,0.00,0,MyOwnSoftware,2013-04-01 00:34:00,
2013-04-01 01:35:00,32.7,23.3,30.09,NE,45,2.0,2.0,68,0.00,,,0.00,0,MyOwnSoftware,2013-04-01 00:35:00,
2013-04-01 01:36:00,32.7,23.3,30.09,NE,45,1.0,3.0,68,0.00,,,0.00,0,MyOwnSoftware,2013-04-01 00:36:00,
2013-04-01 01:37:00,32.7,23.3,30.09,NE,45,1.0,2.0,68,0.00,,,0.00,0,MyOwnSoftware,2013-04-01 00:37:00,
2013-04-01 01:38:00,32.7,23.3,30.09,NE,45,1.0,2.0,68,0.00,,,0.00,0,MyOwnSoftware,2013-04-01 00:38:00,
2013-04-01 01:39:00,32.7,23.3,30.09,NE,45,2.0,3.0,68,0.00,,,0.00,0,MyOwnSoftware,2013-04-01 00:39:00,
2013-04-01 01:40:00,32.7,23.3,30.09,NE,45,2.0,3.0,68,0.00,,,0.00,0,MyOwnSoftware,2013-04-01 00:40:00,
2013-04-01 01:41:00,32.7,23.7,30.09,North,0,3.0,6.0,69,0.00,,,0.00,0,MyOwnSoftware,2013-04-01 00:41:00,
2013-04-01 01:42:00,32.7,24.0,30.09,North,4,2.0,-999.0,69,-99.99,,,0.00,0,weatherlink.com 1.10,2013-04-01 00:42:00,
2013-04-01 01:43:00,32.7,23.7,30.09,NE,45,1.0,3.0,69,0.00,,,0.00,0,MyOwnSoftware,2013-04-01 00:43:00,
2013-04-01 01:44:00,32.7,23.7,30.09,NE,45,2.0,3.0,69,0.00,,,0.00,0,MyOwnSoftware,2013-04-01 00:44:00,
2013-04-01 01:45:00,32.7,23.7,30.09,NE,45,2.0,3.0,69,0.00,,,0.00,0,MyOwnSoftware,2013-04-01 00:45:00,
2013-04-01 01:46:00,32.7,23.7,30.09,NE,45,2.0,3.0,69,0.00,,,0.00,0,MyOwnSoftware,2013-04-01 00:46:00,
2013-04-01 01:47:00,32.7,23.7,30.09,NE,45,2.0,3.0,69,0.00,,,0.00,0,MyOwnSoftware,2013-04-01 00:47:00,
2013-04-01 01:48:00,32.7,23.7,30.09,NE,45,2.0,3.0,69,0.00,,,0.00,0,MyOwnSoftware,2013-04-01 00:48:00,
2013-04-01 01:49:00,32.7,23.7,30.09,NE,45,2.0,3.0,69,0.00,,,0.00,0,MyOwnSoftware,2013-04-01 00:49:00,
2013-04-01 01:50:00,32.7,23.7,30.09,NE,45,1.0,3.0,69,0.00,,,0.00,0,MyOwnSoftware,2013-04-01 00:50:00,
2013-04-01 01:51:00,32.7,23.7,30.09,NE,45,1.0,2.0,69,0.00,,,0.00,0,MyOwnSoftware,2013-04-01 00:51:00,
2013-04-01 01:52:00,32.7,23.7,30.09,NE,45,2.0,2.0,69,0.00,,,0.00,0,MyOwnSoftware,2013-04-01 00:52:00,
2013-04-01 01:53:00,32.7,23.7,30.09,NE,45,1.0,2.0,69,0.00,,,0.00,0,MyOwnSoftware,2013-04-01 00:53:00,
2013-04-01 01:54:00,32.7,23.7,30.09,NE,45,1.0,3.0,69,0.00,,,0.00,0,MyOwnSoftware,2013-04-01 00:54:00,
2013-04-01 01:55:00,32.7,23.3,30.09,NE,45,2.0,3.0,68,0.00,,,0.00,0,MyOwnSoftware,2013-04-01 00:55:00,
2013-04-01 01:56:00,32.7,23.3,30.09,NE,45,1.0,3.0,68,0.00,,,0.00,0,MyOwnSoftware,2013-04-01 00:56:00,
2013-04-01 01:57:00,32.7,23.0,30.09,NE,55,2.0,-999.0,68,-99.99,,,0.00,0,weatherlink.com 1.10,2013-04-01 00:57:00,
2013-04-01 01:58:00,32.7,23.7,30.09,NE,45,2.0,2.0,69,0.00,,,0.00,0,MyOwnSoftware,2013-04-01 00:58:00,
2013-04-01 01:59:00,32.5,23.1,30.09,NE,45,1.0,3.0,68,0.00,,,0.00,0,MyOwnSoftware,2013-04-01 00:59:00,
2013-04-01 02:00:00,32.5,23.5,30.09,NE,45,2.0,3.0,69,0.00,,,0.00,0,MyOwnSoftware,2013-04-01 01:00:00,
2013-04-01 02:01:00,32.5,23.1,30.09,NE,45,1.0,2.0,68,0.00,,,0.00,0,MyOwnSoftware,2013-04-01 01:01:00,
2013-04-01 02:02:00,32.5,23.5,30.09,NE,45,0.0,1.0,69,0.00,,,0.00,0,MyOwnSoftware,2013-04-01 01:02:00,
2013-04-01 02:03:00,32.5,23.5,30.09,NE,45,1.0,3.0,69,0.00,,,0.00,0,MyOwnSoftware,2013-04-01 01:03:00,
2013-04-01 02:04:00,32.5,23.5,30.09,NE,45,1.0,2.0,69,0.00,,,0.00,0,MyOwnSoftware,2013-04-01 01:04:00,
2013-04-01 02:05:00,32.5,23.5,30.09,NE,45,1.0,2.0,69,0.00,,,0.00,0,MyOwnSoftware,2013-04-01 01:05:00,
2013-04-01 02:06:00,32.5,23.5,30.09,NE,45,1.0,2.0,69,0.00,,,0.00,0,MyOwnSoftware,2013-04-01 01:06:00,
2013-04-01 02:07:00,32.5,23.5,30.09,NE,45,1.0,2.0,69,0.00,,,0.00,0,MyOwnSoftware,2013-04-01 01:07:00,
2013-04-01 02:08:00,32.5,23.5,30.09,North,0,0.0,0.0,69,0.00,,,0.00,0,MyOwnSoftware,2013-04-01 01:08:00,
2013-04-01 02:09:00,32.5,23.5,30.09,NE,45,0.0,2.0,69,0.00,,,0.00,0,MyOwnSoftware,2013-04-01 01:09:00,
2013-04-01 02:10:00,32.5,23.5,30.09,NE,45,0.0,1.0,69,0.00,,,0.00,0,MyOwnSoftware,2013-04-01 01:10:00,
2013-04-01 02:11:00,32.5,23.5,30.09,NE,45,0.0,1.0,69,0.00,,,0.00,0,MyOwnSoftware,2013-04-01 01:11:00,
2013-04-01 02:12:00,32.5,23.0,30.09,NE,55,0.0,-999.0,69,-99.99,,,0.00,0,weatherlink.com 1.10,2013-04-01 01:12:00,
2013-04-01 02:13:00,32.5,23.5,30.09,NE,45,1.0,2.0,69,0.00,,,0.00,0,MyOwnSoftware,2013-04-01 01:13:00,
2013-04-01 02:14:00,32.4,23.4,30.09,NE,45,1.0,2.0,69,0.00,,,0.00,0,MyOwnSoftware,2013-04-01 01:14:00,
2013-04-01 02:15:00,32.4,23.4,30.09,NE,45,0.0,1.0,69,0.00,,,0.00,0,MyOwnSoftware,2013-04-01 01:15:00,
2013-04-01 02:16:00,32.4,23.4,30.09,NE,45,1.0,2.0,69,0.00,,,0.00,0,MyOwnSoftware,2013-04-01 01:16:00,
2013-04-01 02:17:00,32.4,23.4,30.09,NE,45,0.0,2.0,69,0.00,,,0.00,0,MyOwnSoftware,2013-04-01 01:17:00,
2013-04-01 02:18:00,32.4,23.4,30.09,NE,45,1.0,2.0,69,0.00,,,0.00,0,MyOwnSoftware,2013-04-01 01:18:00,
2013-04-01 02:19:00,32.4,23.4,30.09,NE,45,1.0,2.0,69,0.00,,,0.00,0,MyOwnSoftware,2013-04-01 01:19:00,
2013-04-01 02:20:00,32.4,23.4,30.09,North,0,0.0,0.0,69,0.00,,,0.00,0,MyOwnSoftware,2013-04-01 01:20:00,
2013-04-01 02:21:00,32.2,23.2,30.09,North,0,0.0,0.0,69,0.00,,,0.00,0,MyOwnSoftware,2013-04-01 01:21:00,
2013-04-01 02:22:00,32.2,23.2,30.09,NE,45,0.0,1.0,69,0.00,,,0.00,0,MyOwnSoftware,2013-04-01 01:22:00,
2013-04-01 02:23:00,32.2,23.2,30.09,NE,45,1.0,2.0,69,0.00,,,0.00,0,MyOwnSoftware,2013-04-01 01:23:00,
2013-04-01 02:24:00,32.2,23.2,30.09,NE,45,1.0,2.0,69,0.00,,,0.00,0,MyOwnSoftware,2013-04-01 01:24:00,
2013-04-01 02:25:00,32.2,23.2,30.09,NE,45,0.0,1.0,69,0.00,,,0.00,0,MyOwnSoftware,2013-04-01 01:25:00,
2013-04-01 02:26:00,32.2,23.5,30.09,North,0,0.0,0.0,70,0.00,,,0.00,0,MyOwnSoftware,2013-04-01 01:26:00,
2013-04-01 02:27:00,32.2,23.0,30.09,NE,56,0.0,-999.0,70,-99.99,,,0.00,0,weatherlink.com 1.10,2013-04-01 01:27:00,
2013-04-01 02:28:00,32.1,23.4,30.09,NE,45,0.0,1.0,70,0.00,,,0.00,0,MyOwnSoftware,2013-04-01 01:28:00,
2013-04-01 02:29:00,32.1,23.4,30.09,NE,45,1.0,2.0,70,0.00,,,0.00,0,MyOwnSoftware,2013-04-01 01:29:00,
2013-04-01 02:30:00,32.1,23.4,30.09,North,0,0.0,0.0,70,0.00,,,0.00,0,MyOwnSoftware,2013-04-01 01:30:00,
2013-04-01 02:31:00,32.1,23.4,30.09,North,0,0.0,0.0,70,0.00,,,0.00,0,MyOwnSoftware,2013-04-01 01:31:00,
2013-04-01 02:32:00,32.1,23.4,30.09,NE,45,1.0,2.0,70,0.00,,,0.00,0,MyOwnSoftware,2013-04-01 01:32:00,
2013-04-01 02:33:00,32.1,23.4,30.09,NE,45,1.0,2.0,70,0.00,,,0.00,0,MyOwnSoftware,2013-04-01 01:33:00,
2013-04-01 02:34:00,32.1,23.4,30.09,NE,45,1.0,2.0,70,0.00,,,0.00,0,MyOwnSoftware,2013-04-01 01:34:00,
2013-04-01 02:35:00,31.9,23.2,30.09,North,0,0.0,0.0,70,0.00,,,0.00,0,MyOwnSoftware,2013-04-01 01:35:00,
2013-04-01 02:36:00,31.9,23.2,30.09,NE,45,0.0,1.0,70,0.00,,,0.00,0,MyOwnSoftware,2013-04-01 01:36:00,
2013-04-01 02:37:00,31.9,23.2,30.09,NE,45,1.0,2.0,70,0.00,,,0.00,0,MyOwnSoftware,2013-04-01 01:37:00,
2013-04-01 02:38:00,31.9,23.2,30.09,NE,45,0.0,1.0,70,0.00,,,0.00,0,MyOwnSoftware,2013-04-01 01:38:00,
2013-04-01 02:39:00,31.9,23.2,30.09,NE,45,1.0,2.0,70,0.00,,,0.00,0,MyOwnSoftware,2013-04-01 01:39:00,
2013-04-01 02:40:00,31.9,23.2,30.09,NE,45,1.0,2.0,70,0.00,,,0.00,0,MyOwnSoftware,2013-04-01 01:40:00,
2013-04-01 02:41:00,31.9,23.2,30.09,NE,45,0.0,1.0,70,0.00,,,0.00,0,MyOwnSoftware,2013-04-01 01:41:00,
2013-04-01 02:42:00,31.9,23.0,30.09,NE,55,1.0,-999.0,70,-99.99,,,0.00,0,weatherlink.com 1.10,2013-04-01 01:42:00,
2013-04-01 02:43:00,31.9,23.2,30.09,NE,45,0.0,2.0,70,0.00,,,0.00,0,MyOwnSoftware,2013-04-01 01:43:00,
2013-04-01 02:44:00,31.8,23.2,30.09,North,0,0.0,0.0,70,0.00,,,0.00,0,MyOwnSoftware,2013-04-01 01:44:00,
2013-04-01 02:45:00,31.8,23.2,30.09,North,0,0.0,0.0,70,0.00,,,0.00,0,MyOwnSoftware,2013-04-01 01:45:00,
2013-04-01 02:46:00,31.8,23.2,30.09,NE,45,0.0,1.0,70,0.00,,,0.00,0,MyOwnSoftware,2013-04-01 01:46:00,
2013-04-01 02:47:00,31.8,23.2,30.09,NE,45,0.0,1.0,70,0.00,,,0.00,0,MyOwnSoftware,2013-04-01 01:47:00,
2013-04-01 02:48:00,31.8,23.2,30.09,NE,45,0.0,1.0,70,0.00,,,0.00,0,MyOwnSoftware,2013-04-01 01:48:00,
2013-04-01 02:49:00,31.8,23.2,30.09,North,0,0.0,0.0,70,0.00,,,0.00,0,MyOwnSoftware,2013-04-01 01:49:00,
2013-04-01 02:50:00,31.8,23.2,30.09,North,0,0.0,0.0,70,0.00,,,0.00,0,MyOwnSoftware,2013-04-01 01:50:00,
2013-04-01 02:51:00,31.8,23.2,30.09,North,0,0.0,0.0,70,0.00,,,0.00,0,MyOwnSoftware,2013-04-01 01:51:00,
2013-04-01 02:52:00,31.8,23.2,30.09,North,0,0.0,0.0,70,0.00,,,0.00,0,MyOwnSoftware,2013-04-01 01:52:00,
2013-04-01 02:53:00,31.8,23.2,30.09,North,0,0.0,0.0,70,0.00,,,0.00,0,MyOwnSoftware,2013-04-01 01:53:00,
2013-04-01 02:54:00,31.8,23.2,30.09,North,0,0.0,0.0,70,0.00,,,0.00,0,MyOwnSoftware,2013-04-01 01:54:00,
2013-04-01 02:55:00,31.8,23.2,30.09,North,0,0.0,0.0,70,0.00,,,0.00,0,MyOwnSoftware,2013-04-01 01:55:00,
2013-04-01 02:56:00,31.8,23.2,30.09,North,0,0.0,0.0,70,0.00,,,0.00,0,MyOwnSoftware,2013-04-01 01:56:00,
2013-04-01 02:57:00,31.6,23.0,30.09,NE,55,0.0,-999.0,70,-99.99,,,0.00,0,weatherlink.com 1.10,2013-04-01 01:57:00,
2013-04-01 02:58:00,31.6,23.0,30.09,North,0,0.0,0.0,70,0.00,,,0.00,0,MyOwnSoftware,2013-04-01 01:58:00,
2013-04-01 02:59:00,31.6,23.0,30.09,North,0,0.0,0.0,70,0.00,,,0.00,0,MyOwnSoftware,2013-04-01 01:59:00,
2013-04-01 03:00:00,31.6,23.0,30.09,North,0,0.0,0.0,70,0.00,,,0.00,0,MyOwnSoftware,2013-04-01 02:00:00,
2013-04-01 03:01:00,31.6,23.0,30.09,North,0,0.0,0.0,70,0.00,,,0.00,0,MyOwnSoftware,2013-04-01 02:01:00,
2013-04-01 03:02:00,31.6,23.3,30.09,NE,45,0.0,1.0,71,0.00,,,0.00,0,MyOwnSoftware,2013-04-01 02:02:00,
2013-04-01 03:03:00,31.6,23.3,30.09,NE,45,0.0,2.0,71,0.00,,,0.00,0,MyOwnSoftware,2013-04-01 02:03:00,
2013-04-01 03:04:00,31.6,23.3,30.09,North,0,0.0,0.0,71,0.00,,,0.00,0,MyOwnSoftware,2013-04-01 02:04:00,
2013-04-01 03:05:00,31.6,23.3,30.09,North,0,0.0,0.0,71,0.00,,,0.00,0,MyOwnSoftware,2013-04-01 02:05:00,
2013-04-01 03:06:00,31.5,23.2,30.09,North,0,0.0,0.0,71,0.00,,,0.00,0,MyOwnSoftware,2013-04-01 02:06:00,
2013-04-01 03:07:00,31.5,23.2,30.09,NE,45,0.0,2.0,71,0.00,,,0.00,0,MyOwnSoftware,2013-04-01 02:07:00,
2013-04-01 03:08:00,31.5,23.2,30.09,NE,45,1.0,2.0,71,0.00,,,0.00,0,MyOwnSoftware,2013-04-01 02:08:00,
2013-04-01 03:09:00,31.5,23.2,30.09,NE,45,0.0,1.0,71,0.00,,,0.00,0,MyOwnSoftware,2013-04-01 02:09:00,
2013-04-01 03:10:00,31.5,23.2,30.09,NE,45,0.0,1.0,71,0.00,,,0.00,0,MyOwnSoftware,2013-04-01 02:10:00,
2013-04-01 03:11:00,31.5,23.2,30.09,NE,45,1.0,1.0,71,0.00,,,0.00,0,MyOwnSoftware,2013-04-01 02:11:00,
2013-04-01 03:12:00,31.5,23.0,30.09,NE,55,0.0,-999.0,72,-99.99,,,0.00,0,weatherlink.com 1.10,2013-04-01 02:12:00,
2013-04-01 03:13:00,31.5,23.5,30.09,NE,45,1.0,2.0,72,0.00,,,0.00,0,MyOwnSoftware,2013-04-01 02:13:00,
2013-04-01 03:14:00,31.5,23.5,30.09,NE,45,1.0,2.0,72,0.00,,,0.00,0,MyOwnSoftware,2013-04-01 02:14:00,
2013-04-01 03:15:00,31.5,23.5,30.09,NE,45,1.0,2.0,72,0.00,,,0.00,0,MyOwnSoftware,2013-04-01 02:15:00,
2013-04-01 03:16:00,31.5,23.5,30.09,NE,45,0.0,1.0,72,0.00,,,0.00,0,MyOwnSoftware,2013-04-01 02:16:00,
2013-04-01 03:17:00,31.5,23.5,30.09,NE,45,1.0,1.0,72,0.00,,,0.00,0,MyOwnSoftware,2013-04-01 02:17:00,
2013-04-01 03:18:00,31.5,23.5,30.09,NE,45,0.0,1.0,72,0.00,,,0.00,0,MyOwnSoftware,2013-04-01 02:18:00,
2013-04-01 03:19:00,31.5,23.5,30.09,North,0,0.0,0.0,72,0.00,,,0.00,0,MyOwnSoftware,2013-04-01 02:19:00,
2013-04-01 03:20:00,31.5,23.5,30.09,NE,45,1.0,2.0,72,0.00,,,0.00,0,MyOwnSoftware,2013-04-01 02:20:00,
2013-04-01 03:21:00,31.5,23.5,30.09,NE,45,0.0,1.0,72,0.00,,,0.00,0,MyOwnSoftware,2013-04-01 02:21:00,
2013-04-01 03:22:00,31.3,23.3,30.09,NE,45,1.0,2.0,72,0.00,,,0.00,0,MyOwnSoftware,2013-04-01 02:22:00,
2013-04-01 03:23:00,31.3,23.3,30.09,NE,45,0.0,2.0,72,0.00,,,0.00,0,MyOwnSoftware,2013-04-01 02:23:00,
2013-04-01 03:24:00,31.3,23.3,30.09,NE,45,0.0,2.0,72,0.00,,,0.00,0,MyOwnSoftware,2013-04-01 02:24:00,
2013-04-01 03:25:00,31.3,23.3,30.09,NE,45,1.0,2.0,72,0.00,,,0.00,0,MyOwnSoftware,2013-04-01 02:25:00,
2013-04-01 03:26:00,31.3,23.3,30.09,NE,45,1.0,2.0,72,0.00,,,0.00,0,MyOwnSoftware,2013-04-01 02:26:00,
2013-04-01 03:27:00,31.3,23.0,30.09,NE,55,0.0,-999.0,72,-99.99,,,0.00,0,weatherlink.com 1.10,2013-04-01 02:27:00,
2013-04-01 03:28:00,31.3,23.3,30.09,NE,45,1.0,2.0,72,0.00,,,0.00,0,MyOwnSoftware,2013-04-01 02:28:00,
2013-04-01 03:29:00,31.3,23.3,30.09,NE,45,0.0,2.0,72,0.00,,,0.00,0,MyOwnSoftware,2013-04-01 02:29:00,
2013-04-01 03:30:00,31.3,23.3,30.09,NE,45,1.0,2.0,72,0.00,,,0.00,0,MyOwnSoftware,2013-04-01 02:30:00,
2013-04-01 03:31:00,31.3,23.3,30.09,NE,45,0.0,1.0,72,0.00,,,0.00,0,MyOwnSoftware,2013-04-01 02:31:00,
2013-04-01 03:32:00,31.3,23.3,30.09,North,0,0.0,0.0,72,0.00,,,0.00,0,MyOwnSoftware,2013-04-01 02:32:00,
2013-04-01 03:33:00,31.3,23.3,30.09,NE,45,0.0,1.0,72,0.00,,,0.00,0,MyOwnSoftware,2013-04-01 02:33:00,
2013-04-01 03:34:00,31.3,23.3,30.09,North,0,0.0,0.0,72,0.00,,,0.00,0,MyOwnSoftware,2013-04-01 02:34:00,
2013-04-01 03:35:00,31.3,23.3,30.09,North,0,0.0,0.0,72,0.00,,,0.00,0,MyOwnSoftware,2013-04-01 02:35:00,
2013-04-01 03:36:00,31.3,23.3,30.09,North,0,0.0,0.0,72,0.00,,,0.00,0,MyOwnSoftware,2013-04-01 02:36:00,
2013-04-01 03:37:00,31.3,23.3,30.09,North,0,0.0,0.0,72,0.00,,,0.00,0,MyOwnSoftware,2013-04-01 02:37:00,
2013-04-01 03:38:00,31.3,23.3,30.09,North,0,0.0,0.0,72,0.00,,,0.00,0,MyOwnSoftware,2013-04-01 02:38:00,
2013-04-01 03:39:00,31.2,23.2,30.09,North,0,0.0,0.0,72,0.00,,,0.00,0,MyOwnSoftware,2013-04-01 02:39:00,
2013-04-01 03:40:00,31.2,23.2,30.09,NE,45,0.0,1.0,72,0.00,,,0.00,0,MyOwnSoftware,2013-04-01 02:40:00,
2013-04-01 03:41:00,31.2,23.2,30.09,North,0,0.0,0.0,72,0.00,,,0.00,0,MyOwnSoftware,2013-04-01 02:41:00,
2013-04-01 03:42:00,31.2,23.0,30.09,NE,55,0.0,-999.0,72,-99.99,,,0.00,0,weatherlink.com 1.10,2013-04-01 02:42:00,
2013-04-01 03:43:00,31.2,23.2,30.09,NE,45,0.0,1.0,72,0.00,,,0.00,0,MyOwnSoftware,2013-04-01 02:43:00,
2013-04-01 03:44:00,31.2,23.6,30.09,NE,45,0.0,1.0,73,0.00,,,0.00,0,MyOwnSoftware,2013-04-01 02:44:00,
2013-04-01 03:45:00,31.2,23.2,30.09,NE,45,0.0,1.0,72,0.00,,,0.00,0,MyOwnSoftware,2013-04-01 02:45:00,
2013-04-01 03:46:00,31.2,23.2,30.09,NE,45,1.0,2.0,72,0.00,,,0.00,0,MyOwnSoftware,2013-04-01 02:46:00,
2013-04-01 03:47:00,31.2,23.6,30.09,NE,45,0.0,2.0,73,0.00,,,0.00,0,MyOwnSoftware,2013-04-01 02:47:00,
2013-04-01 03:48:00,31.2,23.6,30.09,NE,45,0.0,1.0,73,0.00,,,0.00,0,MyOwnSoftware,2013-04-01 02:48:00,
2013-04-01 03:49:00,31.2,23.6,30.09,North,0,0.0,0.0,73,0.00,,,0.00,0,MyOwnSoftware,2013-04-01 02:49:00,
2013-04-01 03:50:00,31.2,23.6,30.09,NE,45,0.0,1.0,73,0.00,,,0.00,0,MyOwnSoftware,2013-04-01 02:50:00,
2013-04-01 03:51:00,31.2,23.6,30.09,NE,45,0.0,1.0,73,0.00,,,0.00,0,MyOwnSoftware,2013-04-01 02:51:00,
2013-04-01 03:52:00,31.2,23.6,30.09,NE,45,0.0,1.0,73,0.00,,,0.00,0,MyOwnSoftware,2013-04-01 02:52:00,
2013-04-01 03:53:00,31.2,23.6,30.09,NE,45,1.0,2.0,73,0.00,,,0.00,0,MyOwnSoftware,2013-04-01 02:53:00,
2013-04-01 03:54:00,31.2,23.6,30.09,NE,45,0.0,1.0,73,0.00,,,0.00,0,MyOwnSoftware,2013-04-01 02:54:00,
2013-04-01 03:55:00,31.2,23.6,30.09,NE,45,1.0,2.0,73,0.00,,,0.00,0,MyOwnSoftware,2013-04-01 02:55:00,
2013-04-01 03:56:00,31.2,23.6,30.09,NE,45,0.0,1.0,73,0.00,,,0.00,0,MyOwnSoftware,2013-04-01 02:56:00,
2013-04-01 03:57:00,31.0,23.0,30.09,NE,55,0.0,-999.0,73,-99.99,,,0.00,0,weatherlink.com 1.10,2013-04-01 02:57:00,
2013-04-01 03:58:00,31.0,23.4,30.09,North,0,0.0,0.0,73,0.00,,,0.00,0,MyOwnSoftware,2013-04-01 02:58:00,
2013-04-01 03:59:00,31.0,23.4,30.09,North,0,0.0,0.0,73,0.00,,,0.00,0,MyOwnSoftware,2013-04-01 02:59:00,
2013-04-01 04:00:00,31.0,23.4,30.09,North,0,0.0,0.0,73,0.00,,,0.00,0,MyOwnSoftware,2013-04-01 03:00:00,
2013-04-01 04:01:00,31.0,23.4,30.09,NE,45,0.0,1.0,73,0.00,,,0.00,0,MyOwnSoftware,2013-04-01 03:01:00,
2013-04-01 04:02:00,31.0,23.4,30.09,NE,45,0.0,1.0,73,0.00,,,0.00,0,MyOwnSoftware,2013-04-01 03:02:00,
2013-04-01 04:03:00,31.0,23.4,30.09,NE,45,0.0,1.0,73,0.00,,,0.00,0,MyOwnSoftware,2013-04-01 03:03:00,
2013-04-01 04:04:00,31.0,23.4,30.09,NE,45,0.0,1.0,73,0.00,,,0.00,0,MyOwnSoftware,2013-04-01 03:04:00,
2013-04-01 04:05:00,31.0,23.4,30.09,North,0,0.0,0.0,73,0.00,,,0.00,0,MyOwnSoftware,2013-04-01 03:05:00,
2013-04-01 04:06:00,31.0,23.4,30.09,NE,45,0.0,1.0,73,0.00,,,0.00,0,MyOwnSoftware,2013-04-01 03:06:00,
2013-04-01 04:07:00,31.0,23.4,30.09,North,0,0.0,0.0,73,0.00,,,0.00,0,MyOwnSoftware,2013-04-01 03:07:00,
2013-04-01 04:08:00,31.0,23.4,30.09,North,0,0.0,0.0,73,0.00,,,0.00,0,MyOwnSoftware,2013-04-01 03:08:00,
2013-04-01 04:09:00,31.0,23.4,30.09,North,0,0.0,0.0,73,0.00,,,0.00,0,MyOwnSoftware,2013-04-01 03:09:00,
2013-04-01 04:10:00,30.9,23.6,30.09,NE,45,0.0,1.0,74,0.00,,,0.00,0,MyOwnSoftware,2013-04-01 03:10:00,
2013-04-01 04:11:00,30.9,23.6,30.09,North,0,0.0,0.0,74,0.00,,,0.00,0,MyOwnSoftware,2013-04-01 03:11:00,
2013-04-01 04:12:00,30.9,24.0,30.09,NE,55,0.0,-999.0,74,-99.99,,,0.00,0,weatherlink.com 1.10,2013-04-01 03:12:00,
2013-04-01 04:13:00,30.9,23.6,30.09,North,0,0.0,0.0,74,0.00,,,0.00,0,MyOwnSoftware,2013-04-01 03:13:00,
2013-04-01 04:14:00,30.9,23.6,30.09,North,0,0.0,0.0,74,0.00,,,0.00,0,MyOwnSoftware,2013-04-01 03:14:00,
2013-04-01 04:15:00,30.9,23.6,30.09,North,0,0.0,0.0,74,0.00,,,0.00,0,MyOwnSoftware,2013-04-01 03:15:00,
2013-04-01 04:16:00,30.9,23.6,30.09,North,0,0.0,0.0,74,0.00,,,0.00,0,MyOwnSoftware,2013-04-01 03:16:00,
2013-04-01 04:17:00,30.9,23.6,30.09,North,0,0.0,0.0,74,0.00,,,0.00,0,MyOwnSoftware,2013-04-01 03:17:00,
2013-04-01 04:18:00,30.9,23.6,30.09,NE,45,1.0,1.0,74,0.00,,,0.00,0,MyOwnSoftware,2013-04-01 03:18:00,
2013-04-01 04:19:00,30.7,23.4,30.09,NE,45,0.0,1.0,74,0.00,,,0.00,0,MyOwnSoftware,2013-04-01 03:19:00,
2013-04-01 04:20:00,30.7,23.7,30.09,NE,45,1.0,2.0,75,0.00,,,0.00,0,MyOwnSoftware,2013-04-01 03:20:00,
2013-04-01 04:21:00,30.7,23.7,30.09,NE,45,1.0,2.0,75,0.00,,,0.00,0,MyOwnSoftware,2013-04-01 03:21:00,
2013-04-01 04:22:00,30.7,23.7,30.09,NE,45,0.0,1.0,75,0.00,,,0.00,0,MyOwnSoftware,2013-04-01 03:22:00,
2013-04-01 04:23:00,30.7,23.7,30.09,North,0,0.0,0.0,75,0.00,,,0.00,0,MyOwnSoftware,2013-04-01 03:23:00,
2013-04-01 04:24:00,30.7,23.7,30.09,NE,45,1.0,2.0,75,0.00,,,0.00,0,MyOwnSoftware,2013-04-01 03:24:00,
2013-04-01 04:25:00,30.7,23.7,30.09,North,0,0.0,0.0,75,0.00,,,0.00,0,MyOwnSoftware,2013-04-01 03:25:00,
2013-04-01 04:26:00,30.7,23.7,30.09,North,0,0.0,0.0,75,0.00,,,0.00,0,MyOwnSoftware,2013-04-01 03:26:00,
2013-04-01 04:27:00,30.7,24.0,30.09,NE,55,0.0,-999.0,75,-99.99,,,0.00,0,weatherlink.com 1.10,2013-04-01 03:27:00,
2013-04-01 04:28:00,30.7,23.7,30.09,North,0,0.0,0.0,75,0.00,,,0.00,0,MyOwnSoftware,2013-04-01 03:28:00,
2013-04-01 04:29:00,30.7,23.7,30.09,North,0,0.0,0.0,75,0.00,,,0.00,0,MyOwnSoftware,2013-04-01 03:29:00,
2013-04-01 04:30:00,30.7,23.7,30.08,NE,45,0.0,1.0,75,0.00,,,0.00,0,MyOwnSoftware,2013-04-01 03:30:00,
2013-04-01 04:31:00,30.7,23.7,30.08,North,0,0.0,0.0,75,0.00,,,0.00,0,MyOwnSoftware,2013-04-01 03:31:00,
2013-04-01 04:32:00,30.7,23.7,30.08,NE,45,0.0,1.0,75,0.00,,,0.00,0,MyOwnSoftware,2013-04-01 03:32:00,
2013-04-01 04:33:00,30.7,24.0,30.08,NE,45,1.0,2.0,76,0.00,,,0.00,0,MyOwnSoftware,2013-04-01 03:33:00,
2013-04-01 04:34:00,30.7,24.0,30.08,NE,45,1.0,2.0,76,0.00,,,0.00,0,MyOwnSoftware,2013-04-01 03:34:00,
2013-04-01 04:35:00,30.7,24.0,30.08,NE,45,1.0,2.0,76,0.00,,,0.00,0,MyOwnSoftware,2013-04-01 03:35:00,
2013-04-01 04:36:00,30.7,24.0,30.08,NE,45,0.0,2.0,76,0.00,,,0.00,0,MyOwnSoftware,2013-04-01 03:36:00,
2013-04-01 04:37:00,30.7,24.0,30.08,NE,45,0.0,1.0,76,0.00,,,0.00,0,MyOwnSoftware,2013-04-01 03:37:00,
2013-04-01 04:38:00,30.7,24.0,30.08,NE,45,0.0,1.0,76,0.00,,,0.00,0,MyOwnSoftware,2013-04-01 03:38:00,
2013-04-01 04:39:00,30.7,24.0,30.08,NE,45,0.0,1.0,76,0.00,,,0.00,0,MyOwnSoftware,2013-04-01 03:39:00,
2013-04-01 04:40:00,30.7,24.0,30.08,NE,45,0.0,1.0,76,0.00,,,0.00,0,MyOwnSoftware,2013-04-01 03:40:00,
2013-04-01 04:41:00,30.7,24.0,30.08,NE,45,1.0,1.0,76,0.00,,,0.00,0,MyOwnSoftware,2013-04-01 03:41:00,
2013-04-01 04:42:00,30.9,24.0,30.08,NE,55,0.0,-999.0,76,-99.99,,,0.00,0,weatherlink.com 1.10,2013-04-01 03:42:00,
2013-04-01 04:43:00,30.9,24.2,30.08,NE,45,0.0,1.0,76,0.00,,,0.00,0,MyOwnSoftware,2013-04-01 03:43:00,
2013-04-01 04:44:00,30.9,24.2,30.08,NE,45,0.0,1.0,76,0.00,,,0.00,0,MyOwnSoftware,2013-04-01 03:44:00,
2013-04-01 04:45:00,30.9,24.6,30.09,NE,45,0.0,1.0,77,0.00,,,0.00,0,MyOwnSoftware,2013-04-01 03:45:00,
2013-04-01 04:46:00,30.9,24.6,30.09,NE,45,1.0,2.0,77,0.00,,,0.00,0,MyOwnSoftware,2013-04-01 03:46:00,
2013-04-01 04:47:00,30.9,24.6,30.09,NE,45,1.0,2.0,77,0.00,,,0.00,0,MyOwnSoftware,2013-04-01 03:47:00,
2013-04-01 04:48:00,30.9,24.2,30.09,NE,45,1.0,2.0,76,0.00,,,0.00,0,MyOwnSoftware,2013-04-01 03:48:00,
2013-04-01 04:49:00,31.0,24.3,30.09,North,0,0.0,0.0,76,0.00,,,0.00,0,MyOwnSoftware,2013-04-01 03:49:00,
2013-04-01 04:50:00,31.0,24.3,30.09,NE,45,1.0,3.0,76,0.00,,,0.00,0,MyOwnSoftware,2013-04-01 03:50:00,
2013-04-01 04:51:00,31.0,24.3,30.09,NE,45,1.0,2.0,76,0.00,,,0.00,0,MyOwnSoftware,2013-04-01 03:51:00,
2013-04-01 04:52:00,31.0,24.3,30.09,NE,45,1.0,2.0,76,0.00,,,0.00,0,MyOwnSoftware,2013-04-01 03:52:00,
2013-04-01 04:53:00,31.0,24.3,30.09,NE,45,2.0,3.0,76,0.00,,,0.00,0,MyOwnSoftware,2013-04-01 03:53:00,
2013-04-01 04:54:00,31.0,24.3,30.09,NE,45,1.0,2.0,76,0.00,,,0.00,0,MyOwnSoftware,2013-04-01 03:54:00,
2013-04-01 04:55:00,31.0,24.3,30.09,NE,45,0.0,1.0,76,0.00,,,0.00,0,MyOwnSoftware,2013-04-01 03:55:00,
2013-04-01 04:56:00,31.2,24.5,30.09,NE,45,0.0,1.0,76,0.00,,,0.00,0,MyOwnSoftware,2013-04-01 03:56:00,
2013-04-01 04:57:00,31.2,24.0,30.09,NE,56,0.0,-999.0,76,-99.99,,,0.00,0,weatherlink.com 1.10,2013-04-01 03:57:00,
2013-04-01 04:58:00,31.2,24.5,30.09,NE,45,0.0,1.0,76,0.00,,,0.00,0,MyOwnSoftware,2013-04-01 03:58:00,
2013-04-01 04:59:00,31.2,24.5,30.09,NE,45,0.0,1.0,76,0.00,,,0.00,0,MyOwnSoftware,2013-04-01 03:59:00,
2013-04-01 05:00:00,31.2,24.5,30.09,NE,45,0.0,1.0,76,0.00,,,0.00,0,MyOwnSoftware,2013-04-01 04:00:00,
2013-04-01 05:01:00,31.2,24.5,30.09,North,0,0.0,0.0,76,0.00,,,0.00,0,MyOwnSoftware,2013-04-01 04:01:00,
2013-04-01 05:02:00,31.2,24.5,30.09,NE,45,0.0,2.0,76,0.00,,,0.00,0,MyOwnSoftware,2013-04-01 04:02:00,
2013-04-01 05:03:00,31.2,24.5,30.09,NE,45,1.0,3.0,76,0.00,,,0.00,0,MyOwnSoftware,2013-04-01 04:03:00,
2013-04-01 05:04:00,31.2,24.5,30.09,North,0,0.0,0.0,76,0.00,,,0.00,0,MyOwnSoftware,2013-04-01 04:04:00,
2013-04-01 05:05:00,31.3,24.6,30.09,NE,45,0.0,1.0,76,0.00,,,0.00,0,MyOwnSoftware,2013-04-01 04:05:00,
2013-04-01 05:06:00,31.3,24.6,30.09,NE,45,0.0,2.0,76,0.00,,,0.00,0,MyOwnSoftware,2013-04-01 04:06:00,
2013-04-01 05:07:00,31.3,24.6,30.09,NE,45,0.0,1.0,76,0.00,,,0.00,0,MyOwnSoftware,2013-04-01 04:07:00,
2013-04-01 05:08:00,31.3,24.6,30.09,North,0,0.0,0.0,76,0.00,,,0.00,0,MyOwnSoftware,2013-04-01 04:08:00,
2013-04-01 05:09:00,31.3,24.6,30.09,NE,45,0.0,2.0,76,0.00,,,0.00,0,MyOwnSoftware,2013-04-01 04:09:00,
2013-04-01 05:10:00,31.3,24.6,30.09,NE,45,0.0,1.0,76,0.00,,,0.00,0,MyOwnSoftware,2013-04-01 04:10:00,
2013-04-01 05:11:00,31.3,24.6,30.09,NE,45,0.0,2.0,76,0.00,,,0.00,0,MyOwnSoftware,2013-04-01 04:11:00,
2013-04-01 05:12:00,31.3,25.0,30.09,NE,56,2.0,-999.0,76,-99.99,,,0.00,0,weatherlink.com 1.10,2013-04-01 04:12:00,
2013-04-01 05:13:00,31.5,24.8,30.09,NE,45,2.0,3.0,76,0.00,,,0.00,0,MyOwnSoftware,2013-04-01 04:13:00,
2013-04-01 05:14:00,31.5,24.8,30.09,NE,45,1.0,2.0,76,0.00,,,0.00,0,MyOwnSoftware,2013-04-01 04:14:00,
2013-04-01 05:15:00,31.5,24.8,30.09,NE,45,0.0,1.0,76,0.00,,,0.00,0,MyOwnSoftware,2013-04-01 04:15:00,
2013-04-01 05:16:00,31.5,24.8,30.09,North,0,0.0,0.0,76,0.00,,,0.00,0,MyOwnSoftware,2013-04-01 04:16:00,
2013-04-01 05:17:00,31.5,24.8,30.09,NE,45,0.0,1.0,76,0.00,,,0.00,0,MyOwnSoftware,2013-04-01 04:17:00,
2013-04-01 05:18:00,31.5,24.8,30.09,NE,45,2.0,3.0,76,0.00,,,0.00,0,MyOwnSoftware,2013-04-01 04:18:00,
2013-04-01 05:19:00,31.5,24.8,30.09,NE,45,1.0,2.0,76,0.00,,,0.00,0,MyOwnSoftware,2013-04-01 04:19:00,
2013-04-01 05:20:00,31.6,24.6,30.09,NE,45,1.0,2.0,75,0.00,,,0.00,0,MyOwnSoftware,2013-04-01 04:20:00,
2013-04-01 05:21:00,31.6,24.6,30.09,North,0,0.0,0.0,75,0.00,,,0.00,0,MyOwnSoftware,2013-04-01 04:21:00,
2013-04-01 05:22:00,31.6,24.6,30.09,NE,45,1.0,3.0,75,0.00,,,0.00,0,MyOwnSoftware,2013-04-01 04:22:00,
2013-04-01 05:23:00,31.6,24.6,30.09,NE,45,1.0,2.0,75,0.00,,,0.00,0,MyOwnSoftware,2013-04-01 04:23:00,
2013-04-01 05:24:00,31.6,24.6,30.09,NE,45,1.0,2.0,75,0.00,,,0.00,0,MyOwnSoftware,2013-04-01 04:24:00,
2013-04-01 05:25:00,31.6,24.6,30.09,NE,45,0.0,1.0,75,0.00,,,0.00,0,MyOwnSoftware,2013-04-01 04:25:00,
2013-04-01 05:26:00,31.8,24.8,30.09,NE,45,1.0,2.0,75,0.00,,,0.00,0,MyOwnSoftware,2013-04-01 04:26:00,
2013-04-01 05:27:00,31.8,25.0,30.09,NE,56,1.0,-999.0,75,-99.99,,,0.00,0,weatherlink.com 1.10,2013-04-01 04:27:00,
2013-04-01 05:28:00,31.8,24.8,30.09,NE,45,2.0,3.0,75,0.00,,,0.00,0,MyOwnSoftware,2013-04-01 04:28:00,
2013-04-01 05:29:00,31.8,24.8,30.09,NE,45,2.0,4.0,75,0.00,,,0.00,0,MyOwnSoftware,2013-04-01 04:29:00,
2013-04-01 05:30:00,31.8,24.8,30.09,NE,45,2.0,2.0,75,0.00,,,0.00,0,MyOwnSoftware,2013-04-01 04:30:00,
2013-04-01 05:31:00,31.8,24.8,30.09,NE,45,2.0,3.0,75,0.00,,,0.00,0,MyOwnSoftware,2013-04-01 04:31:00,
2013-04-01 05:32:00,31.8,24.8,30.09,NE,45,1.0,2.0,75,0.00,,,0.00,0,MyOwnSoftware,2013-04-01 04:32:00,
2013-04-01 05:33:00,31.9,24.6,30.09,NE,45,0.0,1.0,74,0.00,,,0.00,0,MyOwnSoftware,2013-04-01 04:33:00,
2013-04-01 05:34:00,31.9,24.6,30.09,NE,45,1.0,2.0,74,0.00,,,0.00,0,MyOwnSoftware,2013-04-01 04:34:00,
2013-04-01 05:35:00,31.9,24.6,30.09,NE,45,1.0,3.0,74,0.00,,,0.00,0,MyOwnSoftware,2013-04-01 04:35:00,
2013-04-01 05:36:00,31.9,24.6,30.09,NE,45,2.0,3.0,74,0.00,,,0.00,0,MyOwnSoftware,2013-04-01 04:36:00,
2013-04-01 05:37:00,31.9,24.6,30.09,NE,45,2.0,2.0,74,0.00,,,0.00,0,MyOwnSoftware,2013-04-01 04:37:00,
2013-04-01 05:38:00,31.9,24.6,30.09,NE,45,1.0,2.0,74,0.00,,,0.00,0,MyOwnSoftware,2013-04-01 04:38:00,
2013-04-01 05:39:00,31.9,24.6,30.09,NE,45,2.0,2.0,74,0.00,,,0.00,0,MyOwnSoftware,2013-04-01 04:39:00,
2013-04-01 05:40:00,31.9,24.2,30.09,NE,45,1.0,2.0,73,0.00,,,0.00,0,MyOwnSoftware,2013-04-01 04:40:00,
2013-04-01 05:41:00,32.1,24.4,30.09,NE,45,2.0,3.0,73,0.00,,,0.00,0,MyOwnSoftware,2013-04-01 04:41:00,
2013-04-01 05:42:00,32.1,24.0,30.09,NE,54,0.0,-999.0,73,-99.99,,,0.00,0,weatherlink.com 1.10,2013-04-01 04:42:00,
2013-04-01 05:43:00,32.1,24.4,30.09,North,0,0.0,0.0,73,0.00,,,0.00,0,MyOwnSoftware,2013-04-01 04:43:00,
2013-04-01 05:44:00,32.1,24.4,30.09,NE,45,1.0,3.0,73,0.00,,,0.00,0,MyOwnSoftware,2013-04-01 04:44:00,
2013-04-01 05:45:00,32.1,24.4,30.09,NE,45,1.0,2.0,73,0.00,,,0.00,0,MyOwnSoftware,2013-04-01 04:45:00,
2013-04-01 05:46:00,32.1,24.4,30.09,NE,45,0.0,2.0,73,0.00,,,0.00,0,MyOwnSoftware,2013-04-01 04:46:00,
2013-04-01 05:47:00,32.1,24.4,30.09,NE,45,1.0,2.0,73,0.00,,,0.00,0,MyOwnSoftware,2013-04-01 04:47:00,
2013-04-01 05:48:00,32.1,24.4,30.09,NE,45,1.0,2.0,73,0.00,,,0.00,0,MyOwnSoftware,2013-04-01 04:48:00,
2013-04-01 05:49:00,32.1,24.4,30.09,NE,45,1.0,2.0,73,0.00,,,0.00,0,MyOwnSoftware,2013-04-01 04:49:00,
2013-04-01 05:50:00,32.2,24.5,30.09,NE,45,0.0,1.0,73,0.00,,,0.00,0,MyOwnSoftware,2013-04-01 04:50:00,
2013-04-01 05:51:00,32.2,24.5,30.09,NE,45,1.0,2.0,73,0.00,,,0.00,0,MyOwnSoftware,2013-04-01 04:51:00,
2013-04-01 05:52:00,32.2,24.5,30.09,NE,45,1.0,2.0,73,0.00,,,0.00,0,MyOwnSoftware,2013-04-01 04:52:00,
2013-04-01 05:53:00,32.2,24.5,30.09,NE,45,1.0,2.0,73,0.00,,,0.00,0,MyOwnSoftware,2013-04-01 04:53:00,
2013-04-01 05:54:00,32.2,24.5,30.09,North,0,0.0,0.0,73,0.00,,,0.00,0,MyOwnSoftware,2013-04-01 04:54:00,
2013-04-01 05:55:00,32.2,24.5,30.09,NE,45,1.0,2.0,73,0.00,,,0.00,0,MyOwnSoftware,2013-04-01 04:55:00,
2013-04-01 05:56:00,32.2,24.5,30.09,NE,45,0.0,1.0,73,0.00,,,0.00,0,MyOwnSoftware,2013-04-01 04:56:00,
2013-04-01 05:57:00,32.2,24.0,30.09,NE,54,1.0,-999.0,72,-99.99,,,0.00,0,weatherlink.com 1.10,2013-04-01 04:57:00,
2013-04-01 05:58:00,32.4,24.4,30.09,NE,45,1.0,2.0,72,0.00,,,0.00,0,MyOwnSoftware,2013-04-01 04:58:00,
2013-04-01 05:59:00,32.4,24.4,30.09,NE,45,1.0,2.0,72,0.00,,,0.00,0,MyOwnSoftware,2013-04-01 04:59:00,
2013-04-01 06:00:00,32.4,24.4,30.09,NE,45,0.0,1.0,72,0.00,,,0.00,0,MyOwnSoftware,2013-04-01 05:00:00,
2013-04-01 06:01:00,32.4,24.4,30.09,NE,45,1.0,2.0,72,0.00,,,0.00,0,MyOwnSoftware,2013-04-01 05:01:00,
2013-04-01 06:02:00,32.4,24.4,30.09,NE,45,1.0,2.0,72,0.00,,,0.00,0,MyOwnSoftware,2013-04-01 05:02:00,
2013-04-01 06:03:00,32.4,24.4,30.09,NE,45,0.0,2.0,72,0.00,,,0.00,0,MyOwnSoftware,2013-04-01 05:03:00,
2013-04-01 06:04:00,32.4,24.4,30.09,NE,45,0.0,1.0,72,0.00,,,0.00,0,MyOwnSoftware,2013-04-01 05:04:00,
2013-04-01 06:05:00,32.4,24.4,30.09,NE,45,1.0,2.0,72,0.00,,,0.00,0,MyOwnSoftware,2013-04-01 05:05:00,
2013-04-01 06:06:00,32.4,24.4,30.09,NE,45,1.0,2.0,72,0.00,,,0.00,0,MyOwnSoftware,2013-04-01 05:06:00,
2013-04-01 06:07:00,32.5,24.5,30.09,NE,45,1.0,2.0,72,0.00,,,0.00,0,MyOwnSoftware,2013-04-01 05:07:00,
2013-04-01 06:08:00,32.5,24.5,30.09,NE,45,0.0,1.0,72,0.00,,,0.00,0,MyOwnSoftware,2013-04-01 05:08:00,
2013-04-01 06:09:00,32.5,24.5,30.09,NE,45,0.0,1.0,72,0.00,,,0.00,0,MyOwnSoftware,2013-04-01 05:09:00,
2013-04-01 06:10:00,32.5,24.5,30.09,NE,45,1.0,2.0,72,0.00,,,0.00,0,MyOwnSoftware,2013-04-01 05:10:00,
2013-04-01 06:11:00,32.5,24.5,30.09,NE,45,1.0,2.0,72,0.00,,,0.00,0,MyOwnSoftware,2013-04-01 05:11:00,
2013-04-01 06:12:00,32.5,24.0,30.09,NE,54,0.0,-999.0,71,-99.99,,,0.00,0,weatherlink.com 1.10,2013-04-01 05:12:00,
2013-04-01 06:13:00,32.5,24.2,30.09,North,0,0.0,0.0,71,0.00,,,0.00,0,MyOwnSoftware,2013-04-01 05:13:00,
2013-04-01 06:14:00,32.5,24.5,30.09,NE,45,0.0,1.0,72,0.00,,,0.00,0,MyOwnSoftware,2013-04-01 05:14:00,
2013-04-01 06:15:00,32.5,24.5,30.09,NE,45,1.0,1.0,72,0.00,,,0.00,0,MyOwnSoftware,2013-04-01 05:15:00,
2013-04-01 06:16:00,32.7,24.4,30.09,NE,45,1.0,2.0,71,0.00,,,0.00,0,MyOwnSoftware,2013-04-01 05:16:00,
2013-04-01 06:17:00,32.7,24.4,30.09,NE,45,1.0,3.0,71,0.00,,,0.00,0,MyOwnSoftware,2013-04-01 05:17:00,
2013-04-01 06:18:00,32.7,24.4,30.09,NE,45,2.0,3.0,71,0.00,,,0.00,0,MyOwnSoftware,2013-04-01 05:18:00,
2013-04-01 06:19:00,32.7,24.4,30.09,NE,45,1.0,2.0,71,0.00,,,0.00,0,MyOwnSoftware,2013-04-01 05:19:00,
2013-04-01 06:20:00,32.7,24.4,30.09,NE,45,0.0,1.0,71,0.00,,,0.00,0,MyOwnSoftware,2013-04-01 05:20:00,
2013-04-01 06:21:00,32.7,24.4,30.09,NE,45,2.0,3.0,71,0.00,,,0.00,0,MyOwnSoftware,2013-04-01 05:21:00,
2013-04-01 06:22:00,32.7,24.4,30.09,NE,45,2.0,2.0,71,0.00,,,0.00,0,MyOwnSoftware,2013-04-01 05:22:00,
2013-04-01 06:23:00,32.7,24.4,30.09,NE,45,2.0,3.0,71,0.00,,,0.00,0,MyOwnSoftware,2013-04-01 05:23:00,
2013-04-01 06:24:00,32.7,24.0,30.09,NE,45,2.0,3.0,70,0.00,,,0.00,0,MyOwnSoftware,2013-04-01 05:24:00,
2013-04-01 06:25:00,32.7,24.0,30.09,NE,45,1.0,2.0,70,0.00,,,0.00,0,MyOwnSoftware,2013-04-01 05:25:00,
2013-04-01 06:26:00,32.7,24.0,30.09,NE,45,1.0,2.0,70,0.00,,,0.00,0,MyOwnSoftware,2013-04-01 05:26:00,
2013-04-01 06:27:00,32.8,24.0,30.09,NE,55,0.0,-999.0,70,-99.99,,,0.00,0,weatherlink.com 1.10,2013-04-01 05:27:00,
2013-04-01 06:28:00,32.8,24.1,30.09,NE,45,1.0,2.0,70,0.00,,,0.00,0,MyOwnSoftware,2013-04-01 05:28:00,
2013-04-01 06:29:00,32.8,24.1,30.09,NE,45,1.0,2.0,70,0.00,,,0.00,0,MyOwnSoftware,2013-04-01 05:29:00,
2013-04-01 06:30:00,32.8,24.1,30.09,NE,45,0.0,1.0,70,0.00,,,0.00,0,MyOwnSoftware,2013-04-01 05:30:00,
2013-04-01 06:31:00,32.8,24.1,30.09,ENE,68,2.0,3.0,70,0.00,,,0.00,0,MyOwnSoftware,2013-04-01 05:31:00,
2013-04-01 06:32:00,32.8,24.1,30.09,NE,45,2.0,4.0,70,0.00,,,0.00,0,MyOwnSoftware,2013-04-01 05:32:00,
2013-04-01 06:33:00,32.8,24.1,30.09,NE,45,1.0,2.0,70,0.00,,,0.00,0,MyOwnSoftware,2013-04-01 05:33:00,
2013-04-01 06:34:00,32.8,24.1,30.09,NE,45,0.0,1.0,70,0.00,,,0.00,0,MyOwnSoftware,2013-04-01 05:34:00,
2013-04-01 06:35:00,32.8,24.1,30.09,NE,45,0.0,1.0,70,0.00,,,0.00,0,MyOwnSoftware,2013-04-01 05:35:00,
2013-04-01 06:36:00,32.8,24.1,30.09,NE,45,1.0,2.0,70,0.00,,,0.00,0,MyOwnSoftware,2013-04-01 05:36:00,
2013-04-01 06:37:00,32.8,24.1,30.09,NE,45,0.0,2.0,70,0.00,,,0.00,0,MyOwnSoftware,2013-04-01 05:37:00,
2013-04-01 06:38:00,32.9,24.2,30.09,NE,45,1.0,2.0,70,0.00,,,0.00,0,MyOwnSoftware,2013-04-01 05:38:00,
2013-04-01 06:39:00,32.9,24.2,30.09,NE,45,2.0,2.0,70,0.00,,,0.00,0,MyOwnSoftware,2013-04-01 05:39:00,
2013-04-01 06:40:00,32.9,24.2,30.09,NE,45,1.0,2.0,70,0.00,,,0.00,0,MyOwnSoftware,2013-04-01 05:40:00,
2013-04-01 06:41:00,32.9,24.2,30.09,NE,45,1.0,2.0,70,0.00,,,0.00,3,MyOwnSoftware,2013-04-01 05:41:00,
2013-04-01 06:42:00,32.9,24.0,30.09,NE,48,2.0,-999.0,70,-99.99,,,0.00,5,weatherlink.com 1.10,2013-04-01 05:42:00,
2013-04-01 06:43:00,32.9,24.2,30.09,NE,45,2.0,3.0,70,0.00,,,0.00,5,MyOwnSoftware,2013-04-01 05:43:00,
2013-04-01 06:44:00,32.9,23.9,30.09,NE,45,1.0,2.0,69,0.00,,,0.00,5,MyOwnSoftware,2013-04-01 05:44:00,
2013-04-01 06:45:00,32.9,23.9,30.09,NE,45,2.0,3.0,69,0.00,,,0.00,5,MyOwnSoftware,2013-04-01 05:45:00,
2013-04-01 06:46:00,32.9,23.9,30.09,NE,45,2.0,3.0,69,0.00,,,0.00,5,MyOwnSoftware,2013-04-01 05:46:00,
2013-04-01 06:47:00,32.9,23.9,30.09,NNE,22,3.0,6.0,69,0.00,,,0.00,5,MyOwnSoftware,2013-04-01 05:47:00,
2013-04-01 06:48:00,32.9,23.9,30.09,NNE,22,1.0,2.0,69,0.00,,,0.00,5,MyOwnSoftware,2013-04-01 05:48:00,
2013-04-01 06:49:00,32.9,23.9,30.09,NNE,22,1.0,3.0,69,0.00,,,0.00,5,MyOwnSoftware,2013-04-01 05:49:00,
2013-04-01 06:50:00,32.9,23.9,30.09,NNE,22,2.0,3.0,69,0.00,,,0.00,7,MyOwnSoftware,2013-04-01 05:50:00,
2013-04-01 06:51:00,32.9,23.9,30.09,NNE,22,1.0,2.0,69,0.00,,,0.00,7,MyOwnSoftware,2013-04-01 05:51:00,
2013-04-01 06:52:00,32.9,23.9,30.09,NNE,22,1.0,2.0,69,0.00,,,0.00,7,MyOwnSoftware,2013-04-01 05:52:00,
2013-04-01 06:53:00,32.9,23.9,30.09,NNE,22,1.0,3.0,69,0.00,,,0.00,7,MyOwnSoftware,2013-04-01 05:53:00,
2013-04-01 06:54:00,32.9,23.9,30.09,NNE,22,1.0,2.0,69,0.00,,,0.00,9,MyOwnSoftware,2013-04-01 05:54:00,
2013-04-01 06:55:00,33.1,24.4,30.09,NNE,22,1.0,2.0,70,0.00,,,0.00,9,MyOwnSoftware,2013-04-01 05:55:00,
2013-04-01 06:56:00,33.1,24.1,30.09,NNE,22,2.0,3.0,69,0.00,,,0.00,9,MyOwnSoftware,2013-04-01 05:56:00,
2013-04-01 06:57:00,33.1,24.0,30.09,NNE,28,1.0,-999.0,69,-99.99,,,0.00,12,weatherlink.com 1.10,2013-04-01 05:57:00,
2013-04-01 06:58:00,33.1,24.1,30.09,NNE,22,1.0,2.0,69,0.00,,,0.00,12,MyOwnSoftware,2013-04-01 05:58:00,
2013-04-01 06:59:00,33.1,24.1,30.09,NNE,22,2.0,3.0,69,0.00,,,0.00,12,MyOwnSoftware,2013-04-01 05:59:00,
2013-04-01 07:00:00,33.1,24.1,30.09,NNE,22,2.0,3.0,69,0.00,,,0.00,12,MyOwnSoftware,2013-04-01 06:00:00,
2013-04-01 07:01:00,32.9,23.9,30.09,NNE,22,2.0,3.0,69,0.00,,,0.00,12,MyOwnSoftware,2013-04-01 06:01:00,
2013-04-01 07:02:00,32.9,23.9,30.09,NNE,22,2.0,3.0,69,0.00,,,0.00,14,MyOwnSoftware,2013-04-01 06:02:00,
2013-04-01 07:03:00,32.9,24.2,30.09,NNE,22,2.0,4.0,70,0.00,,,0.00,14,MyOwnSoftware,2013-04-01 06:03:00,
2013-04-01 07:04:00,32.9,24.2,30.09,NE,45,2.0,3.0,70,0.00,,,0.00,14,MyOwnSoftware,2013-04-01 06:04:00,
2013-04-01 07:05:00,32.9,24.2,30.09,NE,45,1.0,2.0,70,0.00,,,0.00,14,MyOwnSoftware,2013-04-01 06:05:00,
2013-04-01 07:06:00,32.9,24.2,30.09,NE,45,2.0,3.0,70,0.00,,,0.00,17,MyOwnSoftware,2013-04-01 06:06:00,
2013-04-01 07:07:00,32.9,24.2,30.09,NE,45,2.0,3.0,70,0.00,,,0.00,19,MyOwnSoftware,2013-04-01 06:07:00,
2013-04-01 07:08:00,32.9,24.2,30.09,NE,45,1.0,3.0,70,0.00,,,0.00,19,MyOwnSoftware,2013-04-01 06:08:00,
2013-04-01 07:09:00,32.9,24.2,30.09,NE,45,2.0,3.0,70,0.00,,,0.00,19,MyOwnSoftware,2013-04-01 06:09:00,
2013-04-01 07:10:00,32.9,24.2,30.09,NE,45,1.0,2.0,70,0.00,,,0.00,19,MyOwnSoftware,2013-04-01 06:10:00,
2013-04-01 07:11:00,32.9,24.2,30.09,NE,45,1.0,3.0,70,0.00,,,0.00,21,MyOwnSoftware,2013-04-01 06:11:00,
2013-04-01 07:12:00,32.9,24.0,30.09,NE,41,0.0,-999.0,70,-99.99,,,0.00,21,weatherlink.com 1.10,2013-04-01 06:12:00,
2013-04-01 07:13:00,32.9,24.2,30.09,NE,45,1.0,2.0,70,0.00,,,0.00,21,MyOwnSoftware,2013-04-01 06:13:00,
2013-04-01 07:14:00,32.9,24.2,30.09,NE,45,1.0,2.0,70,0.00,,,0.00,21,MyOwnSoftware,2013-04-01 06:14:00,
2013-04-01 07:15:00,32.9,24.2,30.09,NE,45,1.0,2.0,70,0.00,,,0.00,25,MyOwnSoftware,2013-04-01 06:15:00,
2013-04-01 07:16:00,32.9,24.2,30.09,NE,45,1.0,2.0,70,0.00,,,0.00,25,MyOwnSoftware,2013-04-01 06:16:00,
2013-04-01 07:17:00,33.1,24.7,30.09,NE,45,2.0,3.0,71,0.00,,,0.00,25,MyOwnSoftware,2013-04-01 06:17:00,
2013-04-01 07:18:00,33.1,24.7,30.09,NE,45,1.0,2.0,71,0.00,,,0.00,25,MyOwnSoftware,2013-04-01 06:18:00,
2013-04-01 07:19:00,33.1,24.7,30.09,NE,45,2.0,3.0,71,0.00,,,0.00,28,MyOwnSoftware,2013-04-01 06:19:00,
2013-04-01 07:20:00,33.1,24.7,30.09,NE,45,2.0,3.0,71,0.00,,,0.00,28,MyOwnSoftware,2013-04-01 06:20:00,
2013-04-01 07:21:00,33.1,24.7,30.09,NE,45,2.0,3.0,71,0.00,,,0.00,28,MyOwnSoftware,2013-04-01 06:21:00,
2013-04-01 07:22:00,33.1,24.7,30.09,NE,45,1.0,2.0,71,0.00,,,0.00,28,MyOwnSoftware,2013-04-01 06:22:00,
2013-04-01 07:23:00,33.1,24.7,30.09,NE,45,2.0,3.0,71,0.00,,,0.00,33,MyOwnSoftware,2013-04-01 06:23:00,
2013-04-01 07:24:00,33.1,24.7,30.09,NE,45,2.0,3.0,71,0.00,,,0.00,33,MyOwnSoftware,2013-04-01 06:24:00,
2013-04-01 07:25:00,33.1,24.7,30.09,NE,45,2.0,3.0,71,0.00,,,0.00,33,MyOwnSoftware,2013-04-01 06:25:00,
2013-04-01 07:26:00,33.1,24.7,30.09,NE,45,2.0,3.0,71,0.00,,,0.00,33,MyOwnSoftware,2013-04-01 06:26:00,
2013-04-01 07:27:00,33.1,25.0,30.09,NE,56,1.0,-999.0,71,-99.99,,,0.00,39,weatherlink.com 1.10,2013-04-01 06:27:00,
2013-04-01 07:28:00,33.1,24.7,30.09,NE,45,2.0,3.0,71,0.00,,,0.00,39,MyOwnSoftware,2013-04-01 06:28:00,
2013-04-01 07:29:00,33.1,24.7,30.09,NE,45,1.0,2.0,71,0.00,,,0.00,39,MyOwnSoftware,2013-04-01 06:29:00,
2013-04-01 07:30:00,33.1,24.7,30.10,NE,45,2.0,3.0,71,0.00,,,0.00,39,MyOwnSoftware,2013-04-01 06:30:00,
2013-04-01 07:31:00,33.1,24.7,30.10,NE,45,1.0,2.0,71,0.00,,,0.00,40,MyOwnSoftware,2013-04-01 06:31:00,
2013-04-01 07:32:00,33.1,24.7,30.10,NE,45,1.0,3.0,71,0.00,,,0.00,40,MyOwnSoftware,2013-04-01 06:32:00,
2013-04-01 07:33:00,33.2,24.8,30.10,NE,45,2.0,2.0,71,0.00,,,0.00,40,MyOwnSoftware,2013-04-01 06:33:00,
2013-04-01 07:34:00,33.2,24.8,30.10,NE,45,1.0,2.0,71,0.00,,,0.00,40,MyOwnSoftware,2013-04-01 06:34:00,
2013-04-01 07:35:00,33.2,24.8,30.10,NE,45,1.0,2.0,71,0.00,,,0.00,40,MyOwnSoftware,2013-04-01 06:35:00,
2013-04-01 07:36:00,33.2,24.8,30.10,NE,45,2.0,2.0,71,0.00,,,0.00,40,MyOwnSoftware,2013-04-01 06:36:00,
2013-04-01 07:37:00,33.4,25.4,30.10,NE,45,2.0,3.0,72,0.00,,,0.00,40,MyOwnSoftware,2013-04-01 06:37:00,
2013-04-01 07:38:00,33.4,25.4,30.10,NE,45,2.0,3.0,72,0.00,,,0.00,40,MyOwnSoftware,2013-04-01 06:38:00,
2013-04-01 07:39:00,33.4,25.0,30.10,NE,45,2.0,3.0,71,0.00,,,0.00,40,MyOwnSoftware,2013-04-01 06:39:00,
2013-04-01 07:40:00,33.4,25.0,30.10,NE,45,1.0,2.0,71,0.00,,,0.00,46,MyOwnSoftware,2013-04-01 06:40:00,
2013-04-01 07:41:00,33.4,25.4,30.10,NE,45,2.0,2.0,72,0.00,,,0.00,46,MyOwnSoftware,2013-04-01 06:41:00,
2013-04-01 07:42:00,33.5,25.0,30.10,SE,140,2.0,-999.0,72,-99.99,,,0.00,46,weatherlink.com 1.10,2013-04-01 06:42:00,
2013-04-01 07:43:00,33.5,25.5,30.10,SE,135,1.0,3.0,72,0.00,,,0.00,46,MyOwnSoftware,2013-04-01 06:43:00,
2013-04-01 07:44:00,33.5,25.5,30.10,ENE,68,2.0,3.0,72,0.00,,,0.00,49,MyOwnSoftware,2013-04-01 06:44:00,
2013-04-01 07:45:00,33.7,25.7,30.10,ENE,68,1.0,2.0,72,0.00,,,0.00,49,MyOwnSoftware,2013-04-01 06:45:00,
2013-04-01 07:46:00,33.7,25.7,30.10,ENE,68,1.0,2.0,72,0.00,,,0.00,49,MyOwnSoftware,2013-04-01 06:46:00,
2013-04-01 07:47:00,33.7,25.3,30.10,ENE,68,2.0,3.0,71,0.00,,,0.00,49,MyOwnSoftware,2013-04-01 06:47:00,
2013-04-01 07:48:00,33.7,25.3,30.10,ENE,68,1.0,2.0,71,0.00,,,0.00,49,MyOwnSoftware,2013-04-01 06:48:00,
2013-04-01 07:49:00,33.7,25.3,30.10,ENE,68,2.0,2.0,71,0.00,,,0.00,49,MyOwnSoftware,2013-04-01 06:49:00,
2013-04-01 07:50:00,33.8,25.4,30.10,ENE,68,2.0,3.0,71,0.00,,,0.00,49,MyOwnSoftware,2013-04-01 06:50:00,
2013-04-01 07:51:00,33.8,25.4,30.10,ENE,68,2.0,4.0,71,0.00,,,0.00,49,MyOwnSoftware,2013-04-01 06:51:00,
2013-04-01 07:52:00,33.8,25.4,30.10,NE,45,2.0,5.0,71,0.00,,,0.00,53,MyOwnSoftware,2013-04-01 06:52:00,
2013-04-01 07:53:00,33.8,25.4,30.10,North,0,3.0,6.0,71,0.00,,,0.00,53,MyOwnSoftware,2013-04-01 06:53:00,
2013-04-01 07:54:00,34.0,25.3,30.10,North,0,2.0,3.0,70,0.00,,,0.00,53,MyOwnSoftware,2013-04-01 06:54:00,
2013-04-01 07:55:00,34.0,25.3,30.10,North,0,1.0,3.0,70,0.00,,,0.00,53,MyOwnSoftware,2013-04-01 06:55:00,
2013-04-01 07:56:00,34.0,24.9,30.10,SE,135,2.0,4.0,69,0.00,,,0.00,53,MyOwnSoftware,2013-04-01 06:56:00,
2013-04-01 07:57:00,34.1,25.0,30.10,NE,45,2.0,-999.0,69,-99.99,,,0.00,53,weatherlink.com 1.10,2013-04-01 06:57:00,
2013-04-01 07:58:00,34.1,25.0,30.10,NE,45,2.0,3.0,69,0.00,,,0.00,53,MyOwnSoftware,2013-04-01 06:58:00,
2013-04-01 07:59:00,34.1,25.0,30.10,NNE,22,3.0,5.0,69,0.00,,,0.00,53,MyOwnSoftware,2013-04-01 06:59:00,
2013-04-01 08:00:00,34.3,25.2,30.10,NNE,22,2.0,4.0,69,0.00,,,0.00,53,MyOwnSoftware,2013-04-01 07:00:00,
2013-04-01 08:01:00,34.3,25.2,30.10,NNE,22,2.0,3.0,69,0.00,,,0.00,60,MyOwnSoftware,2013-04-01 07:01:00,
2013-04-01 08:02:00,34.3,25.2,30.10,NNE,22,3.0,5.0,69,0.00,,,0.00,65,MyOwnSoftware,2013-04-01 07:02:00,
2013-04-01 08:03:00,34.3,25.2,30.10,NNE,22,2.0,3.0,69,0.00,,,0.00,67,MyOwnSoftware,2013-04-01 07:03:00,
2013-04-01 08:04:00,34.4,25.3,30.10,NNE,22,1.0,2.0,69,0.00,,,0.00,67,MyOwnSoftware,2013-04-01 07:04:00,
2013-04-01 08:05:00,34.4,25.6,30.10,NNE,22,1.0,2.0,70,0.00,,,0.00,67,MyOwnSoftware,2013-04-01 07:05:00,
2013-04-01 08:06:00,34.4,25.6,30.10,NNE,22,1.0,2.0,70,0.00,,,0.00,68,MyOwnSoftware,2013-04-01 07:06:00,
2013-04-01 08:07:00,34.4,25.6,30.10,NNE,22,2.0,3.0,70,0.00,,,0.00,70,MyOwnSoftware,2013-04-01 07:07:00,
2013-04-01 08:08:00,34.6,25.8,30.10,ENE,68,3.0,4.0,70,0.00,,,0.00,72,MyOwnSoftware,2013-04-01 07:08:00,
2013-04-01 08:09:00,34.6,25.5,30.10,NNE,22,3.0,6.0,69,0.00,,,0.00,76,MyOwnSoftware,2013-04-01 07:09:00,
2013-04-01 08:10:00,34.6,25.5,30.10,North,0,2.0,6.0,69,0.00,,,0.00,77,MyOwnSoftware,2013-04-01 07:10:00,
2013-04-01 08:11:00,34.6,25.5,30.10,NE,45,2.0,3.0,69,0.00,,,0.00,77,MyOwnSoftware,2013-04-01 07:11:00,
2013-04-01 08:12:00,34.7,25.6,30.10,NE,45,2.0,4.0,69,0.00,,,0.00,76,MyOwnSoftware,2013-04-01 07:12:00,
2013-04-01 08:13:00,34.7,25.0,30.10,NNE,27,2.0,-999.0,69,-99.99,,,0.00,74,weatherlink.com 1.10,2013-04-01 07:13:00,
2013-04-01 08:14:00,34.7,25.6,30.10,NNE,22,2.0,4.0,69,0.00,,,0.00,72,MyOwnSoftware,2013-04-01 07:14:00,
2013-04-01 08:15:00,34.7,25.2,30.10,NNE,22,3.0,5.0,68,0.00,,,0.00,74,MyOwnSoftware,2013-04-01 07:15:00,
2013-04-01 08:16:00,34.9,25.4,30.10,SE,135,2.0,5.0,68,0.00,,,0.00,78,MyOwnSoftware,2013-04-01 07:16:00,
2013-04-01 08:17:00,34.9,25.4,30.10,ENE,68,2.0,3.0,68,0.00,,,0.00,84,MyOwnSoftware,2013-04-01 07:17:00,
2013-04-01 08:18:00,34.6,25.5,30.10,NNE,22,3.0,6.0,69,0.00,,,0.00,76,MyOwnSoftware,2013-04-01 07:18:00,
2013-04-01 08:19:00,34.9,25.4,30.10,NNE,22,2.0,3.0,68,0.00,,,0.00,88,MyOwnSoftware,2013-04-01 07:19:00,
2013-04-01 08:20:00,34.9,25.4,30.10,NNE,22,2.0,4.0,68,0.00,,,0.00,88,MyOwnSoftware,2013-04-01 07:20:00,
2013-04-01 08:21:00,35.0,25.2,30.10,NE,45,2.0,3.0,67,0.00,,,0.00,89,MyOwnSoftware,2013-04-01 07:21:00,
2013-04-01 08:22:00,35.0,25.2,30.10,North,0,3.0,8.0,67,0.00,,,0.00,88,MyOwnSoftware,2013-04-01 07:22:00,
2013-04-01 08:23:00,35.0,24.8,30.10,North,0,4.0,7.0,66,0.00,,,0.00,88,MyOwnSoftware,2013-04-01 07:23:00,
2013-04-01 08:24:00,35.0,24.4,30.10,NE,45,3.0,6.0,65,0.00,,,0.00,91,MyOwnSoftware,2013-04-01 07:24:00,
2013-04-01 08:25:00,35.2,24.3,30.10,North,0,3.0,6.0,64,0.00,,,0.00,93,MyOwnSoftware,2013-04-01 07:25:00,
2013-04-01 08:26:00,35.2,24.3,30.10,ENE,68,4.0,6.0,64,0.00,,,0.00,93,MyOwnSoftware,2013-04-01 07:26:00,
2013-04-01 08:27:00,35.2,23.9,30.10,NE,45,4.0,7.0,63,0.00,,,0.00,91,MyOwnSoftware,2013-04-01 07:27:00,
2013-04-01 08:28:00,35.2,23.0,30.10,NNE,31,5.0,-999.0,62,-99.99,,,0.00,91,weatherlink.com 1.10,2013-04-01 07:28:00,
2013-04-01 08:29:00,35.3,23.6,30.10,NNE,22,3.0,6.0,62,0.00,,,0.00,95,MyOwnSoftware,2013-04-01 07:29:00,
2013-04-01 08:30:00,35.3,23.6,30.11,North,0,4.0,7.0,62,0.00,,,0.00,97,MyOwnSoftware,2013-04-01 07:30:00,
2013-04-01 08:31:00,35.3,23.6,30.11,North,0,3.0,5.0,62,0.00,,,0.00,100,MyOwnSoftware,2013-04-01 07:31:00,
2013-04-01 08:32:00,35.3,23.6,30.11,ENE,68,2.0,3.0,62,0.00,,,0.00,100,MyOwnSoftware,2013-04-01 07:32:00,
2013-04-01 08:33:00,35.5,23.8,30.11,NNE,22,3.0,6.0,62,0.00,,,0.00,100,MyOwnSoftware,2013-04-01 07:33:00,
2013-04-01 08:34:00,35.5,23.8,30.11,North,0,3.0,6.0,62,0.00,,,0.00,99,MyOwnSoftware,2013-04-01 07:34:00,
2013-04-01 08:35:00,35.5,23.4,30.11,East,90,2.0,3.0,61,0.00,,,0.00,95,MyOwnSoftware,2013-04-01 07:35:00,
2013-04-01 08:36:00,35.6,23.5,30.11,ENE,68,1.0,2.0,61,0.00,,,0.00,93,MyOwnSoftware,2013-04-01 07:36:00,
2013-04-01 08:37:00,35.6,23.5,30.11,NE,45,3.0,5.0,61,0.00,,,0.00,95,MyOwnSoftware,2013-04-01 07:37:00,
2013-04-01 08:38:00,35.3,23.6,30.10,NNE,22,3.0,6.0,62,0.00,,,0.00,95,MyOwnSoftware,2013-04-01 07:38:00,
2013-04-01 08:39:00,35.6,23.9,30.11,East,90,1.0,3.0,62,0.00,,,0.00,95,MyOwnSoftware,2013-04-01 07:39:00,
2013-04-01 08:40:00,35.8,24.1,30.11,East,90,2.0,6.0,62,0.00,,,0.00,97,MyOwnSoftware,2013-04-01 07:40:00,
2013-04-01 08:41:00,35.8,24.1,30.11,ENE,68,2.0,5.0,62,0.00,,,0.00,97,MyOwnSoftware,2013-04-01 07:41:00,
2013-04-01 08:42:00,35.8,24.1,30.11,ENE,68,2.0,5.0,62,0.00,,,0.00,97,MyOwnSoftware,2013-04-01 07:42:00,
2013-04-01 08:43:00,35.8,24.1,30.11,ENE,68,2.0,3.0,62,0.00,,,0.00,95,MyOwnSoftware,2013-04-01 07:43:00,
2013-04-01 08:44:00,35.8,24.1,30.11,ENE,68,2.0,3.0,62,0.00,,,0.00,95,MyOwnSoftware,2013-04-01 07:44:00,
2013-04-01 08:45:00,35.9,24.2,30.11,NE,45,2.0,4.0,62,0.00,,,0.00,93,MyOwnSoftware,2013-04-01 07:45:00,
2013-04-01 08:46:00,35.6,23.5,30.11,NE,45,3.0,5.0,61,0.00,,,0.00,95,MyOwnSoftware,2013-04-01 07:46:00,
2013-04-01 08:47:00,35.9,23.8,30.11,North,0,5.0,7.0,61,0.00,,,0.00,100,MyOwnSoftware,2013-04-01 07:47:00,
2013-04-01 08:48:00,35.9,23.8,30.11,ESE,112,3.0,6.0,61,0.00,,,0.00,106,MyOwnSoftware,2013-04-01 07:48:00,
2013-04-01 08:49:00,35.9,24.2,30.11,ENE,68,2.0,3.0,62,0.00,,,0.00,109,MyOwnSoftware,2013-04-01 07:49:00,
2013-04-01 08:50:00,35.9,24.2,30.11,North,0,5.0,8.0,62,0.00,,,0.00,111,MyOwnSoftware,2013-04-01 07:50:00,
2013-04-01 08:51:00,35.9,23.8,30.11,North,0,5.0,10.0,61,0.00,,,0.00,112,MyOwnSoftware,2013-04-01 07:51:00,
2013-04-01 08:52:00,35.9,23.4,30.11,North,0,3.0,6.0,60,0.00,,,0.00,113,MyOwnSoftware,2013-04-01 07:52:00,
2013-04-01 08:53:00,35.9,23.0,30.11,NE,45,3.0,5.0,59,0.00,,,0.00,114,MyOwnSoftware,2013-04-01 07:53:00,
2013-04-01 08:54:00,35.9,23.4,30.11,ENE,68,5.0,6.0,60,0.00,,,0.00,116,MyOwnSoftware,2013-04-01 07:54:00,
2013-04-01 08:55:00,35.9,23.0,30.11,ENE,68,4.0,6.0,59,0.00,,,0.00,120,MyOwnSoftware,2013-04-01 07:55:00,
2013-04-01 08:56:00,36.0,22.7,30.11,NE,45,4.0,7.0,58,0.00,,,0.00,122,MyOwnSoftware,2013-04-01 07:56:00,
2013-04-01 08:57:00,35.9,23.8,30.11,ESE,112,3.0,6.0,61,0.00,,,0.00,106,MyOwnSoftware,2013-04-01 07:57:00,
2013-04-01 08:58:00,36.0,22.7,30.11,NE,45,5.0,8.0,58,0.00,,,0.00,120,MyOwnSoftware,2013-04-01 07:58:00,
2013-04-01 08:59:00,36.0,22.3,30.11,North,0,5.0,7.0,57,0.00,,,0.00,120,MyOwnSoftware,2013-04-01 07:59:00,
2013-04-01 09:00:00,36.0,22.3,30.11,North,0,6.0,8.0,57,0.00,,,0.00,121,MyOwnSoftware,2013-04-01 08:00:00,
2013-04-01 09:01:00,36.0,22.3,30.11,NNE,22,3.0,5.0,57,0.00,,,0.00,122,MyOwnSoftware,2013-04-01 08:01:00,
2013-04-01 09:02:00,36.0,22.3,30.11,NE,45,6.0,10.0,57,0.00,,,0.00,127,MyOwnSoftware,2013-04-01 08:02:00,
2013-04-01 09:03:00,36.2,22.0,30.11,NE,45,5.0,10.0,56,0.00,,,0.00,132,MyOwnSoftware,2013-04-01 08:03:00,
2013-04-01 09:04:00,36.2,22.0,30.11,SE,135,3.0,6.0,56,0.00,,,0.00,137,MyOwnSoftware,2013-04-01 08:04:00,
2013-04-01 09:05:00,36.2,22.0,30.11,North,0,4.0,6.0,56,0.00,,,0.00,139,MyOwnSoftware,2013-04-01 08:05:00,
2013-04-01 09:06:00,36.3,22.5,30.11,NNE,22,5.0,8.0,57,0.00,,,0.00,140,MyOwnSoftware,2013-04-01 08:06:00,
2013-04-01 09:07:00,36.3,22.1,30.11,NE,45,5.0,8.0,56,0.00,,,0.00,141,MyOwnSoftware,2013-04-01 08:07:00,
2013-04-01 09:08:00,36.3,22.1,30.11,NE,45,6.0,8.0,56,0.00,,,0.00,139,MyOwnSoftware,2013-04-01 08:08:00,
2013-04-01 09:09:00,36.3,22.1,30.11,NE,45,4.0,6.0,56,0.00,,,0.00,135,MyOwnSoftware,2013-04-01 08:09:00,
2013-04-01 09:10:00,36.5,22.7,30.11,NE,45,4.0,6.0,57,0.00,,,0.00,135,MyOwnSoftware,2013-04-01 08:10:00,
2013-04-01 09:11:00,36.5,22.3,30.11,North,0,4.0,7.0,56,0.00,,,0.00,135,MyOwnSoftware,2013-04-01 08:11:00,
2013-04-01 09:12:00,36.5,22.7,30.11,North,0,5.0,8.0,57,0.00,,,0.00,135,MyOwnSoftware,2013-04-01 08:12:00,
2013-04-01 09:13:00,36.5,22.0,30.11,NNE,21,5.0,-999.0,57,-99.99,,,0.00,134,weatherlink.com 1.10,2013-04-01 08:13:00,
2013-04-01 09:14:00,36.5,22.7,30.11,NE,45,4.0,7.0,57,0.00,,,0.00,130,MyOwnSoftware,2013-04-01 08:14:00,
2013-04-01 09:15:00,36.5,22.7,30.11,ENE,68,4.0,6.0,57,0.00,,,0.00,127,MyOwnSoftware,2013-04-01 08:15:00,
2013-04-01 09:16:00,36.5,22.7,30.11,North,0,3.0,5.0,57,0.00,,,0.00,128,MyOwnSoftware,2013-04-01 08:16:00,
2013-04-01 09:17:00,36.5,23.1,30.11,NE,45,3.0,5.0,58,0.00,,,0.00,132,MyOwnSoftware,2013-04-01 08:17:00,
2013-04-01 09:18:00,36.5,23.1,30.11,East,90,3.0,5.0,58,0.00,,,0.00,134,MyOwnSoftware,2013-04-01 08:18:00,
2013-04-01 09:19:00,36.5,23.1,30.11,NE,45,3.0,3.0,58,0.00,,,0.00,134,MyOwnSoftware,2013-04-01 08:19:00,
2013-04-01 09:20:00,36.5,23.1,30.11,NE,45,3.0,6.0,58,0.00,,,0.00,132,MyOwnSoftware,2013-04-01 08:20:00,
2013-04-01 09:21:00,36.5,23.1,30.11,North,0,4.0,6.0,58,0.00,,,0.00,135,MyOwnSoftware,2013-04-01 08:21:00,
2013-04-01 09:22:00,36.5,23.1,30.11,ENE,68,3.0,5.0,58,0.00,,,0.00,135,MyOwnSoftware,2013-04-01 08:22:00,
2013-04-01 09:23:00,36.5,22.7,30.11,ENE,68,4.0,6.0,57,0.00,,,0.00,135,MyOwnSoftware,2013-04-01 08:23:00,
2013-04-01 09:24:00,36.5,22.7,30.11,NE,45,4.0,6.0,57,0.00,,,0.00,135,MyOwnSoftware,2013-04-01 08:24:00,
2013-04-01 09:25:00,36.5,22.7,30.11,ENE,68,3.0,6.0,57,0.00,,,0.00,134,MyOwnSoftware,2013-04-01 08:25:00,
2013-04-01 09:26:00,36.5,22.7,30.11,NNE,22,4.0,6.0,57,0.00,,,0.00,135,MyOwnSoftware,2013-04-01 08:26:00,
2013-04-01 09:27:00,36.5,22.7,30.11,East,90,3.0,5.0,57,0.00,,,0.00,139,MyOwnSoftware,2013-04-01 08:27:00,
2013-04-01 09:28:00,36.5,22.0,30.11,ENE,65,3.0,-999.0,57,-99.99,,,0.00,143,weatherlink.com 1.10,2013-04-01 08:28:00,
2013-04-01 09:29:00,36.5,22.7,30.11,ENE,68,3.0,5.0,57,0.00,,,0.00,146,MyOwnSoftware,2013-04-01 08:29:00,
2013-04-01 09:30:00,36.6,23.2,30.11,North,0,5.0,6.0,58,0.00,,,0.00,146,MyOwnSoftware,2013-04-01 08:30:00,
2013-04-01 09:31:00,36.6,22.8,30.11,ENE,68,2.0,3.0,57,0.00,,,0.00,149,MyOwnSoftware,2013-04-01 08:31:00,
2013-04-01 09:32:00,36.6,23.2,30.11,NE,45,2.0,5.0,58,0.00,,,0.00,143,MyOwnSoftware,2013-04-01 08:32:00,
2013-04-01 09:33:00,36.6,23.2,30.11,NNE,22,3.0,5.0,58,0.00,,,0.00,143,MyOwnSoftware,2013-04-01 08:33:00,
2013-04-01 09:34:00,36.6,23.2,30.11,NNE,22,2.0,3.0,58,0.00,,,0.00,144,MyOwnSoftware,2013-04-01 08:34:00,
2013-04-01 09:35:00,36.8,23.4,30.11,NNE,22,2.0,4.0,58,0.00,,,0.00,144,MyOwnSoftware,2013-04-01 08:35:00,
2013-04-01 09:36:00,36.8,23.4,30.11,North,0,4.0,7.0,58,0.00,,,0.00,144,MyOwnSoftware,2013-04-01 08:36:00,
2013-04-01 09:37:00,36.8,23.4,30.11,NE,45,6.0,9.0,58,0.00,,,0.00,144,MyOwnSoftware,2013-04-01 08:37:00,
2013-04-01 09:38:00,36.8,23.4,30.11,NNE,22,4.0,7.0,58,0.00,,,0.00,144,MyOwnSoftware,2013-04-01 08:38:00,
2013-04-01 09:39:00,36.8,23.4,30.11,North,0,4.0,5.0,58,0.00,,,0.00,144,MyOwnSoftware,2013-04-01 08:39:00,
2013-04-01 09:40:00,36.8,23.4,30.11,North,0,3.0,5.0,58,0.00,,,0.00,144,MyOwnSoftware,2013-04-01 08:40:00,
2013-04-01 09:41:00,36.8,23.4,30.11,NNE,22,2.0,4.0,58,0.00,,,0.00,146,MyOwnSoftware,2013-04-01 08:41:00,
2013-04-01 09:42:00,36.8,23.8,30.11,NNE,22,3.0,3.0,59,0.00,,,0.00,146,MyOwnSoftware,2013-04-01 08:42:00,
2013-04-01 09:43:00,36.8,24.0,30.11,NNE,21,3.0,-999.0,59,-99.99,,,0.00,148,weatherlink.com 1.10,2013-04-01 08:43:00,
2013-04-01 09:44:00,36.8,23.8,30.11,North,0,5.0,8.0,59,0.00,,,0.00,153,MyOwnSoftware,2013-04-01 08:44:00,
2013-04-01 09:45:00,36.8,23.8,30.12,North,0,4.0,7.0,59,0.00,,,0.00,155,MyOwnSoftware,2013-04-01 08:45:00,
2013-04-01 09:46:00,36.8,23.8,30.12,North,0,5.0,7.0,59,0.00,,,0.00,154,MyOwnSoftware,2013-04-01 08:46:00,
2013-04-01 09:47:00,36.8,23.8,30.12,NE,45,3.0,6.0,59,0.00,,,0.00,153,MyOwnSoftware,2013-04-01 08:47:00,
2013-04-01 09:48:00,36.8,23.8,30.12,North,0,3.0,5.0,59,0.00,,,0.00,153,MyOwnSoftware,2013-04-01 08:48:00,
2013-04-01 09:49:00,36.8,23.8,30.12,NNE,22,3.0,5.0,59,0.00,,,0.00,153,MyOwnSoftware,2013-04-01 08:49:00,
2013-04-01 09:50:00,36.8,23.8,30.12,NNE,22,1.0,2.0,59,0.00,,,0.00,153,MyOwnSoftware,2013-04-01 08:50:00,
2013-04-01 09:51:00,36.8,23.8,30.12,NNE,22,4.0,6.0,59,0.00,,,0.00,155,MyOwnSoftware,2013-04-01 08:51:00,
2013-04-01 09:52:00,36.8,23.8,30.12,North,0,4.0,6.0,59,0.00,,,0.00,153,MyOwnSoftware,2013-04-01 08:52:00,
2013-04-01 09:53:00,36.8,23.8,30.12,NNE,22,3.0,5.0,59,0.00,,,0.00,151,MyOwnSoftware,2013-04-01 08:53:00,
2013-04-01 09:54:00,36.8,23.8,30.12,NNE,22,2.0,3.0,59,0.00,,,0.00,148,MyOwnSoftware,2013-04-01 08:54:00,
2013-04-01 09:55:00,36.8,23.8,30.12,NNE,22,3.0,6.0,59,0.00,,,0.00,146,MyOwnSoftware,2013-04-01 08:55:00,
2013-04-01 09:56:00,36.8,23.4,30.12,NNE,22,5.0,8.0,58,0.00,,,0.00,144,MyOwnSoftware,2013-04-01 08:56:00,
2013-04-01 09:57:00,36.8,23.8,30.12,North,0,3.0,5.0,59,0.00,,,0.00,153,MyOwnSoftware,2013-04-01 08:57:00,
2013-04-01 09:58:00,36.8,23.8,30.12,NNE,22,3.0,6.0,59,0.00,,,0.00,144,MyOwnSoftware,2013-04-01 08:58:00,
2013-04-01 09:59:00,36.8,23.8,30.12,North,0,2.0,6.0,59,0.00,,,0.00,146,MyOwnSoftware,2013-04-01 08:59:00,
2013-04-01 10:00:00,36.8,23.8,30.12,North,0,2.0,2.0,59,0.00,,,0.00,148,MyOwnSoftware,2013-04-01 09:00:00,
2013-04-01 10:01:00,36.9,24.3,30.12,North,0,2.0,5.0,60,0.00,,,0.00,148,MyOwnSoftware,2013-04-01 09:01:00,
2013-04-01 10:02:00,36.9,23.9,30.12,NNE,22,4.0,6.0,59,0.00,,,0.00,148,MyOwnSoftware,2013-04-01 09:02:00,
2013-04-01 10:03:00,36.9,23.9,30.12,NE,45,5.0,6.0,59,0.00,,,0.00,150,MyOwnSoftware,2013-04-01 09:03:00,
2013-04-01 10:04:00,36.9,23.1,30.12,North,0,6.0,8.0,57,0.00,,,0.00,153,MyOwnSoftware,2013-04-01 09:04:00,
2013-04-01 10:05:00,36.9,23.1,30.12,NNE,22,4.0,5.0,57,0.00,,,0.00,155,MyOwnSoftware,2013-04-01 09:05:00,
2013-04-01 10:06:00,36.9,23.5,30.12,NNE,22,2.0,5.0,58,0.00,,,0.00,156,MyOwnSoftware,2013-04-01 09:06:00,
2013-04-01 10:07:00,36.9,23.5,30.12,NE,45,3.0,6.0,58,0.00,,,0.00,157,MyOwnSoftware,2013-04-01 09:07:00,
2013-04-01 10:08:00,36.9,23.5,30.12,NE,45,3.0,5.0,58,0.00,,,0.00,157,MyOwnSoftware,2013-04-01 09:08:00,
2013-04-01 10:09:00,36.9,23.5,30.12,NE,45,3.0,5.0,58,0.00,,,0.00,157,MyOwnSoftware,2013-04-01 09:09:00,
2013-04-01 10:10:00,37.0,23.6,30.12,NNE,22,4.0,7.0,58,0.00,,,0.00,158,MyOwnSoftware,2013-04-01 09:10:00,
2013-04-01 10:11:00,37.0,23.2,30.12,ENE,68,4.0,6.0,57,0.00,,,0.00,162,MyOwnSoftware,2013-04-01 09:11:00,
2013-04-01 10:12:00,37.0,23.2,30.12,NNE,22,3.0,5.0,57,0.00,,,0.00,167,MyOwnSoftware,2013-04-01 09:12:00,
2013-04-01 10:13:00,37.0,23.0,30.12,NE,44,6.0,-999.0,57,-99.99,,,0.00,171,weatherlink.com 1.10,2013-04-01 09:13:00,
2013-04-01 10:14:00,37.2,23.4,30.12,NE,45,3.0,7.0,57,0.00,,,0.00,171,MyOwnSoftware,2013-04-01 09:14:00,
2013-04-01 10:15:00,37.2,23.4,30.12,NNE,22,3.0,7.0,57,0.00,,,0.00,172,MyOwnSoftware,2013-04-01 09:15:00,
2013-04-01 10:16:00,37.2,23.4,30.12,NNE,22,5.0,8.0,57,0.00,,,0.00,172,MyOwnSoftware,2013-04-01 09:16:00,
2013-04-01 10:17:00,37.2,23.0,30.12,North,0,3.0,5.0,56,0.00,,,0.00,172,MyOwnSoftware,2013-04-01 09:17:00,
2013-04-01 10:18:00,37.2,23.4,30.12,North,0,5.0,8.0,57,0.00,,,0.00,171,MyOwnSoftware,2013-04-01 09:18:00,
2013-04-01 10:19:00,37.2,23.4,30.12,North,0,5.0,10.0,57,0.00,,,0.00,169,MyOwnSoftware,2013-04-01 09:19:00,
2013-04-01 10:20:00,37.2,23.4,30.12,North,0,6.0,7.0,57,0.00,,,0.00,169,MyOwnSoftware,2013-04-01 09:20:00,
2013-04-01 10:21:00,37.3,23.5,30.12,North,0,3.0,5.0,57,0.00,,,0.00,169,MyOwnSoftware,2013-04-01 09:21:00,
2013-04-01 10:22:00,37.3,23.5,30.12,North,0,4.0,7.0,57,0.00,,,0.00,171,MyOwnSoftware,2013-04-01 09:22:00,
2013-04-01 10:23:00,37.3,23.5,30.12,NE,45,3.0,5.0,57,0.00,,,0.00,172,MyOwnSoftware,2013-04-01 09:23:00,
2013-04-01 10:24:00,37.3,23.5,30.12,NNE,22,4.0,10.0,57,0.00,,,0.00,176,MyOwnSoftware,2013-04-01 09:24:00,
2013-04-01 10:25:00,37.3,23.5,30.12,ESE,112,6.0,8.0,57,0.00,,,0.00,179,MyOwnSoftware,2013-04-01 09:25:00,
2013-04-01 10:26:00,37.3,23.1,30.12,ENE,68,4.0,6.0,56,0.00,,,0.00,186,MyOwnSoftware,2013-04-01 09:26:00,
2013-04-01 10:27:00,37.3,23.5,30.12,North,0,3.0,6.0,57,0.00,,,0.00,199,MyOwnSoftware,2013-04-01 09:27:00,
2013-04-01 10:28:00,37.5,23.0,30.12,NE,42,2.0,-999.0,57,-99.99,,,0.00,197,weatherlink.com 1.10,2013-04-01 09:28:00,
2013-04-01 10:29:00,37.5,23.7,30.12,NE,45,3.0,4.0,57,0.00,,,0.00,190,MyOwnSoftware,2013-04-01 09:29:00,
2013-04-01 10:30:00,37.5,23.2,30.12,East,90,4.0,6.0,56,0.00,,,0.00,187,MyOwnSoftware,2013-04-01 09:30:00,
2013-04-01 10:31:00,37.5,23.7,30.12,ENE,68,4.0,7.0,57,0.00,,,0.00,182,MyOwnSoftware,2013-04-01 09:31:00,
2013-04-01 10:32:00,37.5,23.2,30.12,NNE,22,5.0,8.0,56,0.00,,,0.00,181,MyOwnSoftware,2013-04-01 09:32:00,
2013-04-01 10:33:00,37.5,23.2,30.12,NNE,22,5.0,7.0,56,0.00,,,0.00,183,MyOwnSoftware,2013-04-01 09:33:00,
2013-04-01 10:34:00,37.5,23.2,30.12,NNE,22,4.0,5.0,56,0.00,,,0.00,183,MyOwnSoftware,2013-04-01 09:34:00,
2013-04-01 10:35:00,37.5,23.7,30.12,NNE,22,5.0,8.0,57,0.00,,,0.00,187,MyOwnSoftware,2013-04-01 09:35:00,
2013-04-01 10:36:00,37.5,23.2,30.12,NNE,22,5.0,10.0,56,0.00,,,0.00,198,MyOwnSoftware,2013-04-01 09:36:00,
2013-04-01 10:37:00,37.5,23.2,30.12,North,0,5.0,8.0,56,0.00,,,0.00,197,MyOwnSoftware,2013-04-01 09:37:00,
2013-04-01 10:38:00,37.5,23.2,30.12,SE,135,3.0,6.0,56,0.00,,,0.00,197,MyOwnSoftware,2013-04-01 09:38:00,
2013-04-01 10:39:00,37.5,23.2,30.12,North,0,5.0,7.0,56,0.00,,,0.00,197,MyOwnSoftware,2013-04-01 09:39:00,
2013-04-01 10:40:00,37.5,23.2,30.12,North,0,6.0,7.0,56,0.00,,,0.00,199,MyOwnSoftware,2013-04-01 09:40:00,
2013-04-01 10:41:00,37.5,23.7,30.12,North,0,3.0,7.0,57,0.00,,,0.00,199,MyOwnSoftware,2013-04-01 09:41:00,
2013-04-01 10:42:00,37.5,23.7,30.12,NE,45,3.0,7.0,57,0.00,,,0.00,197,MyOwnSoftware,2013-04-01 09:42:00,
2013-04-01 10:43:00,37.6,23.0,30.12,NE,35,2.0,-999.0,57,-99.99,,,0.00,199,weatherlink.com 1.10,2013-04-01 09:43:00,
2013-04-01 10:44:00,37.6,23.8,30.12,NE,45,3.0,6.0,57,0.00,,,0.00,199,MyOwnSoftware,2013-04-01 09:44:00,
2013-04-01 10:45:00,37.6,23.3,30.12,NNE,22,4.0,6.0,56,0.00,,,0.00,197,MyOwnSoftware,2013-04-01 09:45:00,
2013-04-01 10:46:00,37.6,23.3,30.12,North,0,5.0,8.0,56,0.00,,,0.00,192,MyOwnSoftware,2013-04-01 09:46:00,
2013-04-01 10:47:00,37.6,23.3,30.12,NNE,22,4.0,6.0,56,0.00,,,0.00,188,MyOwnSoftware,2013-04-01 09:47:00,
2013-04-01 10:48:00,37.8,23.5,30.12,NE,45,3.0,6.0,56,0.00,,,0.00,192,MyOwnSoftware,2013-04-01 09:48:00,
2013-04-01 10:49:00,37.8,23.5,30.12,NNE,22,5.0,8.0,56,0.00,,,0.00,199,MyOwnSoftware,2013-04-01 09:49:00,
2013-04-01 10:50:00,37.8,23.5,30.12,NE,45,4.0,7.0,56,0.00,,,0.00,208,MyOwnSoftware,2013-04-01 09:50:00,
2013-04-01 10:51:00,37.8,24.0,30.12,NE,45,2.0,3.0,57,0.00,,,0.00,231,MyOwnSoftware,2013-04-01 09:51:00,
2013-04-01 10:52:00,37.9,23.6,30.12,SE,135,2.0,3.0,56,0.00,,,0.00,239,MyOwnSoftware,2013-04-01 09:52:00,
2013-04-01 10:53:00,37.9,23.6,30.12,NNE,22,3.0,5.0,56,0.00,,,0.00,238,MyOwnSoftware,2013-04-01 09:53:00,
2013-04-01 10:54:00,37.9,23.2,30.12,NE,45,5.0,10.0,55,0.00,,,0.00,232,MyOwnSoftware,2013-04-01 09:54:00,
2013-04-01 10:55:00,38.0,23.3,30.12,East,90,4.0,6.0,55,0.00,,,0.00,225,MyOwnSoftware,2013-04-01 09:55:00,
2013-04-01 10:56:00,38.0,23.3,30.12,NE,45,4.0,6.0,55,0.00,,,0.00,214,MyOwnSoftware,2013-04-01 09:56:00,
2013-04-01 10:57:00,38.0,23.3,30.12,ENE,68,3.0,5.0,55,0.00,,,0.00,213,MyOwnSoftware,2013-04-01 09:57:00,
2013-04-01 10:58:00,37.8,23.5,30.12,NE,45,3.0,6.0,56,0.00,,,0.00,192,MyOwnSoftware,2013-04-01 09:58:00,
2013-04-01 10:59:00,38.2,23.5,30.12,North,0,4.0,6.0,55,0.00,,,0.00,218,MyOwnSoftware,2013-04-01 09:59:00,
2013-04-01 11:00:00,38.3,23.1,30.12,North,0,3.0,6.0,54,0.00,,,0.00,218,MyOwnSoftware,2013-04-01 10:00:00,
2013-04-01 11:01:00,38.3,23.1,30.12,North,0,3.0,5.0,54,0.00,,,0.00,239,MyOwnSoftware,2013-04-01 10:01:00,
2013-04-01 11:02:00,38.3,23.1,30.12,ENE,68,7.0,12.0,54,0.00,,,0.00,238,MyOwnSoftware,2013-04-01 10:02:00,
2013-04-01 11:03:00,38.3,22.7,30.12,NE,45,6.0,8.0,53,0.00,,,0.00,229,MyOwnSoftware,2013-04-01 10:03:00,
2013-04-01 11:04:00,38.3,22.7,30.12,NE,45,6.0,8.0,53,0.00,,,0.00,225,MyOwnSoftware,2013-04-01 10:04:00,
2013-04-01 11:05:00,38.2,23.0,30.12,North,0,4.0,6.0,54,0.00,,,0.00,225,MyOwnSoftware,2013-04-01 10:05:00,
2013-04-01 11:06:00,38.2,23.0,30.12,NE,45,5.0,8.0,54,0.00,,,0.00,223,MyOwnSoftware,2013-04-01 10:06:00,
2013-04-01 11:07:00,38.2,23.0,30.12,ENE,68,3.0,5.0,54,0.00,,,0.00,238,MyOwnSoftware,2013-04-01 10:07:00,
2013-04-01 11:08:00,38.2,23.0,30.12,NE,45,5.0,7.0,54,0.00,,,0.00,248,MyOwnSoftware,2013-04-01 10:08:00,
2013-04-01 11:09:00,38.2,23.0,30.12,NE,45,5.0,11.0,54,0.00,,,0.00,253,MyOwnSoftware,2013-04-01 10:09:00,
2013-04-01 11:10:00,38.2,23.0,30.12,North,0,9.0,16.0,54,0.00,,,0.00,259,MyOwnSoftware,2013-04-01 10:10:00,
2013-04-01 11:11:00,38.2,22.1,30.12,North,0,7.0,10.0,52,0.00,,,0.00,261,MyOwnSoftware,2013-04-01 10:11:00,
2013-04-01 11:12:00,38.2,22.1,30.12,North,0,7.0,12.0,52,0.00,,,0.00,252,MyOwnSoftware,2013-04-01 10:12:00,
2013-04-01 11:13:00,38.3,22.0,30.12,North,10,6.0,-999.0,52,-99.99,,,0.00,243,weatherlink.com 1.10,2013-04-01 10:13:00,
2013-04-01 11:14:00,38.3,22.2,30.12,NE,45,6.0,10.0,52,0.00,,,0.00,243,MyOwnSoftware,2013-04-01 10:14:00,
2013-04-01 11:15:00,38.3,22.2,30.12,NNE,22,5.0,9.0,52,0.00,,,0.00,241,MyOwnSoftware,2013-04-01 10:15:00,
2013-04-01 11:16:00,38.3,22.2,30.12,ESE,112,7.0,10.0,52,0.00,,,0.00,249,MyOwnSoftware,2013-04-01 10:16:00,
2013-04-01 11:17:00,38.3,22.2,30.12,ENE,68,7.0,10.0,52,0.00,,,0.00,252,MyOwnSoftware,2013-04-01 10:17:00,
2013-04-01 11:18:00,38.3,22.2,30.12,North,0,6.0,7.0,52,0.00,,,0.00,248,MyOwnSoftware,2013-04-01 10:18:00,
2013-04-01 11:19:00,38.3,22.2,30.12,East,90,4.0,6.0,52,0.00,,,0.00,243,MyOwnSoftware,2013-04-01 10:19:00,
2013-04-01 11:20:00,38.3,22.7,30.12,ESE,112,5.0,10.0,53,0.00,,,0.00,236,MyOwnSoftware,2013-04-01 10:20:00,
2013-04-01 11:21:00,38.3,22.2,30.12,NNE,22,8.0,12.0,52,0.00,,,0.00,231,MyOwnSoftware,2013-04-01 10:21:00,
2013-04-01 11:22:00,38.3,22.2,30.12,ENE,68,6.0,10.0,52,0.00,,,0.00,236,MyOwnSoftware,2013-04-01 10:22:00,
2013-04-01 11:23:00,38.3,21.8,30.12,ENE,68,5.0,8.0,51,0.00,,,0.00,238,MyOwnSoftware,2013-04-01 10:23:00,
2013-04-01 11:24:00,38.3,22.2,30.12,East,90,5.0,8.0,52,0.00,,,0.00,238,MyOwnSoftware,2013-04-01 10:24:00,
2013-04-01 11:25:00,38.5,22.4,30.12,ENE,68,5.0,6.0,52,0.00,,,0.00,238,MyOwnSoftware,2013-04-01 10:25:00,
2013-04-01 11:26:00,38.5,22.4,30.12,NNE,22,5.0,11.0,52,0.00,,,0.00,241,MyOwnSoftware,2013-04-01 10:26:00,
2013-04-01 11:27:00,38.5,22.4,30.12,NNE,22,5.0,10.0,52,0.00,,,0.00,245,MyOwnSoftware,2013-04-01 10:27:00,
2013-04-01 11:28:00,38.5,22.0,30.12,NNW,336,4.0,-999.0,52,-99.99,,,0.00,241,weatherlink.com 1.10,2013-04-01 10:28:00,
2013-04-01 11:29:00,38.5,22.4,30.12,NNE,22,7.0,11.0,52,0.00,,,0.00,241,MyOwnSoftware,2013-04-01 10:29:00,
2013-04-01 11:30:00,38.5,22.4,30.12,North,0,6.0,10.0,52,0.00,,,0.00,241,MyOwnSoftware,2013-04-01 10:30:00,
2013-04-01 11:31:00,38.5,22.4,30.12,NE,45,5.0,10.0,52,0.00,,,0.00,252,MyOwnSoftware,2013-04-01 10:31:00,
2013-04-01 11:32:00,38.5,22.4,30.12,North,0,6.0,12.0,52,0.00,,,0.00,250,MyOwnSoftware,2013-04-01 10:32:00,
2013-04-01 11:33:00,38.6,22.5,30.12,North,0,6.0,12.0,52,0.00,,,0.00,246,MyOwnSoftware,2013-04-01 10:33:00,
2013-04-01 11:34:00,38.6,22.5,30.12,North,0,5.0,11.0,52,0.00,,,0.00,243,MyOwnSoftware,2013-04-01 10:34:00,
2013-04-01 11:35:00,38.6,22.5,30.12,North,0,3.0,6.0,52,0.00,,,0.00,248,MyOwnSoftware,2013-04-01 10:35:00,
2013-04-01 11:36:00,38.6,22.5,30.12,NE,45,6.0,12.0,52,0.00,,,0.00,255,MyOwnSoftware,2013-04-01 10:36:00,
2013-04-01 11:37:00,38.6,22.5,30.12,North,0,7.0,9.0,52,0.00,,,0.00,259,MyOwnSoftware,2013-04-01 10:37:00,
2013-04-01 11:38:00,38.6,22.5,30.12,North,0,5.0,10.0,52,0.00,,,0.00,267,MyOwnSoftware,2013-04-01 10:38:00,
2013-04-01 11:39:00,38.6,22.5,30.12,ENE,68,4.0,8.0,52,0.00,,,0.00,267,MyOwnSoftware,2013-04-01 10:39:00,
2013-04-01 11:40:00,38.6,23.0,30.12,ESE,112,5.0,6.0,53,0.00,,,0.00,262,MyOwnSoftware,2013-04-01 10:40:00,
2013-04-01 11:41:00,38.6,23.0,30.12,NNE,22,6.0,8.0,53,0.00,,,0.00,241,MyOwnSoftware,2013-04-01 10:41:00,
2013-04-01 11:42:00,38.6,22.5,30.12,NE,45,6.0,12.0,52,0.00,,,0.00,234,MyOwnSoftware,2013-04-01 10:42:00,
2013-04-01 11:43:00,38.6,22.5,30.12,NNE,22,5.0,8.0,52,0.00,,,0.00,227,MyOwnSoftware,2013-04-01 10:43:00,
2013-04-01 11:44:00,38.6,22.0,30.12,NE,45,6.0,-999.0,52,-99.99,,,0.00,216,weatherlink.com 1.10,2013-04-01 10:44:00,
2013-04-01 11:45:00,38.6,22.5,30.12,North,0,6.0,10.0,52,0.00,,,0.00,202,MyOwnSoftware,2013-04-01 10:45:00,
2013-04-01 11:46:00,38.6,22.1,30.12,NNE,22,7.0,10.0,51,0.00,,,0.00,184,MyOwnSoftware,2013-04-01 10:46:00,
2013-04-01 11:47:00,38.6,22.1,30.12,NNE,22,6.0,10.0,51,0.00,,,0.00,178,MyOwnSoftware,2013-04-01 10:47:00,
2013-04-01 11:48:00,38.6,22.5,30.12,North,0,6.0,11.0,52,0.00,,,0.00,178,MyOwnSoftware,2013-04-01 10:48:00,
2013-04-01 11:49:00,38.5,22.4,30.12,NNE,22,7.0,12.0,52,0.00,,,0.00,178,MyOwnSoftware,2013-04-01 10:49:00,
2013-04-01 11:50:00,38.5,22.4,30.12,North,0,6.0,8.0,52,0.00,,,0.00,179,MyOwnSoftware,2013-04-01 10:50:00,
2013-04-01 11:51:00,38.5,22.4,30.12,NNE,22,4.0,6.0,52,0.00,,,0.00,184,MyOwnSoftware,2013-04-01 10:51:00,
2013-04-01 11:52:00,38.6,22.1,30.12,ENE,68,5.0,7.0,51,0.00,,,0.00,181,MyOwnSoftware,2013-04-01 10:52:00,
2013-04-01 11:53:00,38.6,22.1,30.12,ENE,68,5.0,8.0,51,0.00,,,0.00,178,MyOwnSoftware,2013-04-01 10:53:00,
2013-04-01 11:54:00,38.6,22.1,30.12,North,0,4.0,7.0,51,0.00,,,0.00,181,MyOwnSoftware,2013-04-01 10:54:00,
2013-04-01 11:55:00,38.6,22.5,30.12,NE,45,5.0,6.0,52,0.00,,,0.00,183,MyOwnSoftware,2013-04-01 10:55:00,
2013-04-01 11:56:00,38.6,22.5,30.12,NE,45,5.0,10.0,52,0.00,,,0.00,181,MyOwnSoftware,2013-04-01 10:56:00,
2013-04-01 11:57:00,38.6,22.5,30.12,North,0,6.0,9.0,52,0.00,,,0.00,188,MyOwnSoftware,2013-04-01 10:57:00,
2013-04-01 11:58:00,38.6,22.5,30.12,NE,45,6.0,12.0,52,0.00,,,0.00,194,MyOwnSoftware,2013-04-01 10:58:00,
2013-04-01 11:59:00,38.6,22.0,30.12,NNE,24,3.0,-999.0,51,-99.99,,,0.00,201,weatherlink.com 1.10,2013-04-01 10:59:00,
2013-04-01 12:00:00,38.5,22.0,30.12,North,0,6.0,8.0,51,0.00,,,0.00,211,MyOwnSoftware,2013-04-01 11:00:00,
2013-04-01 12:01:00,38.5,22.0,30.12,NNE,22,7.0,9.0,51,0.00,,,0.00,231,MyOwnSoftware,2013-04-01 11:01:00,
2013-04-01 12:02:00,38.5,22.0,30.12,North,0,6.0,10.0,51,0.00,,,0.00,259,MyOwnSoftware,2013-04-01 11:02:00,
2013-04-01 12:03:00,38.5,22.4,30.12,NNE,22,3.0,6.0,52,0.00,,,0.00,280,MyOwnSoftware,2013-04-01 11:03:00,
2013-04-01 12:04:00,38.6,22.5,30.12,North,0,6.0,8.0,52,0.00,,,0.00,280,MyOwnSoftware,2013-04-01 11:04:00,
2013-04-01 12:05:00,38.6,22.1,30.12,NNE,22,8.0,11.0,51,0.00,,,0.00,280,MyOwnSoftware,2013-04-01 11:05:00,
2013-04-01 12:06:00,38.8,22.2,30.12,North,0,8.0,11.0,51,0.00,,,0.00,336,MyOwnSoftware,2013-04-01 11:06:00,
2013-04-01 12:07:00,38.8,22.2,30.12,North,0,6.0,11.0,51,0.00,,,0.00,336,MyOwnSoftware,2013-04-01 11:07:00,
2013-04-01 12:08:00,38.8,22.2,30.12,North,0,5.0,8.0,51,0.00,,,0.00,336,MyOwnSoftware,2013-04-01 11:08:00,
2013-04-01 12:09:00,38.8,22.2,30.12,NNE,22,7.0,12.0,51,0.00,,,0.00,336,MyOwnSoftware,2013-04-01 11:09:00,
2013-04-01 12:10:00,38.8,22.2,30.12,NE,45,7.0,10.0,51,0.00,,,0.00,336,MyOwnSoftware,2013-04-01 11:10:00,
2013-04-01 12:11:00,38.9,22.8,30.12,NNE,22,8.0,11.0,52,0.00,,,0.00,795,MyOwnSoftware,2013-04-01 11:11:00,
2013-04-01 12:12:00,39.1,23.4,30.12,North,0,6.0,12.0,53,0.00,,,0.00,741,MyOwnSoftware,2013-04-01 11:12:00,
2013-04-01 12:13:00,39.2,23.5,30.12,North,0,5.0,8.0,53,0.00,,,0.00,693,MyOwnSoftware,2013-04-01 11:13:00,
2013-04-01 12:14:00,39.5,23.0,30.12,ENE,64,5.0,-999.0,53,-99.99,,,0.00,663,weatherlink.com 1.10,2013-04-01 11:14:00,
2013-04-01 12:15:00,39.6,23.0,30.12,North,0,7.0,12.0,51,0.00,,,0.00,649,MyOwnSoftware,2013-04-01 11:15:00,
2013-04-01 12:16:00,39.8,22.7,30.12,ESE,112,4.0,8.0,50,0.00,,,0.00,646,MyOwnSoftware,2013-04-01 11:16:00,
2013-04-01 12:17:00,39.9,22.8,30.12,NE,45,5.0,11.0,50,0.00,,,0.00,646,MyOwnSoftware,2013-04-01 11:17:00,
2013-04-01 12:18:00,40.1,23.0,30.12,ENE,68,6.0,10.0,50,0.00,,,0.00,646,MyOwnSoftware,2013-04-01 11:18:00,
2013-04-01 12:19:00,40.2,22.6,30.12,NNE,22,6.0,8.0,49,0.00,,,0.00,646,MyOwnSoftware,2013-04-01 11:19:00,
2013-04-01 12:20:00,40.2,22.6,30.12,NNE,22,5.0,8.0,49,0.00,,,0.00,646,MyOwnSoftware,2013-04-01 11:20:00,
2013-04-01 12:21:00,40.3,22.7,30.12,North,0,6.0,14.0,49,0.00,,,0.00,646,MyOwnSoftware,2013-04-01 11:21:00,
2013-04-01 12:22:00,40.3,22.7,30.12,NNE,22,5.0,10.0,49,0.00,,,0.00,646,MyOwnSoftware,2013-04-01 11:22:00,
2013-04-01 12:23:00,40.3,22.7,30.12,NE,45,5.0,6.0,49,0.00,,,0.00,194,MyOwnSoftware,2013-04-01 11:23:00,
2013-04-01 12:24:00,40.3,23.2,30.12,North,0,4.0,8.0,50,0.00,,,0.00,190,MyOwnSoftware,2013-04-01 11:24:00,
2013-04-01 12:25:00,40.3,23.2,30.12,North,0,5.0,9.0,50,0.00,,,0.00,192,MyOwnSoftware,2013-04-01 11:25:00,
2013-04-01 12:26:00,40.2,23.1,30.12,North,0,3.0,6.0,50,0.00,,,0.00,198,MyOwnSoftware,2013-04-01 11:26:00,
2013-04-01 12:27:00,40.2,23.1,30.12,North,0,2.0,2.0,50,0.00,,,0.00,234,MyOwnSoftware,2013-04-01 11:27:00,
2013-04-01 12:28:00,40.2,23.1,30.12,North,0,2.0,5.0,50,0.00,,,0.00,202,MyOwnSoftware,2013-04-01 11:28:00,
2013-04-01 12:29:00,40.2,23.0,30.12,East,79,3.0,-999.0,50,-99.99,,,0.00,185,weatherlink.com 1.10,2013-04-01 11:29:00,
2013-04-01 12:30:00,40.2,23.1,30.12,East,90,6.0,12.0,50,0.00,,,0.00,181,MyOwnSoftware,2013-04-01 11:30:00,
2013-04-01 12:31:00,40.1,23.0,30.12,NE,45,7.0,13.0,50,0.00,,,0.00,186,MyOwnSoftware,2013-04-01 11:31:00,
2013-04-01 12:32:00,39.9,22.8,30.12,ENE,68,5.0,7.0,50,0.00,,,0.00,192,MyOwnSoftware,2013-04-01 11:32:00,
2013-04-01 12:33:00,39.8,23.2,30.12,North,0,4.0,8.0,51,0.00,,,0.00,199,MyOwnSoftware,2013-04-01 11:33:00,
2013-04-01 12:34:00,39.8,23.2,30.12,NNE,22,5.0,7.0,51,0.00,,,0.00,209,MyOwnSoftware,2013-04-01 11:34:00,
2013-04-01 12:35:00,39.6,22.5,30.12,NE,45,6.0,8.0,50,0.00,,,0.00,213,MyOwnSoftware,2013-04-01 11:35:00,
2013-04-01 12:36:00,39.6,22.5,30.12,East,90,6.0,7.0,50,0.00,,,0.00,213,MyOwnSoftware,2013-04-01 11:36:00,
2013-04-01 12:37:00,39.6,22.5,30.12,NE,45,5.0,7.0,50,0.00,,,0.00,213,MyOwnSoftware,2013-04-01 11:37:00,
2013-04-01 12:38:00,39.5,22.4,30.12,NE,45,5.0,7.0,50,0.00,,,0.00,230,MyOwnSoftware,2013-04-01 11:38:00,
2013-04-01 12:39:00,39.5,22.9,30.12,North,0,5.0,7.0,51,0.00,,,0.00,227,MyOwnSoftware,2013-04-01 11:39:00,
2013-04-01 12:40:00,39.5,22.4,30.12,North,0,5.0,6.0,50,0.00,,,0.00,220,MyOwnSoftware,2013-04-01 11:40:00,
2013-04-01 12:41:00,39.3,22.2,30.12,NNE,22,5.0,8.0,50,0.00,,,0.00,202,MyOwnSoftware,2013-04-01 11:41:00,
2013-04-01 12:42:00,39.3,22.7,30.12,NNE,22,4.0,7.0,51,0.00,,,0.00,178,MyOwnSoftware,2013-04-01 11:42:00,
2013-04-01 12:43:00,39.3,22.7,30.12,North,0,6.0,10.0,51,0.00,,,0.00,165,MyOwnSoftware,2013-04-01 11:43:00,
2013-04-01 12:44:00,39.2,23.0,30.13,North,10,5.0,-999.0,52,-99.99,,,0.00,183,weatherlink.com 1.10,2013-04-01 11:44:00,
2013-04-01 12:45:00,39.3,23.2,30.13,ENE,68,3.0,6.0,52,0.00,,,0.00,183,MyOwnSoftware,2013-04-01 11:45:00,
2013-04-01 12:46:00,39.3,23.2,30.13,NNE,22,3.0,6.0,52,0.00,,,0.00,672,MyOwnSoftware,2013-04-01 11:46:00,
2013-04-01 12:47:00,39.5,23.3,30.13,North,0,4.0,8.0,52,0.00,,,0.00,674,MyOwnSoftware,2013-04-01 11:47:00,
2013-04-01 12:48:00,39.6,22.5,30.13,NE,45,8.0,13.0,50,0.00,,,0.00,683,MyOwnSoftware,2013-04-01 11:48:00,
2013-04-01 12:49:00,39.8,22.7,30.13,NNE,22,8.0,12.0,50,0.00,,,0.00,691,MyOwnSoftware,2013-04-01 11:49:00,
2013-04-01 12:50:00,39.9,22.8,30.13,North,0,6.0,13.0,50,0.00,,,0.00,700,MyOwnSoftware,2013-04-01 11:50:00,
2013-04-01 12:51:00,40.1,23.0,30.13,North,0,5.0,8.0,50,0.00,,,0.00,707,MyOwnSoftware,2013-04-01 11:51:00,
2013-04-01 12:52:00,40.2,23.1,30.13,NNE,22,7.0,16.0,50,0.00,,,0.00,172,MyOwnSoftware,2013-04-01 11:52:00,
2013-04-01 12:53:00,40.2,22.6,30.13,North,0,7.0,13.0,49,0.00,,,0.00,181,MyOwnSoftware,2013-04-01 11:53:00,
2013-04-01 12:54:00,40.2,22.6,30.13,NE,45,6.0,11.0,49,0.00,,,0.00,181,MyOwnSoftware,2013-04-01 11:54:00,
2013-04-01 12:55:00,40.2,22.6,30.13,East,90,5.0,7.0,49,0.00,,,0.00,181,MyOwnSoftware,2013-04-01 11:55:00,
2013-04-01 12:56:00,40.1,22.5,30.13,NNE,22,4.0,7.0,49,0.00,,,0.00,227,MyOwnSoftware,2013-04-01 11:56:00,
2013-04-01 12:57:00,39.6,22.5,30.13,NE,45,8.0,13.0,50,0.00,,,0.00,683,MyOwnSoftware,2013-04-01 11:57:00,
2013-04-01 12:58:00,40.2,22.6,30.13,North,0,6.0,9.0,49,0.00,,,0.00,227,MyOwnSoftware,2013-04-01 11:58:00,
2013-04-01 12:59:00,40.2,23.1,30.13,NNE,22,5.0,8.0,50,0.00,,,0.00,227,MyOwnSoftware,2013-04-01 11:59:00,
2013-04-01 13:00:00,40.3,22.7,30.12,ENE,68,5.0,8.0,49,0.00,,,0.00,227,MyOwnSoftware,2013-04-01 12:00:00,
2013-04-01 13:01:00,40.3,22.7,30.12,ESE,112,3.0,7.0,49,0.00,,,0.00,227,MyOwnSoftware,2013-04-01 12:01:00,
2013-04-01 13:02:00,40.5,22.9,30.12,North,0,8.0,13.0,49,0.00,,,0.00,227,MyOwnSoftware,2013-04-01 12:02:00,
2013-04-01 13:03:00,40.3,22.7,30.12,ENE,68,5.0,8.0,49,0.00,,,0.00,227,MyOwnSoftware,2013-04-01 12:03:00,
2013-04-01 13:04:00,40.3,22.7,30.12,North,0,7.0,10.0,49,0.00,,,0.00,227,MyOwnSoftware,2013-04-01 12:04:00,
2013-04-01 13:05:00,40.3,23.2,30.12,SE,135,4.0,8.0,50,0.00,,,0.00,227,MyOwnSoftware,2013-04-01 12:05:00,
2013-04-01 13:06:00,40.5,23.3,30.12,NNE,22,6.0,11.0,50,0.00,,,0.00,792,MyOwnSoftware,2013-04-01 12:06:00,
2013-04-01 13:07:00,40.6,23.4,30.12,North,0,5.0,8.0,50,0.00,,,0.00,755,MyOwnSoftware,2013-04-01 12:07:00,
2013-04-01 13:08:00,40.8,23.6,30.12,NNE,22,4.0,6.0,50,0.00,,,0.00,757,MyOwnSoftware,2013-04-01 12:08:00,
2013-04-01 13:09:00,40.9,23.2,30.12,ESE,112,6.0,12.0,49,0.00,,,0.00,720,MyOwnSoftware,2013-04-01 12:09:00,
2013-04-01 13:10:00,41.1,22.9,30.12,North,0,5.0,11.0,48,0.00,,,0.00,702,MyOwnSoftware,2013-04-01 12:10:00,
2013-04-01 13:11:00,41.3,23.6,30.12,North,0,3.0,6.0,49,0.00,,,0.00,674,MyOwnSoftware,2013-04-01 12:11:00,
2013-04-01 13:12:00,41.5,22.8,30.12,East,90,5.0,11.0,47,0.00,,,0.00,660,MyOwnSoftware,2013-04-01 12:12:00,
2013-04-01 13:13:00,41.6,22.9,30.12,East,90,5.0,7.0,47,0.00,,,0.00,658,MyOwnSoftware,2013-04-01 12:13:00,
2013-04-01 13:14:00,41.6,23.0,30.12,North,10,8.0,-999.0,47,-99.99,,,0.00,672,weatherlink.com 1.10,2013-04-01 12:14:00,
2013-04-01 13:15:00,41.8,23.6,30.12,NNE,22,8.0,11.0,48,0.00,,,0.00,672,MyOwnSoftware,2013-04-01 12:15:00,
2013-04-01 13:16:00,41.8,23.6,30.12,North,0,6.0,11.0,48,0.00,,,0.00,672,MyOwnSoftware,2013-04-01 12:16:00,
2013-04-01 13:17:00,41.8,23.1,30.12,East,90,6.0,7.0,47,0.00,,,0.00,674,MyOwnSoftware,2013-04-01 12:17:00,
2013-04-01 13:18:00,41.6,22.4,30.12,East,90,8.0,13.0,46,0.00,,,0.00,686,MyOwnSoftware,2013-04-01 12:18:00,
2013-04-01 13:19:00,41.6,22.9,30.12,East,90,6.0,12.0,47,0.00,,,0.00,693,MyOwnSoftware,2013-04-01 12:19:00,
2013-04-01 13:20:00,41.6,22.9,30.12,North,0,3.0,7.0,47,0.00,,,0.00,695,MyOwnSoftware,2013-04-01 12:20:00,
2013-04-01 13:21:00,41.6,22.9,30.12,North,0,9.0,13.0,47,0.00,,,0.00,696,MyOwnSoftware,2013-04-01 12:21:00,
2013-04-01 13:22:00,41.6,22.9,30.12,North,0,8.0,14.0,47,0.00,,,0.00,688,MyOwnSoftware,2013-04-01 12:22:00,
2013-04-01 13:23:00,41.5,22.8,30.12,North,0,5.0,10.0,47,0.00,,,0.00,688,MyOwnSoftware,2013-04-01 12:23:00,
2013-04-01 13:24:00,41.5,22.3,30.12,North,0,3.0,5.0,46,0.00,,,0.00,688,MyOwnSoftware,2013-04-01 12:24:00,
2013-04-01 13:25:00,41.3,22.6,30.12,North,0,7.0,12.0,47,0.00,,,0.00,143,MyOwnSoftware,2013-04-01 12:25:00,
2013-04-01 13:26:00,41.2,23.0,30.12,North,0,6.0,7.0,48,0.00,,,0.00,155,MyOwnSoftware,2013-04-01 12:26:00,
2013-04-01 13:27:00,41.1,22.9,30.12,NE,45,7.0,10.0,48,0.00,,,0.00,167,MyOwnSoftware,2013-04-01 12:27:00,
2013-04-01 13:28:00,40.9,22.7,30.12,North,0,6.0,9.0,48,0.00,,,0.00,183,MyOwnSoftware,2013-04-01 12:28:00,
2013-04-01 13:29:00,40.8,23.0,30.12,ENE,64,1.0,-999.0,49,-99.99,,,0.00,204,weatherlink.com 1.10,2013-04-01 12:29:00,
2013-04-01 13:30:00,40.6,23.0,30.12,NE,45,2.0,4.0,49,0.00,,,0.00,204,MyOwnSoftware,2013-04-01 12:30:00,
2013-04-01 13:31:00,40.6,23.0,30.12,NE,45,4.0,7.0,49,0.00,,,0.00,198,MyOwnSoftware,2013-04-01 12:31:00,
2013-04-01 13:32:00,40.6,23.0,30.12,ENE,68,5.0,6.0,49,0.00,,,0.00,195,MyOwnSoftware,2013-04-01 12:32:00,
2013-04-01 13:33:00,40.5,22.9,30.12,North,0,6.0,8.0,49,0.00,,,0.00,195,MyOwnSoftware,2013-04-01 12:33:00,
2013-04-01 13:34:00,40.5,22.9,30.12,NNE,22,6.0,8.0,49,0.00,,,0.00,195,MyOwnSoftware,2013-04-01 12:34:00,
2013-04-01 13:35:00,40.5,22.9,30.12,NNE,22,7.0,11.0,49,0.00,,,0.00,195,MyOwnSoftware,2013-04-01 12:35:00,
2013-04-01 13:36:00,40.3,23.2,30.12,NE,45,5.0,8.0,50,0.00,,,0.00,195,MyOwnSoftware,2013-04-01 12:36:00,
2013-04-01 13:37:00,40.3,23.2,30.12,ENE,68,5.0,7.0,50,0.00,,,0.00,195,MyOwnSoftware,2013-04-01 12:37:00,
2013-04-01 13:38:00,40.8,22.6,30.12,NE,45,4.0,6.0,48,0.00,,,0.00,216,MyOwnSoftware,2013-04-01 12:38:00,
2013-04-01 13:39:00,40.2,23.1,30.12,North,0,4.0,5.0,50,0.00,,,0.00,252,MyOwnSoftware,2013-04-01 12:39:00,
2013-04-01 13:40:00,40.2,23.1,30.12,East,90,4.0,6.0,50,0.00,,,0.00,157,MyOwnSoftware,2013-04-01 12:40:00,
2013-04-01 13:41:00,40.2,23.1,30.12,East,90,4.0,5.0,50,0.00,,,0.00,153,MyOwnSoftware,2013-04-01 12:41:00,
2013-04-01 13:42:00,40.2,23.1,30.12,NE,45,5.0,7.0,50,0.00,,,0.00,143,MyOwnSoftware,2013-04-01 12:42:00,
2013-04-01 13:43:00,40.1,23.4,30.12,NE,45,5.0,8.0,51,0.00,,,0.00,146,MyOwnSoftware,2013-04-01 12:43:00,
2013-04-01 13:44:00,40.1,23.0,30.12,ESE,106,4.0,-999.0,51,-99.99,,,0.00,146,weatherlink.com 1.10,2013-04-01 12:44:00,
2013-04-01 13:45:00,40.1,23.4,30.12,North,0,4.0,6.0,51,0.00,,,0.00,146,MyOwnSoftware,2013-04-01 12:45:00,
2013-04-01 13:46:00,40.1,23.0,30.12,North,0,4.0,7.0,50,0.00,,,0.00,721,MyOwnSoftware,2013-04-01 12:46:00,
2013-04-01 13:47:00,40.2,23.1,30.12,ENE,68,5.0,8.0,50,0.00,,,0.00,721,MyOwnSoftware,2013-04-01 12:47:00,
2013-04-01 13:48:00,40.2,23.1,30.12,NE,45,4.0,8.0,50,0.00,,,0.00,721,MyOwnSoftware,2013-04-01 12:48:00,
2013-04-01 13:49:00,40.3,23.2,30.12,North,0,4.0,10.0,50,0.00,,,0.00,721,MyOwnSoftware,2013-04-01 12:49:00,
2013-04-01 13:50:00,40.5,23.3,30.12,NNE,22,6.0,10.0,50,0.00,,,0.00,721,MyOwnSoftware,2013-04-01 12:50:00,
2013-04-01 13:51:00,40.5,22.9,30.12,NNE,22,4.0,7.0,49,0.00,,,0.00,240,MyOwnSoftware,2013-04-01 12:51:00,
2013-04-01 13:52:00,40.5,22.9,30.12,NNE,22,6.0,8.0,49,0.00,,,0.00,215,MyOwnSoftware,2013-04-01 12:52:00,
2013-04-01 13:53:00,40.5,23.3,30.12,North,0,4.0,6.0,50,0.00,,,0.00,209,MyOwnSoftware,2013-04-01 12:53:00,
2013-04-01 13:54:00,40.5,23.3,30.12,North,0,5.0,8.0,50,0.00,,,0.00,209,MyOwnSoftware,2013-04-01 12:54:00,
2013-04-01 13:55:00,40.5,23.3,30.12,NE,45,6.0,7.0,50,0.00,,,0.00,209,MyOwnSoftware,2013-04-01 12:55:00,
2013-04-01 13:56:00,40.5,23.3,30.12,NE,45,4.0,7.0,50,0.00,,,0.00,209,MyOwnSoftware,2013-04-01 12:56:00,
2013-04-01 13:57:00,40.2,23.1,30.12,NE,45,4.0,8.0,50,0.00,,,0.00,721,MyOwnSoftware,2013-04-01 12:57:00,
2013-04-01 13:58:00,40.3,23.6,30.12,NNE,22,6.0,8.0,51,0.00,,,0.00,343,MyOwnSoftware,2013-04-01 12:58:00,
2013-04-01 13:59:00,40.3,23.6,30.12,ENE,68,3.0,6.0,51,0.00,,,0.00,343,MyOwnSoftware,2013-04-01 12:59:00,
2013-04-01 14:00:00,40.3,24.1,30.12,ENE,68,5.0,7.0,52,0.00,,,0.00,260,MyOwnSoftware,2013-04-01 13:00:00,
2013-04-01 14:01:00,40.5,24.3,30.12,NNE,22,5.0,12.0,52,0.00,,,0.00,259,MyOwnSoftware,2013-04-01 13:01:00,
2013-04-01 14:02:00,40.5,23.8,30.12,North,0,5.0,11.0,51,0.00,,,0.00,259,MyOwnSoftware,2013-04-01 13:02:00,
2013-04-01 14:03:00,40.5,23.8,30.12,North,0,7.0,10.0,51,0.00,,,0.00,259,MyOwnSoftware,2013-04-01 13:03:00,
2013-04-01 14:04:00,40.5,23.8,30.12,North,0,6.0,10.0,51,0.00,,,0.00,259,MyOwnSoftware,2013-04-01 13:04:00,
2013-04-01 14:05:00,40.5,23.3,30.12,NE,45,7.0,12.0,50,0.00,,,0.00,227,MyOwnSoftware,2013-04-01 13:05:00,
2013-04-01 14:06:00,40.5,23.3,30.12,North,0,7.0,13.0,50,0.00,,,0.00,210,MyOwnSoftware,2013-04-01 13:06:00,
2013-04-01 14:07:00,40.5,23.8,30.12,North,0,6.0,11.0,51,0.00,,,0.00,209,MyOwnSoftware,2013-04-01 13:07:00,
2013-04-01 14:08:00,40.3,23.2,30.12,NNE,22,8.0,11.0,50,0.00,,,0.00,213,MyOwnSoftware,2013-04-01 13:08:00,
2013-04-01 14:09:00,40.2,23.1,30.12,North,0,6.0,10.0,50,0.00,,,0.00,213,MyOwnSoftware,2013-04-01 13:09:00,
2013-04-01 14:10:00,40.2,23.5,30.12,NNE,22,5.0,6.0,51,0.00,,,0.00,209,MyOwnSoftware,2013-04-01 13:10:00,
2013-04-01 14:11:00,40.2,24.0,30.12,NE,45,6.0,10.0,52,0.00,,,0.00,230,MyOwnSoftware,2013-04-01 13:11:00,
2013-04-01 14:12:00,40.2,24.5,30.12,North,0,7.0,11.0,53,0.00,,,0.00,232,MyOwnSoftware,2013-04-01 13:12:00,
2013-04-01 14:13:00,40.1,23.4,30.12,North,0,9.0,16.0,51,0.00,,,0.00,232,MyOwnSoftware,2013-04-01 13:13:00,
2013-04-01 14:14:00,39.9,23.0,30.12,North,6,6.0,-999.0,52,-99.99,,,0.00,220,weatherlink.com 1.10,2013-04-01 13:14:00,
2013-04-01 14:15:00,39.9,23.7,30.12,North,0,6.0,10.0,52,0.00,,,0.00,220,MyOwnSoftware,2013-04-01 13:15:00,
2013-04-01 14:16:00,39.9,23.7,30.12,ESE,112,5.0,10.0,52,0.00,,,0.00,224,MyOwnSoftware,2013-04-01 13:16:00,
2013-04-01 14:17:00,39.9,23.7,30.12,NNE,22,7.0,11.0,52,0.00,,,0.00,236,MyOwnSoftware,2013-04-01 13:17:00,
2013-04-01 14:18:00,39.9,23.7,30.12,NNE,22,6.0,8.0,52,0.00,,,0.00,232,MyOwnSoftware,2013-04-01 13:18:00,
2013-04-01 14:19:00,39.9,23.3,30.12,NE,45,9.0,17.0,51,0.00,,,0.00,243,MyOwnSoftware,2013-04-01 13:19:00,
2013-04-01 14:20:00,39.9,23.3,30.12,North,0,8.0,12.0,51,0.00,,,0.00,243,MyOwnSoftware,2013-04-01 13:20:00,
2013-04-01 14:21:00,39.9,23.3,30.12,NNE,22,6.0,9.0,51,0.00,,,0.00,201,MyOwnSoftware,2013-04-01 13:21:00,
2013-04-01 14:22:00,39.9,23.3,30.12,NE,45,5.0,8.0,51,0.00,,,0.00,187,MyOwnSoftware,2013-04-01 13:22:00,
2013-04-01 14:23:00,39.9,23.7,30.12,NE,45,6.0,10.0,52,0.00,,,0.00,181,MyOwnSoftware,2013-04-01 13:23:00,
2013-04-01 14:24:00,39.9,23.3,30.12,North,0,6.0,10.0,51,0.00,,,0.00,181,MyOwnSoftware,2013-04-01 13:24:00,
2013-04-01 14:25:00,39.9,23.3,30.12,NNE,22,7.0,12.0,51,0.00,,,0.00,181,MyOwnSoftware,2013-04-01 13:25:00,
2013-04-01 14:26:00,39.9,23.3,30.12,North,0,5.0,8.0,51,0.00,,,0.00,232,MyOwnSoftware,2013-04-01 13:26:00,
2013-04-01 14:27:00,40.1,23.4,30.12,ENE,68,5.0,6.0,51,0.00,,,0.00,248,MyOwnSoftware,2013-04-01 13:27:00,
2013-04-01 14:28:00,40.1,23.4,30.12,NNE,22,5.0,8.0,51,0.00,,,0.00,264,MyOwnSoftware,2013-04-01 13:28:00,
2013-04-01 14:29:00,40.1,23.4,30.12,NE,45,5.0,7.0,51,0.00,,,0.00,259,MyOwnSoftware,2013-04-01 13:29:00,
2013-04-01 14:30:00,40.1,24.0,30.12,ENE,61,6.0,-999.0,52,-99.99,,,0.00,241,weatherlink.com 1.10,2013-04-01 13:30:00,
2013-04-01 14:31:00,40.2,23.5,30.12,ENE,68,5.0,7.0,51,0.00,,,0.00,234,MyOwnSoftware,2013-04-01 13:31:00,
2013-04-01 14:32:00,40.2,23.5,30.12,ENE,68,5.0,9.0,51,0.00,,,0.00,229,MyOwnSoftware,2013-04-01 13:32:00,
2013-04-01 14:33:00,40.2,23.5,30.12,NE,45,5.0,8.0,51,0.00,,,0.00,216,MyOwnSoftware,2013-04-01 13:33:00,
2013-04-01 14:34:00,40.2,23.5,30.12,NE,45,4.0,6.0,51,0.00,,,0.00,216,MyOwnSoftware,2013-04-01 13:34:00,
2013-04-01 14:35:00,40.2,24.0,30.12,NE,45,3.0,5.0,52,0.00,,,0.00,230,MyOwnSoftware,2013-04-01 13:35:00,
2013-04-01 14:36:00,40.3,24.1,30.12,North,0,5.0,8.0,52,0.00,,,0.00,262,MyOwnSoftware,2013-04-01 13:36:00,
2013-04-01 14:37:00,40.3,24.1,30.12,North,0,5.0,8.0,52,0.00,,,0.00,262,MyOwnSoftware,2013-04-01 13:37:00,
2013-04-01 14:38:00,40.1,23.4,30.12,NE,45,5.0,7.0,51,0.00,,,0.00,259,MyOwnSoftware,2013-04-01 13:38:00,
2013-04-01 14:39:00,40.5,23.8,30.12,North,0,5.0,11.0,51,0.00,,,0.00,271,MyOwnSoftware,2013-04-01 13:39:00,
2013-04-01 14:40:00,40.5,24.3,30.12,North,0,7.0,10.0,52,0.00,,,0.00,271,MyOwnSoftware,2013-04-01 13:40:00,
2013-04-01 14:41:00,40.6,24.4,30.12,North,0,7.0,10.0,52,0.00,,,0.00,394,MyOwnSoftware,2013-04-01 13:41:00,
2013-04-01 14:42:00,40.5,24.3,30.12,North,0,7.0,11.0,52,0.00,,,0.00,683,MyOwnSoftware,2013-04-01 13:42:00,
2013-04-01 14:43:00,40.5,24.3,30.12,North,0,6.0,8.0,52,0.00,,,0.00,653,MyOwnSoftware,2013-04-01 13:43:00,
2013-04-01 14:44:00,40.5,24.7,30.12,NE,45,5.0,7.0,53,0.00,,,0.00,630,MyOwnSoftware,2013-04-01 13:44:00,
2013-04-01 14:45:00,40.5,24.0,30.12,NNE,16,7.0,-999.0,53,-99.99,,,0.00,623,weatherlink.com 1.10,2013-04-01 13:45:00,
2013-04-01 14:46:00,40.6,24.4,30.12,ESE,112,5.0,7.0,52,0.00,,,0.00,647,MyOwnSoftware,2013-04-01 13:46:00,
2013-04-01 14:47:00,40.8,24.6,30.12,NE,45,4.0,6.0,52,0.00,,,0.00,704,MyOwnSoftware,2013-04-01 13:47:00,
2013-04-01 14:48:00,41.1,23.9,30.12,NE,45,6.0,8.0,50,0.00,,,0.00,704,MyOwnSoftware,2013-04-01 13:48:00,
2013-04-01 14:49:00,41.2,24.0,30.12,North,0,9.0,12.0,50,0.00,,,0.00,704,MyOwnSoftware,2013-04-01 13:49:00,
2013-04-01 14:50:00,41.2,24.0,30.12,East,90,7.0,10.0,50,0.00,,,0.00,751,MyOwnSoftware,2013-04-01 13:50:00,
2013-04-01 14:51:00,41.2,23.5,30.12,NNE,22,7.0,10.0,49,0.00,,,0.00,660,MyOwnSoftware,2013-04-01 13:51:00,
2013-04-01 14:52:00,41.2,24.0,30.12,NE,45,5.0,7.0,50,0.00,,,0.00,660,MyOwnSoftware,2013-04-01 13:52:00,
2013-04-01 14:53:00,41.1,23.9,30.12,North,0,7.0,11.0,50,0.00,,,0.00,757,MyOwnSoftware,2013-04-01 13:53:00,
2013-04-01 14:54:00,41.1,23.9,30.12,NNE,22,6.0,11.0,50,0.00,,,0.00,757,MyOwnSoftware,2013-04-01 13:54:00,
2013-04-01 14:55:00,41.2,24.0,30.12,NNE,22,6.0,8.0,50,0.00,,,0.00,757,MyOwnSoftware,2013-04-01 13:55:00,
2013-04-01 14:56:00,41.2,24.5,30.12,North,0,6.0,10.0,51,0.00,,,0.00,650,MyOwnSoftware,2013-04-01 13:56:00,
2013-04-01 14:57:00,41.2,24.5,30.12,North,0,5.0,10.0,51,0.00,,,0.00,653,MyOwnSoftware,2013-04-01 13:57:00,
2013-04-01 14:58:00,41.2,24.0,30.12,North,0,9.0,12.0,50,0.00,,,0.00,704,MyOwnSoftware,2013-04-01 13:58:00,
2013-04-01 14:59:00,41.3,24.1,30.12,North,0,4.0,7.0,50,0.00,,,0.00,611,MyOwnSoftware,2013-04-01 13:59:00,
2013-04-01 15:00:00,41.3,23.6,30.12,NE,45,8.0,14.0,49,0.00,,,0.00,637,MyOwnSoftware,2013-04-01 14:00:00,
2013-04-01 15:01:00,41.3,23.1,30.12,North,0,9.0,17.0,48,0.00,,,0.00,637,MyOwnSoftware,2013-04-01 14:01:00,
2013-04-01 15:02:00,41.2,23.0,30.12,North,0,6.0,11.0,48,0.00,,,0.00,106,MyOwnSoftware,2013-04-01 14:02:00,
2013-04-01 15:03:00,41.2,23.5,30.12,ESE,112,6.0,9.0,49,0.00,,,0.00,106,MyOwnSoftware,2013-04-01 14:03:00,
2013-04-01 15:04:00,41.2,23.5,30.12,ENE,68,6.0,11.0,49,0.00,,,0.00,106,MyOwnSoftware,2013-04-01 14:04:00,
2013-04-01 15:05:00,41.2,23.5,30.12,North,0,5.0,7.0,49,0.00,,,0.00,593,MyOwnSoftware,2013-04-01 14:05:00,
2013-04-01 15:06:00,41.2,23.0,30.12,NE,45,5.0,6.0,48,0.00,,,0.00,593,MyOwnSoftware,2013-04-01 14:06:00,
2013-04-01 15:07:00,41.2,23.5,30.12,North,0,4.0,6.0,49,0.00,,,0.00,593,MyOwnSoftware,2013-04-01 14:07:00,
2013-04-01 15:08:00,41.2,23.0,30.12,ENE,68,4.0,6.0,48,0.00,,,0.00,329,MyOwnSoftware,2013-04-01 14:08:00,
2013-04-01 15:09:00,41.2,23.0,30.12,ENE,68,7.0,11.0,48,0.00,,,0.00,329,MyOwnSoftware,2013-04-01 14:09:00,
2013-04-01 15:10:00,41.2,23.0,30.12,NNE,22,6.0,10.0,48,0.00,,,0.00,329,MyOwnSoftware,2013-04-01 14:10:00,
2013-04-01 15:11:00,41.2,23.0,30.12,North,0,5.0,8.0,48,0.00,,,0.00,329,MyOwnSoftware,2013-04-01 14:11:00,
2013-04-01 15:12:00,41.1,23.4,30.12,North,0,7.0,14.0,49,0.00,,,0.00,329,MyOwnSoftware,2013-04-01 14:12:00,
2013-04-01 15:13:00,41.1,23.4,30.12,NE,45,8.0,12.0,49,0.00,,,0.00,183,MyOwnSoftware,2013-04-01 14:13:00,
2013-04-01 15:14:00,40.9,23.2,30.12,North,0,7.0,12.0,49,0.00,,,0.00,183,MyOwnSoftware,2013-04-01 14:14:00,
2013-04-01 15:15:00,40.9,23.0,30.12,North,7,3.0,-999.0,49,-99.99,,,0.00,183,weatherlink.com 1.10,2013-04-01 14:15:00,
2013-04-01 15:16:00,40.9,23.2,30.12,North,0,6.0,8.0,49,0.00,,,0.00,554,MyOwnSoftware,2013-04-01 14:16:00,
2013-04-01 15:17:00,40.9,23.2,30.12,NNE,22,6.0,10.0,49,0.00,,,0.00,542,MyOwnSoftware,2013-04-01 14:17:00,
2013-04-01 15:18:00,40.9,23.2,30.12,ESE,112,6.0,10.0,49,0.00,,,0.00,538,MyOwnSoftware,2013-04-01 14:18:00,
2013-04-01 15:19:00,41.1,23.4,30.12,North,0,3.0,3.0,49,0.00,,,0.00,531,MyOwnSoftware,2013-04-01 14:19:00,
2013-04-01 15:20:00,41.1,23.4,30.12,NE,45,6.0,11.0,49,0.00,,,0.00,530,MyOwnSoftware,2013-04-01 14:20:00,
2013-04-01 15:21:00,41.1,23.4,30.12,NNE,22,5.0,8.0,49,0.00,,,0.00,526,MyOwnSoftware,2013-04-01 14:21:00,
2013-04-01 15:22:00,41.1,22.9,30.12,NNE,22,4.0,7.0,48,0.00,,,0.00,526,MyOwnSoftware,2013-04-01 14:22:00,
2013-04-01 15:23:00,41.1,23.4,30.12,North,0,5.0,8.0,49,0.00,,,0.00,528,MyOwnSoftware,2013-04-01 14:23:00,
2013-04-01 15:24:00,41.2,23.5,30.12,NNE,22,4.0,6.0,49,0.00,,,0.00,531,MyOwnSoftware,2013-04-01 14:24:00,
2013-04-01 15:25:00,41.3,23.6,30.12,North,0,7.0,13.0,49,0.00,,,0.00,531,MyOwnSoftware,2013-04-01 14:25:00,
2013-04-01 15:26:00,41.3,23.1,30.12,North,0,8.0,13.0,48,0.00,,,0.00,545,MyOwnSoftware,2013-04-01 14:26:00,
2013-04-01 15:27:00,41.3,23.1,30.12,North,0,7.0,12.0,48,0.00,,,0.00,545,MyOwnSoftware,2013-04-01 14:27:00,
2013-04-01 15:28:00,41.3,23.1,30.12,North,0,6.0,11.0,48,0.00,,,0.00,574,MyOwnSoftware,2013-04-01 14:28:00,
2013-04-01 15:29:00,41.3,23.6,30.12,North,0,7.0,11.0,49,0.00,,,0.00,588,MyOwnSoftware,2013-04-01 14:29:00,
2013-04-01 15:30:00,41.5,23.0,30.12,NNE,16,10.0,-999.0,48,-99.99,,,0.00,588,weatherlink.com 1.10,2013-04-01 14:30:00,
2013-04-01 15:31:00,41.6,23.4,30.12,NE,45,7.0,16.0,48,0.00,,,0.00,588,MyOwnSoftware,2013-04-01 14:31:00,
2013-04-01 15:32:00,41.5,23.3,30.12,NNE,22,9.0,13.0,48,0.00,,,0.00,591,MyOwnSoftware,2013-04-01 14:32:00,
2013-04-01 15:33:00,41.5,23.3,30.12,North,0,7.0,12.0,48,0.00,,,0.00,604,MyOwnSoftware,2013-04-01 14:33:00,
2013-04-01 15:34:00,41.5,23.3,30.12,NNE,22,7.0,12.0,48,0.00,,,0.00,632,MyOwnSoftware,2013-04-01 14:34:00,
2013-04-01 15:35:00,41.5,24.3,30.12,North,0,9.0,13.0,50,0.00,,,0.00,656,MyOwnSoftware,2013-04-01 14:35:00,
2013-04-01 15:36:00,41.3,24.1,30.12,NE,45,7.0,10.0,50,0.00,,,0.00,656,MyOwnSoftware,2013-04-01 14:36:00,
2013-04-01 15:37:00,41.3,24.1,30.12,North,0,8.0,12.0,50,0.00,,,0.00,656,MyOwnSoftware,2013-04-01 14:37:00,
2013-04-01 15:38:00,41.3,23.6,30.12,North,0,7.0,11.0,49,0.00,,,0.00,588,MyOwnSoftware,2013-04-01 14:38:00,
2013-04-01 15:39:00,41.2,24.5,30.12,NE,45,5.0,7.0,51,0.00,,,0.00,278,MyOwnSoftware,2013-04-01 14:39:00,
2013-04-01 15:40:00,41.2,24.5,30.12,North,0,7.0,11.0,51,0.00,,,0.00,278,MyOwnSoftware,2013-04-01 14:40:00,
2013-04-01 15:41:00,41.2,24.5,30.12,NE,45,6.0,8.0,51,0.00,,,0.00,176,MyOwnSoftware,2013-04-01 14:41:00,
2013-04-01 15:42:00,41.1,24.4,30.12,North,0,6.0,11.0,51,0.00,,,0.00,148,MyOwnSoftware,2013-04-01 14:42:00,
2013-04-01 15:43:00,41.1,24.4,30.12,NE,45,8.0,11.0,51,0.00,,,0.00,130,MyOwnSoftware,2013-04-01 14:43:00,
2013-04-01 15:44:00,40.9,24.6,30.12,NNE,22,7.0,11.0,52,0.00,,,0.00,127,MyOwnSoftware,2013-04-01 14:44:00,
2013-04-01 15:45:00,40.8,25.0,30.11,NW,325,6.0,-999.0,54,-99.99,,,0.00,127,weatherlink.com 1.10,2013-04-01 14:45:00,
2013-04-01 15:46:00,40.8,25.5,30.11,North,0,5.0,7.0,54,0.00,,,0.00,127,MyOwnSoftware,2013-04-01 14:46:00,
2013-04-01 15:47:00,40.6,25.7,30.11,North,0,6.0,10.0,55,0.00,,,0.00,127,MyOwnSoftware,2013-04-01 14:47:00,
2013-04-01 15:48:00,40.6,25.7,30.11,NE,45,6.0,8.0,55,0.00,,,0.00,127,MyOwnSoftware,2013-04-01 14:48:00,
2013-04-01 15:49:00,40.6,25.7,30.11,NNE,22,6.0,12.0,55,0.00,,,0.00,127,MyOwnSoftware,2013-04-01 14:49:00,
2013-04-01 15:50:00,40.6,25.7,30.11,NNE,22,8.0,11.0,55,0.00,,,0.00,127,MyOwnSoftware,2013-04-01 14:50:00,
2013-04-01 15:51:00,40.6,24.8,30.11,NE,45,8.0,16.0,53,0.00,,,0.00,127,MyOwnSoftware,2013-04-01 14:51:00,
2013-04-01 15:52:00,40.6,24.8,30.11,NE,45,6.0,10.0,53,0.00,,,0.00,127,MyOwnSoftware,2013-04-01 14:52:00,
2013-04-01 15:53:00,40.6,24.8,30.11,North,0,6.0,10.0,53,0.00,,,0.00,127,MyOwnSoftware,2013-04-01 14:53:00,
2013-04-01 15:54:00,40.8,25.0,30.11,North,0,6.0,10.0,53,0.00,,,0.00,127,MyOwnSoftware,2013-04-01 14:54:00,
2013-04-01 15:55:00,40.8,24.1,30.11,NE,45,5.0,8.0,51,0.00,,,0.00,127,MyOwnSoftware,2013-04-01 14:55:00,
2013-04-01 15:56:00,40.6,25.7,30.11,North,0,6.0,10.0,55,0.00,,,0.00,127,MyOwnSoftware,2013-04-01 14:56:00,
2013-04-01 15:57:00,40.9,24.2,30.11,NNE,22,7.0,10.0,51,0.00,,,0.00,625,MyOwnSoftware,2013-04-01 14:57:00,
2013-04-01 15:58:00,40.9,24.6,30.11,North,0,8.0,14.0,52,0.00,,,0.00,625,MyOwnSoftware,2013-04-01 14:58:00,
2013-04-01 15:59:00,40.9,25.6,30.11,North,0,8.0,11.0,54,0.00,,,0.00,625,MyOwnSoftware,2013-04-01 14:59:00,
2013-04-01 16:00:00,40.9,26.0,30.11,NNE,22,8.0,12.0,55,0.00,,,0.00,625,MyOwnSoftware,2013-04-01 15:00:00,
2013-04-01 16:01:00,40.8,25.9,30.11,NE,45,7.0,11.0,55,0.00,,,0.00,625,MyOwnSoftware,2013-04-01 15:01:00,
2013-04-01 16:02:00,40.8,25.9,30.11,North,0,5.0,7.0,55,0.00,,,0.00,164,MyOwnSoftware,2013-04-01 15:02:00,
2013-04-01 16:03:00,40.8,25.9,30.11,NNE,22,6.0,8.0,55,0.00,,,0.00,162,MyOwnSoftware,2013-04-01 15:03:00,
2013-04-01 16:04:00,40.8,25.9,30.11,ENE,68,5.0,8.0,55,0.00,,,0.00,162,MyOwnSoftware,2013-04-01 15:04:00,
2013-04-01 16:05:00,40.8,25.9,30.11,North,0,5.0,10.0,55,0.00,,,0.00,162,MyOwnSoftware,2013-04-01 15:05:00,
2013-04-01 16:06:00,40.8,25.9,30.11,North,0,5.0,8.0,55,0.00,,,0.00,177,MyOwnSoftware,2013-04-01 15:06:00,
2013-04-01 16:07:00,40.8,25.5,30.11,North,0,7.0,11.0,54,0.00,,,0.00,202,MyOwnSoftware,2013-04-01 15:07:00,
2013-04-01 16:08:00,40.8,25.5,30.11,North,0,9.0,12.0,54,0.00,,,0.00,232,MyOwnSoftware,2013-04-01 15:08:00,
2013-04-01 16:09:00,40.8,25.5,30.11,North,0,8.0,14.0,54,0.00,,,0.00,232,MyOwnSoftware,2013-04-01 15:09:00,
2013-04-01 16:10:00,40.6,25.3,30.11,NE,45,7.0,8.0,54,0.00,,,0.00,167,MyOwnSoftware,2013-04-01 15:10:00,
2013-04-01 16:11:00,40.5,26.1,30.11,North,0,7.0,11.0,56,0.00,,,0.00,136,MyOwnSoftware,2013-04-01 15:11:00,
2013-04-01 16:12:00,40.5,26.5,30.11,NNE,22,7.0,11.0,57,0.00,,,0.00,111,MyOwnSoftware,2013-04-01 15:12:00,
2013-04-01 16:13:00,40.3,26.3,30.11,NE,45,6.0,9.0,57,0.00,,,0.00,106,MyOwnSoftware,2013-04-01 15:13:00,
2013-04-01 16:14:00,40.3,26.3,30.11,North,0,7.0,11.0,57,0.00,,,0.00,99,MyOwnSoftware,2013-04-01 15:14:00,
2013-04-01 16:15:00,40.2,26.0,30.12,North,0,2.0,-999.0,58,-99.99,,,0.00,102,weatherlink.com 1.10,2013-04-01 15:15:00,
2013-04-01 16:16:00,40.2,26.6,30.12,North,0,6.0,11.0,58,0.00,,,0.00,139,MyOwnSoftware,2013-04-01 15:16:00,
2013-04-01 16:17:00,40.2,26.6,30.12,NE,45,7.0,8.0,58,0.00,,,0.00,158,MyOwnSoftware,2013-04-01 15:17:00,
2013-04-01 16:18:00,40.1,26.9,30.12,North,0,6.0,8.0,59,0.00,,,0.00,174,MyOwnSoftware,2013-04-01 15:18:00,
2013-04-01 16:19:00,40.1,26.9,30.12,North,0,7.0,10.0,59,0.00,,,0.00,192,MyOwnSoftware,2013-04-01 15:19:00,
2013-04-01 16:20:00,40.2,26.6,30.12,North,0,8.0,13.0,58,0.00,,,0.00,209,MyOwnSoftware,2013-04-01 15:20:00,
2013-04-01 16:21:00,40.2,26.6,30.12,North,0,5.0,7.0,58,0.00,,,0.00,223,MyOwnSoftware,2013-04-01 15:21:00,
2013-04-01 16:22:00,40.2,26.6,30.12,North,0,5.0,8.0,58,0.00,,,0.00,223,MyOwnSoftware,2013-04-01 15:22:00,
2013-04-01 16:23:00,40.3,26.7,30.12,NE,45,8.0,11.0,58,0.00,,,0.00,206,MyOwnSoftware,2013-04-01 15:23:00,
2013-04-01 16:24:00,40.3,26.7,30.12,NNE,22,8.0,11.0,58,0.00,,,0.00,236,MyOwnSoftware,2013-04-01 15:24:00,
2013-04-01 16:25:00,40.2,27.0,30.12,NNE,22,8.0,12.0,59,0.00,,,0.00,213,MyOwnSoftware,2013-04-01 15:25:00,
2013-04-01 16:26:00,40.1,27.3,30.12,NNE,22,6.0,12.0,60,0.00,,,0.00,207,MyOwnSoftware,2013-04-01 15:26:00,
2013-04-01 16:27:00,40.1,26.9,30.12,North,0,7.0,10.0,59,0.00,,,0.00,202,MyOwnSoftware,2013-04-01 15:27:00,
2013-04-01 16:28:00,40.2,27.0,30.12,North,0,6.0,7.0,59,0.00,,,0.00,202,MyOwnSoftware,2013-04-01 15:28:00,
2013-04-01 16:29:00,40.2,27.0,30.12,North,0,8.0,12.0,59,0.00,,,0.00,204,MyOwnSoftware,2013-04-01 15:29:00,
2013-04-01 16:30:00,40.2,26.0,30.11,NNE,32,7.0,-999.0,58,-99.99,,,0.00,199,weatherlink.com 1.10,2013-04-01 15:30:00,
2013-04-01 16:31:00,40.2,26.6,30.11,NNE,22,6.0,13.0,58,0.00,,,0.00,199,MyOwnSoftware,2013-04-01 15:31:00,
2013-04-01 16:32:00,40.2,26.2,30.11,NNE,22,7.0,12.0,57,0.00,,,0.00,199,MyOwnSoftware,2013-04-01 15:32:00,
2013-04-01 16:33:00,40.2,26.2,30.11,North,0,6.0,10.0,57,0.00,,,0.00,201,MyOwnSoftware,2013-04-01 15:33:00,
2013-04-01 16:34:00,40.3,26.3,30.11,NNE,22,7.0,9.0,57,0.00,,,0.00,202,MyOwnSoftware,2013-04-01 15:34:00,
2013-04-01 16:35:00,40.3,25.9,30.11,North,0,7.0,11.0,56,0.00,,,0.00,197,MyOwnSoftware,2013-04-01 15:35:00,
2013-04-01 16:36:00,40.3,25.9,30.11,North,0,7.0,11.0,56,0.00,,,0.00,183,MyOwnSoftware,2013-04-01 15:36:00,
2013-04-01 16:37:00,40.3,26.3,30.11,North,0,8.0,12.0,57,0.00,,,0.00,176,MyOwnSoftware,2013-04-01 15:37:00,
2013-04-01 16:38:00,40.3,26.3,30.11,NNE,22,8.0,13.0,57,0.00,,,0.00,174,MyOwnSoftware,2013-04-01 15:38:00,
2013-04-01 16:39:00,40.3,26.3,30.11,North,0,9.0,14.0,57,0.00,,,0.00,176,MyOwnSoftware,2013-04-01 15:39:00,
2013-04-01 16:40:00,40.2,26.6,30.11,North,0,7.0,11.0,58,0.00,,,0.00,178,MyOwnSoftware,2013-04-01 15:40:00,
2013-04-01 16:41:00,40.2,26.6,30.11,North,0,8.0,12.0,58,0.00,,,0.00,176,MyOwnSoftware,2013-04-01 15:41:00,
2013-04-01 16:42:00,40.2,26.2,30.11,NE,45,8.0,13.0,57,0.00,,,0.00,174,MyOwnSoftware,2013-04-01 15:42:00,
2013-04-01 16:43:00,40.2,26.2,30.11,NE,45,9.0,12.0,57,0.00,,,0.00,174,MyOwnSoftware,2013-04-01 15:43:00,
2013-04-01 16:44:00,40.2,26.6,30.11,North,0,7.0,10.0,58,0.00,,,0.00,176,MyOwnSoftware,2013-04-01 15:44:00,
2013-04-01 16:45:00,40.2,26.6,30.11,NNW,338,6.0,10.0,58,0.00,,,0.00,171,MyOwnSoftware,2013-04-01 15:45:00,
2013-04-01 16:46:00,40.2,26.0,30.11,NNE,28,5.0,-999.0,58,-99.99,,,0.00,174,weatherlink.com 1.10,2013-04-01 15:46:00,
2013-04-01 16:47:00,40.2,26.2,30.11,North,0,8.0,12.0,57,0.00,,,0.00,179,MyOwnSoftware,2013-04-01 15:47:00,
2013-04-01 16:48:00,40.2,26.2,30.11,NE,45,8.0,14.0,57,0.00,,,0.00,194,MyOwnSoftware,2013-04-01 15:48:00,
2013-04-01 16:49:00,40.2,26.2,30.11,North,0,8.0,12.0,57,0.00,,,0.00,171,MyOwnSoftware,2013-04-01 15:49:00,
2013-04-01 16:50:00,40.1,26.5,30.11,North,0,9.0,16.0,58,0.00,,,0.00,171,MyOwnSoftware,2013-04-01 15:50:00,
2013-04-01 16:51:00,40.1,26.9,30.11,North,0,8.0,11.0,59,0.00,,,0.00,166,MyOwnSoftware,2013-04-01 15:51:00,
2013-04-01 16:52:00,40.1,26.9,30.11,North,0,5.0,10.0,59,0.00,,,0.00,160,MyOwnSoftware,2013-04-01 15:52:00,
2013-04-01 16:53:00,40.1,26.9,30.11,North,0,8.0,12.0,59,0.00,,,0.00,162,MyOwnSoftware,2013-04-01 15:53:00,
2013-04-01 16:54:00,40.1,26.5,30.11,NE,45,6.0,8.0,58,0.00,,,0.00,165,MyOwnSoftware,2013-04-01 15:54:00,
2013-04-01 16:55:00,40.1,26.9,30.11,North,0,6.0,9.0,59,0.00,,,0.00,171,MyOwnSoftware,2013-04-01 15:55:00,
2013-04-01 16:56:00,40.1,26.9,30.11,North,0,7.0,12.0,59,0.00,,,0.00,174,MyOwnSoftware,2013-04-01 15:56:00,
2013-04-01 16:57:00,40.2,26.2,30.11,NE,45,8.0,14.0,57,0.00,,,0.00,194,MyOwnSoftware,2013-04-01 15:57:00,
2013-04-01 16:58:00,40.1,26.5,30.11,NNE,22,9.0,13.0,58,0.00,,,0.00,183,MyOwnSoftware,2013-04-01 15:58:00,
2013-04-01 16:59:00,40.1,26.5,30.11,NNE,22,8.0,12.0,58,0.00,,,0.00,150,MyOwnSoftware,2013-04-01 15:59:00,
2013-04-01 17:00:00,40.1,26.9,30.11,North,0,6.0,10.0,59,0.00,,,0.00,151,MyOwnSoftware,2013-04-01 16:00:00,
2013-04-01 17:01:00,40.1,26.9,30.11,North,0,5.0,12.0,59,0.00,,,0.00,145,MyOwnSoftware,2013-04-01 16:01:00,
2013-04-01 17:02:00,39.9,25.9,30.11,NE,45,8.0,12.0,57,0.00,,,0.00,151,MyOwnSoftware,2013-04-01 16:02:00,
2013-04-01 17:03:00,39.9,26.3,30.11,NE,45,8.0,11.0,58,0.00,,,0.00,165,MyOwnSoftware,2013-04-01 16:03:00,
2013-04-01 17:04:00,39.9,26.3,30.11,NE,45,9.0,11.0,58,0.00,,,0.00,169,MyOwnSoftware,2013-04-01 16:04:00,
2013-04-01 17:05:00,39.9,26.7,30.11,NNE,22,8.0,13.0,59,0.00,,,0.00,162,MyOwnSoftware,2013-04-01 16:05:00,
2013-04-01 17:06:00,39.9,26.7,30.11,North,0,8.0,12.0,59,0.00,,,0.00,156,MyOwnSoftware,2013-04-01 16:06:00,
2013-04-01 17:07:00,39.8,26.7,30.11,NNE,22,9.0,14.0,59,0.00,,,0.00,150,MyOwnSoftware,2013-04-01 16:07:00,
2013-04-01 17:08:00,39.8,26.7,30.11,NNE,22,9.0,13.0,59,0.00,,,0.00,151,MyOwnSoftware,2013-04-01 16:08:00,
2013-04-01 17:09:00,39.8,26.2,30.11,NNE,22,8.0,13.0,58,0.00,,,0.00,155,MyOwnSoftware,2013-04-01 16:09:00,
2013-04-01 17:10:00,39.8,26.2,30.11,NNE,22,7.0,11.0,58,0.00,,,0.00,155,MyOwnSoftware,2013-04-01 16:10:00,
2013-04-01 17:11:00,39.8,26.2,30.11,NNE,22,8.0,12.0,58,0.00,,,0.00,144,MyOwnSoftware,2013-04-01 16:11:00,
2013-04-01 17:12:00,39.8,26.7,30.11,NNE,22,10.0,13.0,59,0.00,,,0.00,125,MyOwnSoftware,2013-04-01 16:12:00,
2013-04-01 17:13:00,39.8,26.7,30.11,NNE,22,7.0,8.0,59,0.00,,,0.00,123,MyOwnSoftware,2013-04-01 16:13:00,
2013-04-01 17:14:00,39.8,26.7,30.11,NNE,22,6.0,8.0,59,0.00,,,0.00,130,MyOwnSoftware,2013-04-01 16:14:00,
2013-04-01 17:15:00,39.8,26.2,30.11,North,0,6.0,10.0,58,0.00,,,0.00,141,MyOwnSoftware,2013-04-01 16:15:00,
2013-04-01 17:16:00,39.9,26.0,30.11,NNE,16,6.0,-999.0,57,-99.99,,,0.00,160,weatherlink.com 1.10,2013-04-01 16:16:00,
2013-04-01 17:17:00,39.9,25.9,30.11,North,0,5.0,6.0,57,0.00,,,0.00,164,MyOwnSoftware,2013-04-01 16:17:00,
2013-04-01 17:18:00,39.9,26.3,30.11,NE,45,5.0,7.0,58,0.00,,,0.00,162,MyOwnSoftware,2013-04-01 16:18:00,
2013-04-01 17:19:00,39.9,26.3,30.11,NE,45,6.0,8.0,58,0.00,,,0.00,160,MyOwnSoftware,2013-04-01 16:19:00,
2013-04-01 17:20:00,40.1,26.5,30.11,NE,45,6.0,8.0,58,0.00,,,0.00,158,MyOwnSoftware,2013-04-01 16:20:00,
2013-04-01 17:21:00,40.1,26.5,30.11,NE,45,5.0,8.0,58,0.00,,,0.00,160,MyOwnSoftware,2013-04-01 16:21:00,
2013-04-01 17:22:00,40.1,26.9,30.11,North,0,6.0,10.0,59,0.00,,,0.00,155,MyOwnSoftware,2013-04-01 16:22:00,
2013-04-01 17:23:00,40.1,26.9,30.11,North,0,5.0,8.0,59,0.00,,,0.00,148,MyOwnSoftware,2013-04-01 16:23:00,
2013-04-01 17:24:00,40.2,27.0,30.11,NNE,22,6.0,8.0,59,0.00,,,0.00,148,MyOwnSoftware,2013-04-01 16:24:00,
2013-04-01 17:25:00,40.2,27.0,30.11,North,0,6.0,9.0,59,0.00,,,0.00,146,MyOwnSoftware,2013-04-01 16:25:00,
2013-04-01 17:26:00,40.2,26.6,30.11,North,0,9.0,14.0,58,0.00,,,0.00,146,MyOwnSoftware,2013-04-01 16:26:00,
2013-04-01 17:27:00,40.2,26.6,30.11,NNE,22,8.0,11.0,58,0.00,,,0.00,135,MyOwnSoftware,2013-04-01 16:27:00,
2013-04-01 17:28:00,40.1,26.5,30.11,North,0,7.0,9.0,58,0.00,,,0.00,128,MyOwnSoftware,2013-04-01 16:28:00,
2013-04-01 17:29:00,40.1,26.9,30.11,NNE,22,6.0,10.0,59,0.00,,,0.00,121,MyOwnSoftware,2013-04-01 16:29:00,
2013-04-01 17:30:00,40.1,26.9,30.11,NNE,22,6.0,7.0,59,0.00,,,0.00,118,MyOwnSoftware,2013-04-01 16:30:00,
2013-04-01 17:31:00,40.1,27.0,30.11,North,352,6.0,-999.0,60,-99.99,,,0.00,123,weatherlink.com 1.10,2013-04-01 16:31:00,
2013-04-01 17:32:00,40.2,27.0,30.11,NNW,338,2.0,6.0,59,0.00,,,0.00,127,MyOwnSoftware,2013-04-01 16:32:00,
2013-04-01 17:33:00,40.2,27.0,30.11,NE,45,6.0,11.0,59,0.00,,,0.00,128,MyOwnSoftware,2013-04-01 16:33:00,
2013-04-01 17:34:00,40.2,26.2,30.11,NE,45,6.0,11.0,57,0.00,,,0.00,128,MyOwnSoftware,2013-04-01 16:34:00,
2013-04-01 17:35:00,40.2,25.3,30.11,North,0,6.0,8.0,55,0.00,,,0.00,128,MyOwnSoftware,2013-04-01 16:35:00,
2013-04-01 17:36:00,40.2,25.3,30.11,NNE,22,5.0,7.0,55,0.00,,,0.00,125,MyOwnSoftware,2013-04-01 16:36:00,
2013-04-01 17:37:00,40.2,24.9,30.11,NNE,22,5.0,7.0,54,0.00,,,0.00,121,MyOwnSoftware,2013-04-01 16:37:00,
2013-04-01 17:38:00,40.2,24.9,30.11,East,90,5.0,8.0,54,0.00,,,0.00,121,MyOwnSoftware,2013-04-01 16:38:00,
2013-04-01 17:39:00,40.1,26.9,30.11,NNE,22,6.0,10.0,59,0.00,,,0.00,121,MyOwnSoftware,2013-04-01 16:39:00,
2013-04-01 17:40:00,40.3,25.4,30.11,North,0,4.0,7.0,55,0.00,,,0.00,116,MyOwnSoftware,2013-04-01 16:40:00,
2013-04-01 17:41:00,40.3,25.0,30.11,North,0,4.0,6.0,54,0.00,,,0.00,117,MyOwnSoftware,2013-04-01 16:41:00,
2013-04-01 17:42:00,40.3,25.4,30.11,North,0,4.0,7.0,55,0.00,,,0.00,120,MyOwnSoftware,2013-04-01 16:42:00,
2013-04-01 17:43:00,40.3,25.0,30.11,North,0,7.0,13.0,54,0.00,,,0.00,114,MyOwnSoftware,2013-04-01 16:43:00,
2013-04-01 17:44:00,40.3,25.0,30.11,North,0,9.0,14.0,54,0.00,,,0.00,106,MyOwnSoftware,2013-04-01 16:44:00,
2013-04-01 17:45:00,40.2,25.3,30.11,NNE,22,6.0,12.0,55,0.00,,,0.00,102,MyOwnSoftware,2013-04-01 16:45:00,
2013-04-01 17:46:00,40.2,25.0,30.11,NNE,14,7.0,-999.0,55,-99.99,,,0.00,84,weatherlink.com 1.10,2013-04-01 16:46:00,
2013-04-01 17:47:00,40.2,24.9,30.11,North,0,5.0,8.0,54,0.00,,,0.00,74,MyOwnSoftware,2013-04-01 16:47:00,
2013-04-01 17:48:00,40.1,24.8,30.11,North,0,6.0,10.0,54,0.00,,,0.00,63,MyOwnSoftware,2013-04-01 16:48:00,
2013-04-01 17:49:00,40.1,24.8,30.11,NE,45,7.0,11.0,54,0.00,,,0.00,55,MyOwnSoftware,2013-04-01 16:49:00,
2013-04-01 17:50:00,40.1,24.8,30.11,NE,45,4.0,11.0,54,0.00,,,0.00,48,MyOwnSoftware,2013-04-01 16:50:00,
2013-04-01 17:51:00,40.1,24.8,30.11,NNE,22,7.0,13.0,54,0.00,,,0.00,46,MyOwnSoftware,2013-04-01 16:51:00,
2013-04-01 17:52:00,40.1,24.4,30.11,North,0,6.0,11.0,53,0.00,,,0.00,51,MyOwnSoftware,2013-04-01 16:52:00,
2013-04-01 17:53:00,40.1,24.4,30.11,North,0,5.0,7.0,53,0.00,,,0.00,56,MyOwnSoftware,2013-04-01 16:53:00,
2013-04-01 17:54:00,40.1,24.4,30.11,NE,45,4.0,6.0,53,0.00,,,0.00,67,MyOwnSoftware,2013-04-01 16:54:00,
2013-04-01 17:55:00,40.1,24.4,30.11,NE,45,4.0,6.0,53,0.00,,,0.00,77,MyOwnSoftware,2013-04-01 16:55:00,
2013-04-01 17:56:00,40.1,24.4,30.11,ENE,68,5.0,7.0,53,0.00,,,0.00,95,MyOwnSoftware,2013-04-01 16:56:00,
2013-04-01 17:57:00,39.9,24.2,30.11,North,0,4.0,7.0,53,0.00,,,0.00,109,MyOwnSoftware,2013-04-01 16:57:00,
2013-04-01 17:58:00,40.1,24.8,30.11,NE,45,7.0,11.0,54,0.00,,,0.00,55,MyOwnSoftware,2013-04-01 16:58:00,
2013-04-01 17:59:00,39.9,24.6,30.11,North,0,7.0,10.0,54,0.00,,,0.00,111,MyOwnSoftware,2013-04-01 16:59:00,
2013-04-01 18:00:00,39.9,25.1,30.12,NNE,22,4.0,6.0,55,0.00,,,0.00,109,MyOwnSoftware,2013-04-01 17:00:00,
2013-04-01 18:01:00,39.9,25.1,30.12,NE,45,6.0,7.0,55,0.00,,,0.00,107,MyOwnSoftware,2013-04-01 17:01:00,
2013-04-01 18:02:00,39.9,25.1,30.12,North,0,4.0,6.0,55,0.00,,,0.00,100,MyOwnSoftware,2013-04-01 17:02:00,
2013-04-01 18:03:00,40.1,25.7,30.12,NNE,22,6.0,11.0,56,0.00,,,0.00,100,MyOwnSoftware,2013-04-01 17:03:00,
2013-04-01 18:04:00,40.1,25.7,30.12,NNE,22,4.0,7.0,56,0.00,,,0.00,91,MyOwnSoftware,2013-04-01 17:04:00,
2013-04-01 18:05:00,40.1,25.7,30.12,NE,45,7.0,13.0,56,0.00,,,0.00,90,MyOwnSoftware,2013-04-01 17:05:00,
2013-04-01 18:06:00,40.1,25.7,30.12,North,0,6.0,8.0,56,0.00,,,0.00,87,MyOwnSoftware,2013-04-01 17:06:00,
2013-04-01 18:07:00,40.1,25.7,30.12,NE,45,6.0,8.0,56,0.00,,,0.00,81,MyOwnSoftware,2013-04-01 17:07:00,
2013-04-01 18:08:00,40.1,25.7,30.12,NNE,22,6.0,7.0,56,0.00,,,0.00,76,MyOwnSoftware,2013-04-01 17:08:00,
2013-04-01 18:09:00,40.1,25.7,30.12,NNE,22,5.0,8.0,56,0.00,,,0.00,70,MyOwnSoftware,2013-04-01 17:09:00,
2013-04-01 18:10:00,40.1,25.7,30.12,NNE,22,5.0,8.0,56,0.00,,,0.00,69,MyOwnSoftware,2013-04-01 17:10:00,
2013-04-01 18:11:00,40.1,25.2,30.12,NNE,22,7.0,11.0,55,0.00,,,0.00,73,MyOwnSoftware,2013-04-01 17:11:00,
2013-04-01 18:12:00,40.1,25.2,30.12,North,0,5.0,8.0,55,0.00,,,0.00,77,MyOwnSoftware,2013-04-01 17:12:00,
2013-04-01 18:13:00,40.1,25.2,30.12,NE,45,6.0,8.0,55,0.00,,,0.00,79,MyOwnSoftware,2013-04-01 17:13:00,
2013-04-01 18:14:00,40.1,25.7,30.12,NNE,22,7.0,11.0,56,0.00,,,0.00,79,MyOwnSoftware,2013-04-01 17:14:00,
2013-04-01 18:15:00,39.9,25.5,30.12,NE,45,6.0,11.0,56,0.00,,,0.00,81,MyOwnSoftware,2013-04-01 17:15:00,
2013-04-01 18:16:00,39.9,25.0,30.12,North,359,5.0,-999.0,56,-99.99,,,0.00,81,weatherlink.com 1.10,2013-04-01 17:16:00,
2013-04-01 18:17:00,39.9,25.5,30.12,NE,45,5.0,7.0,56,0.00,,,0.00,81,MyOwnSoftware,2013-04-01 17:17:00,
2013-04-01 18:18:00,39.8,25.4,30.12,ENE,68,5.0,10.0,56,0.00,,,0.00,79,MyOwnSoftware,2013-04-01 17:18:00,
2013-04-01 18:19:00,39.8,25.4,30.12,North,0,5.0,8.0,56,0.00,,,0.00,76,MyOwnSoftware,2013-04-01 17:19:00,
2013-04-01 18:20:00,39.8,25.4,30.12,NE,45,7.0,11.0,56,0.00,,,0.00,70,MyOwnSoftware,2013-04-01 17:20:00,
2013-04-01 18:21:00,39.8,25.4,30.12,NE,45,4.0,6.0,56,0.00,,,0.00,63,MyOwnSoftware,2013-04-01 17:21:00,
2013-04-01 18:22:00,39.8,25.4,30.12,ENE,68,5.0,6.0,56,0.00,,,0.00,56,MyOwnSoftware,2013-04-01 17:22:00,
2013-04-01 18:23:00,39.6,25.6,30.12,North,0,6.0,10.0,57,0.00,,,0.00,53,MyOwnSoftware,2013-04-01 17:23:00,
2013-04-01 18:24:00,39.6,26.1,30.12,North,0,7.0,8.0,58,0.00,,,0.00,51,MyOwnSoftware,2013-04-01 17:24:00,
2013-04-01 18:25:00,39.6,26.1,30.12,North,0,5.0,7.0,58,0.00,,,0.00,49,MyOwnSoftware,2013-04-01 17:25:00,
2013-04-01 18:26:00,39.6,26.5,30.12,North,0,7.0,9.0,59,0.00,,,0.00,50,MyOwnSoftware,2013-04-01 17:26:00,
2013-04-01 18:27:00,39.5,26.4,30.12,NNE,22,6.0,9.0,59,0.00,,,0.00,56,MyOwnSoftware,2013-04-01 17:27:00,
2013-04-01 18:28:00,39.5,26.4,30.12,North,0,8.0,12.0,59,0.00,,,0.00,58,MyOwnSoftware,2013-04-01 17:28:00,
2013-04-01 18:29:00,39.3,26.2,30.12,NNE,22,7.0,11.0,59,0.00,,,0.00,60,MyOwnSoftware,2013-04-01 17:29:00,
2013-04-01 18:30:00,39.3,26.2,30.12,North,0,6.0,8.0,59,0.00,,,0.00,62,MyOwnSoftware,2013-04-01 17:30:00,
2013-04-01 18:31:00,39.3,26.6,30.12,NNE,22,8.0,12.0,60,0.00,,,0.00,70,MyOwnSoftware,2013-04-01 17:31:00,
2013-04-01 18:32:00,39.3,26.6,30.12,North,0,8.0,10.0,60,0.00,,,0.00,72,MyOwnSoftware,2013-04-01 17:32:00,
2013-04-01 18:33:00,39.3,26.6,30.12,NNE,22,5.0,6.0,60,0.00,,,0.00,67,MyOwnSoftware,2013-04-01 17:33:00,
2013-04-01 18:34:00,39.3,26.6,30.12,ENE,68,5.0,8.0,60,0.00,,,0.00,62,MyOwnSoftware,2013-04-01 17:34:00,
2013-04-01 18:35:00,39.3,26.2,30.12,NNE,22,5.0,8.0,59,0.00,,,0.00,60,MyOwnSoftware,2013-04-01 17:35:00,
2013-04-01 18:36:00,39.3,26.2,30.12,North,0,6.0,8.0,59,0.00,,,0.00,57,MyOwnSoftware,2013-04-01 17:36:00,
2013-04-01 18:37:00,39.3,26.2,30.12,North,0,6.0,11.0,59,0.00,,,0.00,55,MyOwnSoftware,2013-04-01 17:37:00,
2013-04-01 18:38:00,39.3,26.2,30.12,NNE,22,7.0,11.0,59,0.00,,,0.00,60,MyOwnSoftware,2013-04-01 17:38:00,
2013-04-01 18:39:00,39.3,26.2,30.12,North,0,8.0,13.0,59,0.00,,,0.00,55,MyOwnSoftware,2013-04-01 17:39:00,
2013-04-01 18:40:00,39.3,25.8,30.12,NNE,22,7.0,9.0,58,0.00,,,0.00,53,MyOwnSoftware,2013-04-01 17:40:00,
2013-04-01 18:41:00,39.2,25.7,30.12,NNE,22,7.0,11.0,58,0.00,,,0.00,49,MyOwnSoftware,2013-04-01 17:41:00,
2013-04-01 18:42:00,39.2,25.7,30.12,North,0,4.0,7.0,58,0.00,,,0.00,48,MyOwnSoftware,2013-04-01 17:42:00,
2013-04-01 18:43:00,39.2,25.7,30.12,NNE,22,5.0,9.0,58,0.00,,,0.00,48,MyOwnSoftware,2013-04-01 17:43:00,
2013-04-01 18:44:00,39.2,26.1,30.12,North,0,5.0,10.0,59,0.00,,,0.00,48,MyOwnSoftware,2013-04-01 17:44:00,
2013-04-01 18:45:00,39.2,25.7,30.12,NNE,22,5.0,8.0,58,0.00,,,0.00,48,MyOwnSoftware,2013-04-01 17:45:00,
2013-04-01 18:46:00,39.2,25.0,30.12,NNE,20,7.0,-999.0,58,-99.99,,,0.00,44,weatherlink.com 1.10,2013-04-01 17:46:00,
2013-04-01 18:47:00,39.2,25.7,30.12,North,0,7.0,12.0,58,0.00,,,0.00,42,MyOwnSoftware,2013-04-01 17:47:00,
2013-04-01 18:48:00,39.2,25.7,30.12,North,0,5.0,10.0,58,0.00,,,0.00,40,MyOwnSoftware,2013-04-01 17:48:00,
2013-04-01 18:49:00,39.2,25.7,30.12,North,0,6.0,10.0,58,0.00,,,0.00,40,MyOwnSoftware,2013-04-01 17:49:00,
2013-04-01 18:50:00,39.2,25.3,30.12,North,0,7.0,10.0,57,0.00,,,0.00,40,MyOwnSoftware,2013-04-01 17:50:00,
2013-04-01 18:51:00,39.2,25.3,30.12,NNE,22,7.0,10.0,57,0.00,,,0.00,40,MyOwnSoftware,2013-04-01 17:51:00,
2013-04-01 18:52:00,39.2,25.3,30.12,North,0,4.0,8.0,57,0.00,,,0.00,26,MyOwnSoftware,2013-04-01 17:52:00,
2013-04-01 18:53:00,39.2,25.3,30.12,North,0,5.0,8.0,57,0.00,,,0.00,26,MyOwnSoftware,2013-04-01 17:53:00,
2013-04-01 18:54:00,39.2,25.3,30.12,NE,45,6.0,9.0,57,0.00,,,0.00,26,MyOwnSoftware,2013-04-01 17:54:00,
2013-04-01 18:55:00,39.1,24.7,30.12,North,0,6.0,12.0,56,0.00,,,0.00,26,MyOwnSoftware,2013-04-01 17:55:00,
2013-04-01 18:56:00,39.1,24.7,30.12,NNE,22,6.0,8.0,56,0.00,,,0.00,25,MyOwnSoftware,2013-04-01 17:56:00,
2013-04-01 18:57:00,39.2,25.7,30.12,North,0,5.0,10.0,58,0.00,,,0.00,40,MyOwnSoftware,2013-04-01 17:57:00,
2013-04-01 18:58:00,38.9,24.1,30.12,NNE,22,5.0,9.0,55,0.00,,,0.00,23,MyOwnSoftware,2013-04-01 17:58:00,
2013-04-01 18:59:00,38.9,24.6,30.12,NNE,22,6.0,8.0,56,0.00,,,0.00,23,MyOwnSoftware,2013-04-01 17:59:00,
2013-04-01 19:00:00,38.9,24.1,30.13,NNE,22,4.0,9.0,55,0.00,,,0.00,23,MyOwnSoftware,2013-04-01 18:00:00,
2013-04-01 19:01:00,38.9,24.1,30.13,NE,45,4.0,7.0,55,0.00,,,0.00,32,MyOwnSoftware,2013-04-01 18:01:00,
2013-04-01 19:02:00,38.9,24.6,30.13,North,0,3.0,5.0,56,0.00,,,0.00,32,MyOwnSoftware,2013-04-01 18:02:00,
2013-04-01 19:03:00,38.9,24.6,30.13,NNE,22,3.0,4.0,56,0.00,,,0.00,32,MyOwnSoftware,2013-04-01 18:03:00,
2013-04-01 19:04:00,38.9,24.6,30.13,NE,45,7.0,17.0,56,0.00,,,0.00,32,MyOwnSoftware,2013-04-01 18:04:00,
2013-04-01 19:05:00,38.9,24.6,30.13,ENE,68,5.0,8.0,56,0.00,,,0.00,30,MyOwnSoftware,2013-04-01 18:05:00,
2013-04-01 19:06:00,38.9,24.6,30.13,NNE,22,3.0,6.0,56,0.00,,,0.00,30,MyOwnSoftware,2013-04-01 18:06:00,
2013-04-01 19:07:00,38.9,24.6,30.13,ENE,68,4.0,8.0,56,0.00,,,0.00,30,MyOwnSoftware,2013-04-01 18:07:00,
2013-04-01 19:08:00,38.9,24.6,30.13,NE,45,4.0,5.0,56,0.00,,,0.00,30,MyOwnSoftware,2013-04-01 18:08:00,
2013-04-01 19:09:00,38.9,24.6,30.13,North,0,6.0,8.0,56,0.00,,,0.00,28,MyOwnSoftware,2013-04-01 18:09:00,
2013-04-01 19:10:00,38.9,24.6,30.13,NNE,22,4.0,7.0,56,0.00,,,0.00,28,MyOwnSoftware,2013-04-01 18:10:00,
2013-04-01 19:11:00,38.9,24.6,30.13,NE,45,7.0,11.0,56,0.00,,,0.00,28,MyOwnSoftware,2013-04-01 18:11:00,
2013-04-01 19:12:00,38.9,24.6,30.13,North,0,6.0,11.0,56,0.00,,,0.00,28,MyOwnSoftware,2013-04-01 18:12:00,
2013-04-01 19:13:00,38.9,24.6,30.13,NE,45,4.0,7.0,56,0.00,,,0.00,23,MyOwnSoftware,2013-04-01 18:13:00,
2013-04-01 19:14:00,38.8,24.5,30.13,North,0,6.0,8.0,56,0.00,,,0.00,23,MyOwnSoftware,2013-04-01 18:14:00,
2013-04-01 19:15:00,38.8,24.5,30.13,East,90,4.0,6.0,56,0.00,,,0.00,23,MyOwnSoftware,2013-04-01 18:15:00,
2013-04-01 19:16:00,38.8,24.0,30.13,ENE,59,3.0,-999.0,56,-99.99,,,0.00,23,weatherlink.com 1.10,2013-04-01 18:16:00,
2013-04-01 19:17:00,38.8,24.5,30.13,NE,45,4.0,6.0,56,0.00,,,0.00,23,MyOwnSoftware,2013-04-01 18:17:00,
2013-04-01 19:18:00,38.8,24.5,30.13,North,0,6.0,11.0,56,0.00,,,0.00,23,MyOwnSoftware,2013-04-01 18:18:00,
2013-04-01 19:19:00,38.8,24.5,30.13,NE,45,4.0,6.0,56,0.00,,,0.00,23,MyOwnSoftware,2013-04-01 18:19:00,
2013-04-01 19:20:00,38.8,24.5,30.13,ENE,68,3.0,6.0,56,0.00,,,0.00,23,MyOwnSoftware,2013-04-01 18:20:00,
2013-04-01 19:21:00,38.8,24.5,30.13,North,0,4.0,6.0,56,0.00,,,0.00,21,MyOwnSoftware,2013-04-01 18:21:00,
2013-04-01 19:22:00,38.8,24.5,30.13,NNE,22,5.0,7.0,56,0.00,,,0.00,19,MyOwnSoftware,2013-04-01 18:22:00,
2013-04-01 19:23:00,38.8,24.5,30.13,ENE,68,5.0,8.0,56,0.00,,,0.00,19,MyOwnSoftware,2013-04-01 18:23:00,
2013-04-01 19:24:00,38.8,24.5,30.13,NE,45,4.0,7.0,56,0.00,,,0.00,19,MyOwnSoftware,2013-04-01 18:24:00,
2013-04-01 19:25:00,38.8,24.5,30.13,North,0,4.0,8.0,56,0.00,,,0.00,19,MyOwnSoftware,2013-04-01 18:25:00,
2013-04-01 19:26:00,38.8,24.5,30.13,NE,45,5.0,10.0,56,0.00,,,0.00,16,MyOwnSoftware,2013-04-01 18:26:00,
2013-04-01 19:27:00,38.8,24.5,30.13,North,0,4.0,6.0,56,0.00,,,0.00,16,MyOwnSoftware,2013-04-01 18:27:00,
2013-04-01 19:28:00,38.8,24.9,30.13,NNE,22,4.0,7.0,57,0.00,,,0.00,16,MyOwnSoftware,2013-04-01 18:28:00,
2013-04-01 19:29:00,38.8,24.9,30.13,NE,45,6.0,10.0,57,0.00,,,0.00,16,MyOwnSoftware,2013-04-01 18:29:00,
2013-04-01 19:30:00,38.8,24.9,30.13,NE,45,4.0,8.0,57,0.00,,,0.00,12,MyOwnSoftware,2013-04-01 18:30:00,
2013-04-01 19:31:00,38.8,24.9,30.13,NE,45,5.0,6.0,57,0.00,,,0.00,12,MyOwnSoftware,2013-04-01 18:31:00,
2013-04-01 19:32:00,38.8,25.0,30.13,ESE,120,4.0,-999.0,57,-99.99,,,0.00,12,weatherlink.com 1.10,2013-04-01 18:32:00,
2013-04-01 19:33:00,38.6,24.7,30.13,NE,45,3.0,6.0,57,0.00,,,0.00,12,MyOwnSoftware,2013-04-01 18:33:00,
2013-04-01 19:34:00,38.6,24.7,30.13,NE,45,3.0,6.0,57,0.00,,,0.00,9,MyOwnSoftware,2013-04-01 18:34:00,
2013-04-01 19:35:00,38.6,24.7,30.13,NE,45,3.0,5.0,57,0.00,,,0.00,9,MyOwnSoftware,2013-04-01 18:35:00,
2013-04-01 19:36:00,38.6,24.7,30.13,NE,45,3.0,6.0,57,0.00,,,0.00,9,MyOwnSoftware,2013-04-01 18:36:00,
2013-04-01 19:37:00,38.6,24.7,30.13,NE,45,6.0,8.0,57,0.00,,,0.00,9,MyOwnSoftware,2013-04-01 18:37:00,
2013-04-01 19:38:00,38.6,24.7,30.13,East,90,4.0,6.0,57,0.00,,,0.00,7,MyOwnSoftware,2013-04-01 18:38:00,
2013-04-01 19:39:00,38.6,24.7,30.13,NE,45,3.0,6.0,57,0.00,,,0.00,7,MyOwnSoftware,2013-04-01 18:39:00,
2013-04-01 19:40:00,38.5,24.6,30.13,East,90,3.0,6.0,57,0.00,,,0.00,7,MyOwnSoftware,2013-04-01 18:40:00,
2013-04-01 19:41:00,38.5,24.6,30.13,NNE,22,4.0,7.0,57,0.00,,,0.00,7,MyOwnSoftware,2013-04-01 18:41:00,
2013-04-01 19:42:00,38.5,24.6,30.13,North,0,4.0,7.0,57,0.00,,,0.00,7,MyOwnSoftware,2013-04-01 18:42:00,
2013-04-01 19:43:00,38.5,24.6,30.13,NNE,22,5.0,6.0,57,0.00,,,0.00,7,MyOwnSoftware,2013-04-01 18:43:00,
2013-04-01 19:44:00,38.5,24.6,30.13,North,0,5.0,7.0,57,0.00,,,0.00,7,MyOwnSoftware,2013-04-01 18:44:00,
2013-04-01 19:45:00,38.3,24.4,30.13,North,0,4.0,6.0,57,0.00,,,0.00,7,MyOwnSoftware,2013-04-01 18:45:00,
2013-04-01 19:46:00,38.3,24.4,30.13,North,0,4.0,7.0,57,0.00,,,0.00,6,MyOwnSoftware,2013-04-01 18:46:00,
2013-04-01 19:47:00,38.3,24.4,30.13,North,0,6.0,10.0,57,0.00,,,0.00,5,MyOwnSoftware,2013-04-01 18:47:00,
2013-04-01 19:48:00,38.6,24.7,30.13,NE,45,3.0,6.0,57,0.00,,,0.00,7,MyOwnSoftware,2013-04-01 18:48:00,
2013-04-01 19:49:00,38.2,24.3,30.13,ENE,68,4.0,6.0,57,0.00,,,0.00,5,MyOwnSoftware,2013-04-01 18:49:00,
2013-04-01 19:50:00,38.2,24.3,30.13,NE,45,4.0,6.0,57,0.00,,,0.00,5,MyOwnSoftware,2013-04-01 18:50:00,
2013-04-01 19:51:00,38.2,24.3,30.13,ENE,68,4.0,6.0,57,0.00,,,0.00,0,MyOwnSoftware,2013-04-01 18:51:00,
2013-04-01 19:52:00,38.2,24.3,30.13,NE,45,4.0,6.0,57,0.00,,,0.00,0,MyOwnSoftware,2013-04-01 18:52:00,
2013-04-01 19:53:00,38.2,24.7,30.13,NE,45,4.0,6.0,58,0.00,,,0.00,0,MyOwnSoftware,2013-04-01 18:53:00,
2013-04-01 19:54:00,38.0,24.6,30.13,NE,45,4.0,6.0,58,0.00,,,0.00,0,MyOwnSoftware,2013-04-01 18:54:00,
2013-04-01 19:55:00,38.0,24.6,30.13,North,0,6.0,8.0,58,0.00,,,0.00,0,MyOwnSoftware,2013-04-01 18:55:00,
2013-04-01 19:56:00,38.0,24.6,30.13,NNE,22,5.0,8.0,58,0.00,,,0.00,0,MyOwnSoftware,2013-04-01 18:56:00,
2013-04-01 19:57:00,38.0,24.6,30.13,North,0,5.0,8.0,58,0.00,,,0.00,0,MyOwnSoftware,2013-04-01 18:57:00,
2013-04-01 19:58:00,38.2,24.3,30.13,ENE,68,4.0,6.0,57,0.00,,,0.00,5,MyOwnSoftware,2013-04-01 18:58:00,
2013-04-01 19:59:00,38.0,24.1,30.13,ENE,68,5.0,7.0,57,0.00,,,0.00,0,MyOwnSoftware,2013-04-01 18:59:00,
2013-04-01 20:00:00,38.0,24.6,30.13,NNE,22,6.0,7.0,58,0.00,,,0.00,0,MyOwnSoftware,2013-04-01 19:00:00,
2013-04-01 20:01:00,38.0,24.6,30.13,East,90,3.0,4.0,58,0.00,,,0.00,0,MyOwnSoftware,2013-04-01 19:01:00,
2013-04-01 20:02:00,38.0,24.6,30.13,NE,45,4.0,6.0,58,0.00,,,0.00,0,MyOwnSoftware,2013-04-01 19:02:00,
2013-04-01 20:03:00,38.0,24.6,30.13,NE,45,4.0,6.0,58,0.00,,,0.00,0,MyOwnSoftware,2013-04-01 19:03:00,
2013-04-01 20:04:00,38.0,24.6,30.13,NNE,22,4.0,7.0,58,0.00,,,0.00,0,MyOwnSoftware,2013-04-01 19:04:00,
2013-04-01 20:05:00,38.0,24.6,30.13,NNE,22,2.0,3.0,58,0.00,,,0.00,0,MyOwnSoftware,2013-04-01 19:05:00,
2013-04-01 20:06:00,38.0,24.6,30.13,NNE,22,2.0,6.0,58,0.00,,,0.00,0,MyOwnSoftware,2013-04-01 19:06:00,
2013-04-01 20:07:00,38.0,24.6,30.13,NNE,22,4.0,5.0,58,0.00,,,0.00,0,MyOwnSoftware,2013-04-01 19:07:00,
2013-04-01 20:08:00,38.0,24.6,30.13,NE,45,3.0,6.0,58,0.00,,,0.00,0,MyOwnSoftware,2013-04-01 19:08:00,
2013-04-01 20:09:00,38.0,24.6,30.13,North,0,3.0,5.0,58,0.00,,,0.00,0,MyOwnSoftware,2013-04-01 19:09:00,
2013-04-01 20:10:00,38.0,25.0,30.13,North,0,4.0,5.0,59,0.00,,,0.00,0,MyOwnSoftware,2013-04-01 19:10:00,
2013-04-01 20:11:00,38.0,24.6,30.13,North,0,4.0,7.0,58,0.00,,,0.00,0,MyOwnSoftware,2013-04-01 19:11:00,
2013-04-01 20:12:00,38.0,24.6,30.13,NNE,22,3.0,6.0,58,0.00,,,0.00,0,MyOwnSoftware,2013-04-01 19:12:00,
2013-04-01 20:13:00,38.0,24.6,30.13,NE,45,2.0,3.0,58,0.00,,,0.00,0,MyOwnSoftware,2013-04-01 19:13:00,
2013-04-01 20:14:00,38.0,25.0,30.13,NE,45,4.0,10.0,59,0.00,,,0.00,0,MyOwnSoftware,2013-04-01 19:14:00,
2013-04-01 20:15:00,38.0,25.0,30.14,North,0,5.0,6.0,59,0.00,,,0.00,0,MyOwnSoftware,2013-04-01 19:15:00,
2013-04-01 20:16:00,38.0,25.0,30.14,North,0,2.0,3.0,59,0.00,,,0.00,0,MyOwnSoftware,2013-04-01 19:16:00,
2013-04-01 20:17:00,38.0,25.0,30.14,North,4,6.0,-999.0,59,-99.99,,,0.00,0,weatherlink.com 1.10,2013-04-01 19:17:00,
2013-04-01 20:18:00,38.0,25.0,30.14,North,0,3.0,6.0,59,0.00,,,0.00,0,MyOwnSoftware,2013-04-01 19:18:00,
2013-04-01 20:19:00,38.0,25.0,30.14,NE,45,2.0,4.0,59,0.00,,,0.00,0,MyOwnSoftware,2013-04-01 19:19:00,
2013-04-01 20:20:00,38.0,25.0,30.14,NE,45,2.0,3.0,59,0.00,,,0.00,0,MyOwnSoftware,2013-04-01 19:20:00,
2013-04-01 20:21:00,38.0,25.0,30.14,NE,45,2.0,3.0,59,0.00,,,0.00,0,MyOwnSoftware,2013-04-01 19:21:00,
2013-04-01 20:22:00,38.0,25.4,30.14,ENE,68,3.0,4.0,60,0.00,,,0.00,0,MyOwnSoftware,2013-04-01 19:22:00,
2013-04-01 20:23:00,38.0,25.4,30.14,NE,45,3.0,5.0,60,0.00,,,0.00,0,MyOwnSoftware,2013-04-01 19:23:00,
2013-04-01 20:24:00,38.0,25.0,30.14,NNE,22,3.0,5.0,59,0.00,,,0.00,0,MyOwnSoftware,2013-04-01 19:24:00,
2013-04-01 20:25:00,38.0,25.4,30.14,North,0,4.0,6.0,60,0.00,,,0.00,0,MyOwnSoftware,2013-04-01 19:25:00,
2013-04-01 20:26:00,38.0,25.4,30.14,North,0,3.0,5.0,60,0.00,,,0.00,0,MyOwnSoftware,2013-04-01 19:26:00,
2013-04-01 20:27:00,38.0,25.0,30.14,NE,45,3.0,6.0,59,0.00,,,0.00,0,MyOwnSoftware,2013-04-01 19:27:00,
2013-04-01 20:28:00,38.0,25.0,30.14,NNE,22,3.0,6.0,59,0.00,,,0.00,0,MyOwnSoftware,2013-04-01 19:28:00,
2013-04-01 20:29:00,38.0,25.4,30.14,North,0,3.0,6.0,60,0.00,,,0.00,0,MyOwnSoftware,2013-04-01 19:29:00,
2013-04-01 20:30:00,38.0,25.0,30.15,NNE,22,3.0,5.0,59,0.00,,,0.00,0,MyOwnSoftware,2013-04-01 19:30:00,
2013-04-01 20:31:00,38.0,25.4,30.15,North,0,4.0,6.0,60,0.00,,,0.00,0,MyOwnSoftware,2013-04-01 19:31:00,
2013-04-01 20:32:00,38.0,25.0,30.15,NNE,24,5.0,-999.0,59,-99.99,,,0.00,0,weatherlink.com 1.10,2013-04-01 19:32:00,
2013-04-01 20:33:00,38.0,25.0,30.15,NNE,22,3.0,6.0,59,0.00,,,0.00,0,MyOwnSoftware,2013-04-01 19:33:00,
2013-04-01 20:34:00,38.0,25.0,30.15,ESE,112,4.0,7.0,59,0.00,,,0.00,0,MyOwnSoftware,2013-04-01 19:34:00,
2013-04-01 20:35:00,38.0,25.0,30.15,ENE,68,2.0,3.0,59,0.00,,,0.00,0,MyOwnSoftware,2013-04-01 19:35:00,
2013-04-01 20:36:00,38.0,25.0,30.15,NNE,22,4.0,5.0,59,0.00,,,0.00,0,MyOwnSoftware,2013-04-01 19:36:00,
2013-04-01 20:37:00,38.0,25.0,30.15,ENE,68,3.0,5.0,59,0.00,,,0.00,0,MyOwnSoftware,2013-04-01 19:37:00,
2013-04-01 20:38:00,38.0,25.0,30.15,North,0,3.0,6.0,59,0.00,,,0.00,0,MyOwnSoftware,2013-04-01 19:38:00,
2013-04-01 20:39:00,38.0,25.0,30.15,NE,45,4.0,7.0,59,0.00,,,0.00,0,MyOwnSoftware,2013-04-01 19:39:00,
2013-04-01 20:40:00,38.0,25.0,30.15,NNE,22,3.0,5.0,59,0.00,,,0.00,0,MyOwnSoftware,2013-04-01 19:40:00,
2013-04-01 20:41:00,38.0,25.4,30.15,North,0,5.0,8.0,60,0.00,,,0.00,0,MyOwnSoftware,2013-04-01 19:41:00,
2013-04-01 20:42:00,38.0,25.4,30.15,North,0,4.0,6.0,60,0.00,,,0.00,0,MyOwnSoftware,2013-04-01 19:42:00,
2013-04-01 20:43:00,38.0,25.4,30.15,North,0,4.0,5.0,60,0.00,,,0.00,0,MyOwnSoftware,2013-04-01 19:43:00,
2013-04-01 20:44:00,38.0,25.4,30.15,North,0,3.0,5.0,60,0.00,,,0.00,0,MyOwnSoftware,2013-04-01 19:44:00,
2013-04-01 20:45:00,38.0,25.4,30.15,North,0,3.0,5.0,60,0.00,,,0.00,0,MyOwnSoftware,2013-04-01 19:45:00,
2013-04-01 20:46:00,38.0,25.4,30.15,NNE,22,3.0,6.0,60,0.00,,,0.00,0,MyOwnSoftware,2013-04-01 19:46:00,
2013-04-01 20:47:00,38.0,25.0,30.15,North,0,3.0,6.0,59,0.00,,,0.00,0,MyOwnSoftware,2013-04-01 19:47:00,
2013-04-01 20:48:00,38.0,25.8,30.15,North,0,5.0,7.0,61,0.00,,,0.00,0,MyOwnSoftware,2013-04-01 19:48:00,
2013-04-01 20:49:00,38.0,26.2,30.15,North,0,4.0,7.0,62,0.00,,,0.00,0,MyOwnSoftware,2013-04-01 19:49:00,
2013-04-01 20:50:00,38.0,26.2,30.15,North,0,3.0,5.0,62,0.00,,,0.00,0,MyOwnSoftware,2013-04-01 19:50:00,
2013-04-01 20:51:00,38.0,25.8,30.15,North,0,4.0,8.0,61,0.00,,,0.00,0,MyOwnSoftware,2013-04-01 19:51:00,
2013-04-01 20:52:00,38.0,25.8,30.15,NNE,22,3.0,5.0,61,0.00,,,0.00,0,MyOwnSoftware,2013-04-01 19:52:00,
2013-04-01 20:53:00,38.0,25.8,30.15,North,0,5.0,7.0,61,0.00,,,0.00,0,MyOwnSoftware,2013-04-01 19:53:00,
2013-04-01 20:54:00,38.0,25.8,30.15,North,0,5.0,8.0,61,0.00,,,0.00,0,MyOwnSoftware,2013-04-01 19:54:00,
2013-04-01 20:55:00,38.0,25.8,30.15,North,0,6.0,9.0,61,0.00,,,0.00,0,MyOwnSoftware,2013-04-01 19:55:00,
2013-04-01 20:56:00,38.0,25.8,30.15,NE,45,4.0,7.0,61,0.00,,,0.00,0,MyOwnSoftware,2013-04-01 19:56:00,
2013-04-01 20:57:00,38.0,25.8,30.15,North,0,5.0,7.0,61,0.00,,,0.00,0,MyOwnSoftware,2013-04-01 19:57:00,
2013-04-01 20:58:00,38.0,25.8,30.15,North,0,3.0,6.0,61,0.00,,,0.00,0,MyOwnSoftware,2013-04-01 19:58:00,
2013-04-01 20:59:00,38.0,25.8,30.15,North,0,4.0,7.0,61,0.00,,,0.00,0,MyOwnSoftware,2013-04-01 19:59:00,
2013-04-01 21:00:00,38.0,25.8,30.15,North,0,5.0,8.0,61,0.00,,,0.00,0,MyOwnSoftware,2013-04-01 20:00:00,
2013-04-01 21:01:00,38.0,25.8,30.15,North,0,5.0,10.0,61,0.00,,,0.00,0,MyOwnSoftware,2013-04-01 20:01:00,
2013-04-01 21:02:00,37.9,25.0,30.15,North,0,6.0,-999.0,60,-99.99,,,0.00,0,weatherlink.com 1.10,2013-04-01 20:02:00,
2013-04-01 21:03:00,37.9,25.7,30.15,North,0,5.0,7.0,61,0.00,,,0.00,0,MyOwnSoftware,2013-04-01 20:03:00,
2013-04-01 21:04:00,37.9,25.3,30.15,North,0,5.0,7.0,60,0.00,,,0.00,0,MyOwnSoftware,2013-04-01 20:04:00,
2013-04-01 21:05:00,37.9,25.7,30.15,North,0,5.0,9.0,61,0.00,,,0.00,0,MyOwnSoftware,2013-04-01 20:05:00,
2013-04-01 21:06:00,37.9,25.7,30.15,NNE,22,6.0,11.0,61,0.00,,,0.00,0,MyOwnSoftware,2013-04-01 20:06:00,
2013-04-01 21:07:00,37.9,25.7,30.15,NNE,22,5.0,7.0,61,0.00,,,0.00,0,MyOwnSoftware,2013-04-01 20:07:00,
2013-04-01 21:08:00,37.9,26.1,30.15,NE,45,4.0,8.0,62,0.00,,,0.00,0,MyOwnSoftware,2013-04-01 20:08:00,
2013-04-01 21:09:00,37.9,26.1,30.15,NE,45,4.0,5.0,62,0.00,,,0.00,0,MyOwnSoftware,2013-04-01 20:09:00,
2013-04-01 21:10:00,37.9,26.1,30.15,North,0,4.0,6.0,62,0.00,,,0.00,0,MyOwnSoftware,2013-04-01 20:10:00,
2013-04-01 21:11:00,37.9,26.1,30.15,North,0,5.0,8.0,62,0.00,,,0.00,0,MyOwnSoftware,2013-04-01 20:11:00,
2013-04-01 21:12:00,37.9,26.1,30.15,NNE,22,5.0,7.0,62,0.00,,,0.00,0,MyOwnSoftware,2013-04-01 20:12:00,
2013-04-01 21:13:00,37.9,26.1,30.15,NE,45,5.0,6.0,62,0.00,,,0.00,0,MyOwnSoftware,2013-04-01 20:13:00,
2013-04-01 21:14:00,37.9,25.7,30.15,NE,45,4.0,6.0,61,0.00,,,0.00,0,MyOwnSoftware,2013-04-01 20:14:00,
2013-04-01 21:15:00,37.9,25.7,30.15,North,0,4.0,6.0,61,0.00,,,0.00,0,MyOwnSoftware,2013-04-01 20:15:00,
2013-04-01 21:16:00,37.9,25.7,30.15,North,0,2.0,4.0,61,0.00,,,0.00,0,MyOwnSoftware,2013-04-01 20:16:00,
2013-04-01 21:17:00,37.9,26.1,30.15,NE,45,4.0,8.0,62,0.00,,,0.00,0,MyOwnSoftware,2013-04-01 20:17:00,
2013-04-01 21:18:00,37.9,25.7,30.15,North,0,6.0,8.0,61,0.00,,,0.00,0,MyOwnSoftware,2013-04-01 20:18:00,
2013-04-01 21:19:00,37.9,25.7,30.15,North,0,6.0,10.0,61,0.00,,,0.00,0,MyOwnSoftware,2013-04-01 20:19:00,
2013-04-01 21:20:00,37.9,25.7,30.15,North,0,4.0,7.0,61,0.00,,,0.00,0,MyOwnSoftware,2013-04-01 20:20:00,
2013-04-01 21:21:00,37.9,26.1,30.15,NE,45,5.0,7.0,62,0.00,,,0.00,0,MyOwnSoftware,2013-04-01 20:21:00,
2013-04-01 21:22:00,37.9,26.1,30.15,SE,135,4.0,6.0,62,0.00,,,0.00,0,MyOwnSoftware,2013-04-01 20:22:00,
2013-04-01 21:23:00,37.9,26.1,30.15,NE,45,5.0,7.0,62,0.00,,,0.00,0,MyOwnSoftware,2013-04-01 20:23:00,
2013-04-01 21:24:00,37.9,26.1,30.15,NNE,22,4.0,6.0,62,0.00,,,0.00,0,MyOwnSoftware,2013-04-01 20:24:00,
2013-04-01 21:25:00,37.9,26.1,30.15,ENE,68,5.0,7.0,62,0.00,,,0.00,0,MyOwnSoftware,2013-04-01 20:25:00,
2013-04-01 21:26:00,37.9,26.1,30.15,NNE,22,5.0,10.0,62,0.00,,,0.00,0,MyOwnSoftware,2013-04-01 20:26:00,
2013-04-01 21:27:00,37.9,26.1,30.15,NNE,22,3.0,6.0,62,0.00,,,0.00,0,MyOwnSoftware,2013-04-01 20:27:00,
2013-04-01 21:28:00,37.9,26.1,30.15,NE,45,4.0,6.0,62,0.00,,,0.00,0,MyOwnSoftware,2013-04-01 20:28:00,
2013-04-01 21:29:00,37.8,26.0,30.15,NE,45,3.0,5.0,62,0.00,,,0.00,0,MyOwnSoftware,2013-04-01 20:29:00,
2013-04-01 21:30:00,37.8,26.0,30.15,NE,45,4.0,6.0,62,0.00,,,0.00,0,MyOwnSoftware,2013-04-01 20:30:00,
2013-04-01 21:31:00,37.8,26.0,30.15,ENE,68,6.0,8.0,62,0.00,,,0.00,0,MyOwnSoftware,2013-04-01 20:31:00,
2013-04-01 21:32:00,37.8,25.0,30.15,North,0,8.0,-999.0,61,-99.99,,,0.00,0,weatherlink.com 1.10,2013-04-01 20:32:00,
2013-04-01 21:33:00,37.8,25.6,30.15,NE,45,7.0,8.0,61,0.00,,,0.00,0,MyOwnSoftware,2013-04-01 20:33:00,
2013-04-01 21:34:00,37.8,25.2,30.15,North,0,6.0,7.0,60,0.00,,,0.00,0,MyOwnSoftware,2013-04-01 20:34:00,
2013-04-01 21:35:00,37.8,25.2,30.15,ENE,68,4.0,8.0,60,0.00,,,0.00,0,MyOwnSoftware,2013-04-01 20:35:00,
2013-04-01 21:36:00,37.8,25.2,30.15,ENE,68,3.0,5.0,60,0.00,,,0.00,0,MyOwnSoftware,2013-04-01 20:36:00,
2013-04-01 21:37:00,37.8,25.2,30.15,North,0,4.0,5.0,60,0.00,,,0.00,0,MyOwnSoftware,2013-04-01 20:37:00,
2013-04-01 21:38:00,37.8,26.0,30.15,NE,45,3.0,5.0,62,0.00,,,0.00,0,MyOwnSoftware,2013-04-01 20:38:00,
2013-04-01 21:39:00,37.8,25.2,30.15,ESE,112,3.0,5.0,60,0.00,,,0.00,0,MyOwnSoftware,2013-04-01 20:39:00,
2013-04-01 21:40:00,37.6,25.0,30.15,ENE,68,5.0,8.0,60,0.00,,,0.00,0,MyOwnSoftware,2013-04-01 20:40:00,
2013-04-01 21:41:00,37.6,25.0,30.15,North,0,5.0,7.0,60,0.00,,,0.00,0,MyOwnSoftware,2013-04-01 20:41:00,
2013-04-01 21:42:00,37.6,25.0,30.15,NE,45,3.0,5.0,60,0.00,,,0.00,0,MyOwnSoftware,2013-04-01 20:42:00,
2013-04-01 21:43:00,37.6,25.0,30.15,East,90,3.0,6.0,60,0.00,,,0.00,0,MyOwnSoftware,2013-04-01 20:43:00,
2013-04-01 21:44:00,37.6,25.4,30.15,NE,45,4.0,6.0,61,0.00,,,0.00,0,MyOwnSoftware,2013-04-01 20:44:00,
2013-04-01 21:45:00,37.6,25.4,30.16,North,0,5.0,8.0,61,0.00,,,0.00,0,MyOwnSoftware,2013-04-01 20:45:00,
2013-04-01 21:46:00,37.8,25.2,30.15,North,0,4.0,5.0,60,0.00,,,0.00,0,MyOwnSoftware,2013-04-01 20:46:00,
2013-04-01 21:47:00,37.6,25.4,30.16,NNE,22,3.0,5.0,61,0.00,,,0.00,0,MyOwnSoftware,2013-04-01 20:47:00,
2013-04-01 21:48:00,37.6,25.4,30.16,North,0,4.0,7.0,61,0.00,,,0.00,0,MyOwnSoftware,2013-04-01 20:48:00,
2013-04-01 21:49:00,37.6,25.4,30.16,North,0,3.0,5.0,61,0.00,,,0.00,0,MyOwnSoftware,2013-04-01 20:49:00,
2013-04-01 21:50:00,37.6,25.4,30.16,North,0,3.0,6.0,61,0.00,,,0.00,0,MyOwnSoftware,2013-04-01 20:50:00,
2013-04-01 21:51:00,37.6,25.4,30.16,North,0,2.0,3.0,61,0.00,,,0.00,0,MyOwnSoftware,2013-04-01 20:51:00,
2013-04-01 21:52:00,37.6,25.8,30.16,North,0,2.0,4.0,62,0.00,,,0.00,0,MyOwnSoftware,2013-04-01 20:52:00,
2013-04-01 21:53:00,37.6,25.8,30.16,East,90,3.0,5.0,62,0.00,,,0.00,0,MyOwnSoftware,2013-04-01 20:53:00,
2013-04-01 21:54:00,37.6,25.8,30.16,North,0,4.0,7.0,62,0.00,,,0.00,0,MyOwnSoftware,2013-04-01 20:54:00,
2013-04-01 21:55:00,37.6,25.8,30.16,North,0,4.0,7.0,62,0.00,,,0.00,0,MyOwnSoftware,2013-04-01 20:55:00,
2013-04-01 21:56:00,37.6,25.8,30.16,North,0,5.0,6.0,62,0.00,,,0.00,0,MyOwnSoftware,2013-04-01 20:56:00,
2013-04-01 21:57:00,37.6,25.4,30.16,North,0,4.0,7.0,61,0.00,,,0.00,0,MyOwnSoftware,2013-04-01 20:57:00,
2013-04-01 21:58:00,37.6,25.8,30.16,East,90,2.0,3.0,62,0.00,,,0.00,0,MyOwnSoftware,2013-04-01 20:58:00,
2013-04-01 21:59:00,37.6,25.8,30.16,East,90,2.0,3.0,62,0.00,,,0.00,0,MyOwnSoftware,2013-04-01 20:59:00,
2013-04-01 22:00:00,37.6,25.8,30.16,ENE,68,2.0,5.0,62,0.00,,,0.00,0,MyOwnSoftware,2013-04-01 21:00:00,
2013-04-01 22:01:00,37.6,25.8,30.16,NE,45,3.0,6.0,62,0.00,,,0.00,0,MyOwnSoftware,2013-04-01 21:01:00,
2013-04-01 22:02:00,37.6,25.0,30.16,North,0,3.0,-999.0,62,-99.99,,,0.00,0,weatherlink.com 1.10,2013-04-01 21:02:00,
2013-04-01 22:03:00,37.6,25.8,30.16,North,0,4.0,7.0,62,0.00,,,0.00,0,MyOwnSoftware,2013-04-01 21:03:00,
2013-04-01 22:04:00,37.6,25.4,30.16,North,0,3.0,4.0,61,0.00,,,0.00,0,MyOwnSoftware,2013-04-01 21:04:00,
2013-04-01 22:05:00,37.6,25.4,30.16,NE,45,3.0,5.0,61,0.00,,,0.00,0,MyOwnSoftware,2013-04-01 21:05:00,
2013-04-01 22:06:00,37.6,25.4,30.16,North,0,3.0,6.0,61,0.00,,,0.00,0,MyOwnSoftware,2013-04-01 21:06:00,
2013-04-01 22:07:00,37.6,25.4,30.16,NE,45,4.0,8.0,61,0.00,,,0.00,0,MyOwnSoftware,2013-04-01 21:07:00,
2013-04-01 22:08:00,37.6,25.4,30.16,North,0,4.0,7.0,61,0.00,,,0.00,0,MyOwnSoftware,2013-04-01 21:08:00,
2013-04-01 22:09:00,37.6,25.4,30.16,North,0,3.0,5.0,61,0.00,,,0.00,0,MyOwnSoftware,2013-04-01 21:09:00,
2013-04-01 22:10:00,37.6,25.4,30.16,North,0,3.0,6.0,61,0.00,,,0.00,0,MyOwnSoftware,2013-04-01 21:10:00,
2013-04-01 22:11:00,37.6,25.8,30.16,NE,45,4.0,6.0,62,0.00,,,0.00,0,MyOwnSoftware,2013-04-01 21:11:00,
2013-04-01 22:12:00,37.6,25.8,30.16,ENE,68,4.0,7.0,62,0.00,,,0.00,0,MyOwnSoftware,2013-04-01 21:12:00,
2013-04-01 22:13:00,37.6,25.8,30.16,NNE,22,4.0,7.0,62,0.00,,,0.00,0,MyOwnSoftware,2013-04-01 21:13:00,
2013-04-01 22:14:00,37.6,25.4,30.16,NE,45,5.0,8.0,61,0.00,,,0.00,0,MyOwnSoftware,2013-04-01 21:14:00,
2013-04-01 22:15:00,37.6,25.4,30.16,North,0,4.0,6.0,61,0.00,,,0.00,0,MyOwnSoftware,2013-04-01 21:15:00,
2013-04-01 22:16:00,37.6,25.4,30.16,NE,45,3.0,7.0,61,0.00,,,0.00,0,MyOwnSoftware,2013-04-01 21:16:00,
2013-04-01 22:17:00,37.6,25.4,30.16,North,0,4.0,7.0,61,0.00,,,0.00,0,MyOwnSoftware,2013-04-01 21:17:00,
2013-04-01 22:18:00,37.5,25.7,30.16,North,0,5.0,7.0,62,0.00,,,0.00,0,MyOwnSoftware,2013-04-01 21:18:00,
2013-04-01 22:19:00,37.5,25.7,30.16,NE,45,3.0,6.0,62,0.00,,,0.00,0,MyOwnSoftware,2013-04-01 21:19:00,
2013-04-01 22:20:00,37.5,25.7,30.16,North,0,4.0,6.0,62,0.00,,,0.00,0,MyOwnSoftware,2013-04-01 21:20:00,
2013-04-01 22:21:00,37.5,25.7,30.16,NNE,22,3.0,5.0,62,0.00,,,0.00,0,MyOwnSoftware,2013-04-01 21:21:00,
2013-04-01 22:22:00,37.5,25.7,30.16,NNE,22,3.0,6.0,62,0.00,,,0.00,0,MyOwnSoftware,2013-04-01 21:22:00,
2013-04-01 22:23:00,37.5,26.1,30.16,North,0,5.0,6.0,63,0.00,,,0.00,0,MyOwnSoftware,2013-04-01 21:23:00,
2013-04-01 22:24:00,37.5,26.1,30.16,North,0,3.0,5.0,63,0.00,,,0.00,0,MyOwnSoftware,2013-04-01 21:24:00,
2013-04-01 22:25:00,37.5,26.1,30.16,North,0,2.0,4.0,63,0.00,,,0.00,0,MyOwnSoftware,2013-04-01 21:25:00,
2013-04-01 22:26:00,37.5,26.1,30.16,NNE,22,3.0,5.0,63,0.00,,,0.00,0,MyOwnSoftware,2013-04-01 21:26:00,
2013-04-01 22:27:00,37.5,26.1,30.16,NE,45,3.0,5.0,63,0.00,,,0.00,0,MyOwnSoftware,2013-04-01 21:27:00,
2013-04-01 22:28:00,37.5,26.1,30.16,NE,45,2.0,2.0,63,0.00,,,0.00,0,MyOwnSoftware,2013-04-01 21:28:00,
2013-04-01 22:29:00,37.5,26.1,30.16,North,0,3.0,6.0,63,0.00,,,0.00,0,MyOwnSoftware,2013-04-01 21:29:00,
2013-04-01 22:30:00,37.5,26.1,30.16,North,0,3.0,5.0,63,0.00,,,0.00,0,MyOwnSoftware,2013-04-01 21:30:00,
2013-04-01 22:31:00,37.5,26.1,30.16,NE,45,3.0,5.0,63,0.00,,,0.00,0,MyOwnSoftware,2013-04-01 21:31:00,
2013-04-01 22:32:00,37.5,26.0,30.16,North,4,3.0,-999.0,63,-99.99,,,0.00,0,weatherlink.com 1.10,2013-04-01 21:32:00,
2013-04-01 22:33:00,37.5,26.1,30.16,North,0,3.0,5.0,63,0.00,,,0.00,0,MyOwnSoftware,2013-04-01 21:33:00,
2013-04-01 22:34:00,37.5,26.1,30.16,NNE,22,3.0,5.0,63,0.00,,,0.00,0,MyOwnSoftware,2013-04-01 21:34:00,
2013-04-01 22:35:00,37.5,26.1,30.16,NE,45,3.0,4.0,63,0.00,,,0.00,0,MyOwnSoftware,2013-04-01 21:35:00,
2013-04-01 22:36:00,37.5,26.1,30.16,ENE,68,3.0,5.0,63,0.00,,,0.00,0,MyOwnSoftware,2013-04-01 21:36:00,
2013-04-01 22:37:00,37.5,26.4,30.16,ENE,68,3.0,6.0,64,0.00,,,0.00,0,MyOwnSoftware,2013-04-01 21:37:00,
2013-04-01 22:38:00,37.5,26.1,30.16,NE,45,4.0,7.0,63,0.00,,,0.00,0,MyOwnSoftware,2013-04-01 21:38:00,
2013-04-01 22:39:00,37.5,25.7,30.16,NE,45,3.0,6.0,62,0.00,,,0.00,0,MyOwnSoftware,2013-04-01 21:39:00,
2013-04-01 22:40:00,37.5,25.7,30.16,NE,45,1.0,3.0,62,0.00,,,0.00,0,MyOwnSoftware,2013-04-01 21:40:00,
2013-04-01 22:41:00,37.5,26.1,30.16,NE,45,2.0,3.0,63,0.00,,,0.00,0,MyOwnSoftware,2013-04-01 21:41:00,
2013-04-01 22:42:00,37.5,26.1,30.16,ENE,68,2.0,2.0,63,0.00,,,0.00,0,MyOwnSoftware,2013-04-01 21:42:00,
2013-04-01 22:43:00,37.5,26.1,30.16,NE,45,3.0,4.0,63,0.00,,,0.00,0,MyOwnSoftware,2013-04-01 21:43:00,
2013-04-01 22:44:00,37.6,26.2,30.16,NE,45,2.0,3.0,63,0.00,,,0.00,0,MyOwnSoftware,2013-04-01 21:44:00,
2013-04-01 22:45:00,37.6,26.2,30.16,North,0,4.0,8.0,63,0.00,,,0.00,0,MyOwnSoftware,2013-04-01 21:45:00,
2013-04-01 22:46:00,37.6,26.2,30.16,NE,45,4.0,7.0,63,0.00,,,0.00,0,MyOwnSoftware,2013-04-01 21:46:00,
2013-04-01 22:47:00,37.5,26.1,30.16,NE,45,4.0,7.0,63,0.00,,,0.00,0,MyOwnSoftware,2013-04-01 21:47:00,
2013-04-01 22:48:00,37.6,26.2,30.16,NNE,22,3.0,7.0,63,0.00,,,0.00,0,MyOwnSoftware,2013-04-01 21:48:00,
2013-04-01 22:49:00,37.6,26.2,30.16,North,0,6.0,11.0,63,0.00,,,0.00,0,MyOwnSoftware,2013-04-01 21:49:00,
2013-04-01 22:50:00,37.5,26.1,30.16,NE,45,5.0,11.0,63,0.00,,,0.00,0,MyOwnSoftware,2013-04-01 21:50:00,
2013-04-01 22:51:00,37.5,25.3,30.16,NE,45,6.0,8.0,61,0.00,,,0.00,0,MyOwnSoftware,2013-04-01 21:51:00,
2013-04-01 22:52:00,37.5,25.3,30.16,NNE,22,5.0,10.0,61,0.00,,,0.00,0,MyOwnSoftware,2013-04-01 21:52:00,
2013-04-01 22:53:00,37.5,25.3,30.16,NNE,22,3.0,5.0,61,0.00,,,0.00,0,MyOwnSoftware,2013-04-01 21:53:00,
2013-04-01 22:54:00,37.5,25.7,30.16,NNE,22,2.0,3.0,62,0.00,,,0.00,0,MyOwnSoftware,2013-04-01 21:54:00,
2013-04-01 22:55:00,37.5,25.7,30.16,NNE,22,3.0,4.0,62,0.00,,,0.00,0,MyOwnSoftware,2013-04-01 21:55:00,
2013-04-01 22:56:00,37.6,25.8,30.16,NE,45,4.0,7.0,62,0.00,,,0.00,0,MyOwnSoftware,2013-04-01 21:56:00,
2013-04-01 22:57:00,37.5,25.7,30.16,North,0,3.0,6.0,62,0.00,,,0.00,0,MyOwnSoftware,2013-04-01 21:57:00,
2013-04-01 22:58:00,37.5,25.7,30.16,ENE,68,2.0,3.0,62,0.00,,,0.00,0,MyOwnSoftware,2013-04-01 21:58:00,
2013-04-01 22:59:00,37.5,25.7,30.16,ENE,68,4.0,8.0,62,0.00,,,0.00,0,MyOwnSoftware,2013-04-01 21:59:00,
2013-04-01 23:00:00,37.5,25.3,30.16,NE,45,5.0,9.0,61,0.00,,,0.00,0,MyOwnSoftware,2013-04-01 22:00:00,
2013-04-01 23:01:00,37.5,25.3,30.16,ENE,68,5.0,8.0,61,0.00,,,0.00,0,MyOwnSoftware,2013-04-01 22:01:00,
2013-04-01 23:02:00,37.5,25.0,30.16,NNE,16,5.0,-999.0,61,-99.99,,,0.00,0,weatherlink.com 1.10,2013-04-01 22:02:00,
2013-04-01 23:03:00,37.5,25.3,30.16,NE,45,3.0,5.0,61,0.00,,,0.00,0,MyOwnSoftware,2013-04-01 22:03:00,
2013-04-01 23:04:00,37.5,25.3,30.16,NE,45,3.0,6.0,61,0.00,,,0.00,0,MyOwnSoftware,2013-04-01 22:04:00,
2013-04-01 23:05:00,37.5,25.3,30.16,NE,45,2.0,6.0,61,0.00,,,0.00,0,MyOwnSoftware,2013-04-01 22:05:00,
2013-04-01 23:06:00,37.5,25.3,30.16,NE,45,2.0,3.0,61,0.00,,,0.00,0,MyOwnSoftware,2013-04-01 22:06:00,
2013-04-01 23:07:00,37.5,25.3,30.16,NE,45,3.0,5.0,61,0.00,,,0.00,0,MyOwnSoftware,2013-04-01 22:07:00,
2013-04-01 23:08:00,37.5,25.3,30.16,NNE,22,4.0,6.0,61,0.00,,,0.00,0,MyOwnSoftware,2013-04-01 22:08:00,
2013-04-01 23:09:00,37.5,25.3,30.16,North,0,3.0,6.0,61,0.00,,,0.00,0,MyOwnSoftware,2013-04-01 22:09:00,
2013-04-01 23:10:00,37.5,25.3,30.16,NNE,22,4.0,6.0,61,0.00,,,0.00,0,MyOwnSoftware,2013-04-01 22:10:00,
2013-04-01 23:11:00,37.5,25.3,30.16,NE,45,2.0,3.0,61,0.00,,,0.00,0,MyOwnSoftware,2013-04-01 22:11:00,
2013-04-01 23:12:00,37.5,25.3,30.16,NE,45,2.0,3.0,61,0.00,,,0.00,0,MyOwnSoftware,2013-04-01 22:12:00,
2013-04-01 23:13:00,37.5,25.3,30.16,East,90,2.0,3.0,61,0.00,,,0.00,0,MyOwnSoftware,2013-04-01 22:13:00,
2013-04-01 23:14:00,37.5,25.7,30.16,East,90,2.0,3.0,62,0.00,,,0.00,0,MyOwnSoftware,2013-04-01 22:14:00,
2013-04-01 23:15:00,37.5,25.7,30.16,North,0,3.0,6.0,62,0.00,,,0.00,0,MyOwnSoftware,2013-04-01 22:15:00,
2013-04-01 23:16:00,37.5,25.7,30.16,North,0,2.0,3.0,62,0.00,,,0.00,0,MyOwnSoftware,2013-04-01 22:16:00,
2013-04-01 23:17:00,37.5,25.3,30.16,NE,45,3.0,5.0,61,0.00,,,0.00,0,MyOwnSoftware,2013-04-01 22:17:00,
2013-04-01 23:18:00,37.5,25.7,30.16,North,0,4.0,6.0,62,0.00,,,0.00,0,MyOwnSoftware,2013-04-01 22:18:00,
2013-04-01 23:19:00,37.5,25.7,30.16,North,0,2.0,3.0,62,0.00,,,0.00,0,MyOwnSoftware,2013-04-01 22:19:00,
2013-04-01 23:20:00,37.5,25.7,30.16,NNE,22,3.0,5.0,62,0.00,,,0.00,0,MyOwnSoftware,2013-04-01 22:20:00,
2013-04-01 23:21:00,37.5,25.7,30.16,North,0,2.0,3.0,62,0.00,,,0.00,0,MyOwnSoftware,2013-04-01 22:21:00,
2013-04-01 23:22:00,37.5,25.7,30.16,NNE,22,2.0,4.0,62,0.00,,,0.00,0,MyOwnSoftware,2013-04-01 22:22:00,
2013-04-01 23:23:00,37.5,25.7,30.16,North,0,3.0,5.0,62,0.00,,,0.00,0,MyOwnSoftware,2013-04-01 22:23:00,
2013-04-01 23:24:00,37.5,25.7,30.16,North,0,3.0,6.0,62,0.00,,,0.00,0,MyOwnSoftware,2013-04-01 22:24:00,
2013-04-01 23:25:00,37.5,25.7,30.16,North,0,1.0,3.0,62,0.00,,,0.00,0,MyOwnSoftware,2013-04-01 22:25:00,
2013-04-01 23:26:00,37.5,26.1,30.16,North,0,2.0,3.0,63,0.00,,,0.00,0,MyOwnSoftware,2013-04-01 22:26:00,
2013-04-01 23:27:00,37.6,26.2,30.16,NE,45,3.0,4.0,63,0.00,,,0.00,0,MyOwnSoftware,2013-04-01 22:27:00,
2013-04-01 23:28:00,37.6,26.2,30.16,NNE,22,4.0,6.0,63,0.00,,,0.00,0,MyOwnSoftware,2013-04-01 22:28:00,
2013-04-01 23:29:00,37.6,26.2,30.16,NNE,22,2.0,3.0,63,0.00,,,0.00,0,MyOwnSoftware,2013-04-01 22:29:00,
2013-04-01 23:30:00,37.6,26.2,30.16,NNE,22,2.0,2.0,63,0.00,,,0.00,0,MyOwnSoftware,2013-04-01 22:30:00,
2013-04-01 23:31:00,37.6,26.2,30.16,NNE,22,1.0,2.0,63,0.00,,,0.00,0,MyOwnSoftware,2013-04-01 22:31:00,
2013-04-01 23:32:00,37.6,26.0,30.16,NNE,31,1.0,-999.0,64,-99.99,,,0.00,0,weatherlink.com 1.10,2013-04-01 22:32:00,
2013-04-01 23:33:00,37.6,26.5,30.16,NNE,22,1.0,3.0,64,0.00,,,0.00,0,MyOwnSoftware,2013-04-01 22:33:00,
2013-04-01 23:34:00,37.6,26.5,30.16,North,0,3.0,5.0,64,0.00,,,0.00,0,MyOwnSoftware,2013-04-01 22:34:00,
2013-04-01 23:35:00,37.6,26.2,30.16,NE,45,2.0,3.0,63,0.00,,,0.00,0,MyOwnSoftware,2013-04-01 22:35:00,
2013-04-01 23:36:00,37.6,26.2,30.16,North,0,4.0,6.0,63,0.00,,,0.00,0,MyOwnSoftware,2013-04-01 22:36:00,
2013-04-01 23:37:00,37.6,26.2,30.16,North,0,5.0,7.0,63,0.00,,,0.00,0,MyOwnSoftware,2013-04-01 22:37:00,
2013-04-01 23:38:00,37.6,26.2,30.16,NNE,22,2.0,3.0,63,0.00,,,0.00,0,MyOwnSoftware,2013-04-01 22:38:00,
2013-04-01 23:39:00,37.6,26.2,30.16,North,0,2.0,4.0,63,0.00,,,0.00,0,MyOwnSoftware,2013-04-01 22:39:00,
2013-04-01 23:40:00,37.6,26.2,30.16,North,0,2.0,3.0,63,0.00,,,0.00,0,MyOwnSoftware,2013-04-01 22:40:00,
2013-04-01 23:41:00,37.6,26.2,30.16,NE,45,3.0,5.0,63,0.00,,,0.00,0,MyOwnSoftware,2013-04-01 22:41:00,
2013-04-01 23:42:00,37.6,26.5,30.16,NE,45,2.0,3.0,64,0.00,,,0.00,0,MyOwnSoftware,2013-04-01 22:42:00,
2013-04-01 23:43:00,37.6,26.5,30.16,NE,45,1.0,3.0,64,0.00,,,0.00,0,MyOwnSoftware,2013-04-01 22:43:00,
2013-04-01 23:44:00,37.6,26.5,30.16,NE,45,2.0,3.0,64,0.00,,,0.00,0,MyOwnSoftware,2013-04-01 22:44:00,
2013-04-01 23:45:00,37.6,26.5,30.16,NE,45,2.0,3.0,64,0.00,,,0.00,0,MyOwnSoftware,2013-04-01 22:45:00,
2013-04-01 23:46:00,37.6,26.5,30.16,NE,45,2.0,3.0,64,0.00,,,0.00,0,MyOwnSoftware,2013-04-01 22:46:00,
2013-04-01 23:47:00,37.6,26.2,30.16,NNE,22,3.0,5.0,63,0.00,,,0.00,0,MyOwnSoftware,2013-04-01 22:47:00,
2013-04-01 23:48:00,37.6,26.5,30.16,NNE,22,3.0,4.0,64,0.00,,,0.00,0,MyOwnSoftware,2013-04-01 22:48:00,
2013-04-01 23:49:00,37.6,26.5,30.16,NNE,22,2.0,3.0,64,0.00,,,0.00,0,MyOwnSoftware,2013-04-01 22:49:00,
2013-04-01 23:50:00,37.6,26.5,30.16,NE,45,2.0,3.0,64,0.00,,,0.00,0,MyOwnSoftware,2013-04-01 22:50:00,
2013-04-01 23:51:00,37.6,26.5,30.16,NE,45,1.0,2.0,64,0.00,,,0.00,0,MyOwnSoftware,2013-04-01 22:51:00,
2013-04-01 23:52:00,37.6,26.5,30.16,NE,45,2.0,3.0,64,0.00,,,0.00,0,MyOwnSoftware,2013-04-01 22:52:00,
2013-04-01 23:53:00,37.6,26.5,30.16,NE,45,2.0,3.0,64,0.00,,,0.00,0,MyOwnSoftware,2013-04-01 22:53:00,
2013-04-01 23:54:00,37.6,26.5,30.16,NE,45,2.0,3.0,64,0.00,,,0.00,0,MyOwnSoftware,2013-04-01 22:54:00,
2013-04-01 23:55:00,37.6,26.5,30.16,NE,45,2.0,2.0,64,0.00,,,0.00,0,MyOwnSoftware,2013-04-01 22:55:00,
2013-04-01 23:56:00,37.6,26.5,30.16,NE,45,2.0,3.0,64,0.00,,,0.00,0,MyOwnSoftware,2013-04-01 22:56:00,
2013-04-01 23:57:00,37.6,26.5,30.16,NE,45,2.0,3.0,64,0.00,,,0.00,0,MyOwnSoftware,2013-04-01 22:57:00,
2013-04-01 23:58:00,37.6,26.5,30.16,NNE,22,2.0,3.0,64,0.00,,,0.00,0,MyOwnSoftware,2013-04-01 22:58:00,
2013-04-01 23:59:00,37.6,26.5,30.16,NE,45,3.0,5.0,64,0.00,,,0.00,0,MyOwnSoftware,2013-04-01 22:59:00,